<?xml version="1.0" encoding="UTF-8" standalone="no" ?>
<gpx xmlns="http://www.topografix.com/GPX/1/1" xmlns:xsi="http://www.w3.org/2001/XMLSchema-instance" xsi:schemaLocation="http://www.topografix.com/GPX/1/1 http://www.topografix.com/GPX/1/1/gpx.xsd" version="1.1" creator="VisuGPX - https://www.visugpx.com">
  <metadata>
    <name>Vendredi 3 juillet 26 -St Ignace - Pinodieta - Souraïde -</name>
  </metadata>
  <trk>
    <name><![CDATA[Vendredi 3 juillet 26-24477535]]></name>
    <trkseg>
      <trkpt lat="43.38268" lon="-1.65922">
        <ele>2</ele>
        <time>2026-06-28T17:14:45Z</time>
      </trkpt>
      <trkpt lat="43.38269" lon="-1.65917">
        <ele>2</ele>
        <time>2026-06-28T17:14:46Z</time>
      </trkpt>
      <trkpt lat="43.38273" lon="-1.65911">
        <ele>2</ele>
        <time>2026-06-28T17:14:47Z</time>
      </trkpt>
      <trkpt lat="43.38293" lon="-1.659">
        <ele>4</ele>
        <time>2026-06-28T17:14:51Z</time>
      </trkpt>
      <trkpt lat="43.38297" lon="-1.65896">
        <ele>4</ele>
        <time>2026-06-28T17:14:51Z</time>
      </trkpt>
      <trkpt lat="43.38295" lon="-1.65889">
        <ele>4</ele>
        <time>2026-06-28T17:14:52Z</time>
      </trkpt>
      <trkpt lat="43.38278" lon="-1.65849">
        <ele>3</ele>
        <time>2026-06-28T17:14:58Z</time>
      </trkpt>
      <trkpt lat="43.38248" lon="-1.65772">
        <ele>3</ele>
        <time>2026-06-28T17:15:10Z</time>
      </trkpt>
      <trkpt lat="43.38233" lon="-1.65727">
        <ele>3</ele>
        <time>2026-06-28T17:15:16Z</time>
      </trkpt>
      <trkpt lat="43.38226" lon="-1.65701">
        <ele>3</ele>
        <time>2026-06-28T17:15:20Z</time>
      </trkpt>
      <trkpt lat="43.38227" lon="-1.6568">
        <ele>3</ele>
        <time>2026-06-28T17:15:22Z</time>
      </trkpt>
      <trkpt lat="43.38229" lon="-1.65673">
        <ele>3</ele>
        <time>2026-06-28T17:15:23Z</time>
      </trkpt>
      <trkpt lat="43.38235" lon="-1.65661">
        <ele>4</ele>
        <time>2026-06-28T17:15:25Z</time>
      </trkpt>
      <trkpt lat="43.3825" lon="-1.65641">
        <ele>4</ele>
        <time>2026-06-28T17:15:29Z</time>
      </trkpt>
      <trkpt lat="43.3828" lon="-1.6561">
        <ele>3</ele>
        <time>2026-06-28T17:15:36Z</time>
      </trkpt>
      <trkpt lat="43.3832" lon="-1.65558">
        <ele>3</ele>
        <time>2026-06-28T17:15:45Z</time>
      </trkpt>
      <trkpt lat="43.38341" lon="-1.65526">
        <ele>4</ele>
        <time>2026-06-28T17:15:51Z</time>
      </trkpt>
      <trkpt lat="43.38345" lon="-1.65516">
        <ele>4</ele>
        <time>2026-06-28T17:15:52Z</time>
      </trkpt>
      <trkpt lat="43.38343" lon="-1.65506">
        <ele>4</ele>
        <time>2026-06-28T17:15:54Z</time>
      </trkpt>
      <trkpt lat="43.3832" lon="-1.65471">
        <ele>4</ele>
        <time>2026-06-28T17:16:00Z</time>
      </trkpt>
      <trkpt lat="43.3832" lon="-1.65463">
        <ele>4</ele>
        <time>2026-06-28T17:16:01Z</time>
      </trkpt>
      <trkpt lat="43.38322" lon="-1.65454">
        <ele>4</ele>
        <time>2026-06-28T17:16:02Z</time>
      </trkpt>
      <trkpt lat="43.38325" lon="-1.65446">
        <ele>5</ele>
        <time>2026-06-28T17:16:03Z</time>
      </trkpt>
      <trkpt lat="43.38338" lon="-1.6543">
        <ele>5</ele>
        <time>2026-06-28T17:16:06Z</time>
      </trkpt>
      <trkpt lat="43.38343" lon="-1.65421">
        <ele>5</ele>
        <time>2026-06-28T17:16:08Z</time>
      </trkpt>
      <trkpt lat="43.38366" lon="-1.6537">
        <ele>5</ele>
        <time>2026-06-28T17:16:16Z</time>
      </trkpt>
      <trkpt lat="43.38384" lon="-1.65335">
        <ele>6</ele>
        <time>2026-06-28T17:16:21Z</time>
      </trkpt>
      <trkpt lat="43.38389" lon="-1.65317">
        <ele>8</ele>
        <time>2026-06-28T17:16:24Z</time>
      </trkpt>
      <trkpt lat="43.38391" lon="-1.65298">
        <ele>10</ele>
        <time>2026-06-28T17:16:26Z</time>
      </trkpt>
      <trkpt lat="43.38388" lon="-1.65286">
        <ele>11</ele>
        <time>2026-06-28T17:16:28Z</time>
      </trkpt>
      <trkpt lat="43.38383" lon="-1.65275">
        <ele>12</ele>
        <time>2026-06-28T17:16:30Z</time>
      </trkpt>
      <trkpt lat="43.38357" lon="-1.65244">
        <ele>12</ele>
        <time>2026-06-28T17:16:36Z</time>
      </trkpt>
      <trkpt lat="43.38328" lon="-1.65189">
        <ele>11</ele>
        <time>2026-06-28T17:16:44Z</time>
      </trkpt>
      <trkpt lat="43.38322" lon="-1.65156">
        <ele>11</ele>
        <time>2026-06-28T17:16:49Z</time>
      </trkpt>
      <trkpt lat="43.38282" lon="-1.65046">
        <ele>9</ele>
        <time>2026-06-28T17:17:05Z</time>
      </trkpt>
      <trkpt lat="43.38279" lon="-1.65041">
        <ele>9</ele>
        <time>2026-06-28T17:17:06Z</time>
      </trkpt>
      <trkpt lat="43.38265" lon="-1.65034">
        <ele>8</ele>
        <time>2026-06-28T17:17:08Z</time>
      </trkpt>
      <trkpt lat="43.38261" lon="-1.65027">
        <ele>8</ele>
        <time>2026-06-28T17:17:09Z</time>
      </trkpt>
      <trkpt lat="43.3826" lon="-1.65019">
        <ele>8</ele>
        <time>2026-06-28T17:17:10Z</time>
      </trkpt>
      <trkpt lat="43.38263" lon="-1.64999">
        <ele>8</ele>
        <time>2026-06-28T17:17:13Z</time>
      </trkpt>
      <trkpt lat="43.38252" lon="-1.64962">
        <ele>8</ele>
        <time>2026-06-28T17:17:18Z</time>
      </trkpt>
      <trkpt lat="43.38247" lon="-1.64935">
        <ele>8</ele>
        <time>2026-06-28T17:17:22Z</time>
      </trkpt>
      <trkpt lat="43.38247" lon="-1.64914">
        <ele>8</ele>
        <time>2026-06-28T17:17:25Z</time>
      </trkpt>
      <trkpt lat="43.38248" lon="-1.64885">
        <ele>8</ele>
        <time>2026-06-28T17:17:28Z</time>
      </trkpt>
      <trkpt lat="43.38272" lon="-1.64657">
        <ele>6</ele>
        <time>2026-06-28T17:17:58Z</time>
      </trkpt>
      <trkpt lat="43.38275" lon="-1.64606">
        <ele>7</ele>
        <time>2026-06-28T17:18:05Z</time>
      </trkpt>
      <trkpt lat="43.38276" lon="-1.64538">
        <ele>9</ele>
        <time>2026-06-28T17:18:14Z</time>
      </trkpt>
      <trkpt lat="43.3827" lon="-1.64432">
        <ele>8</ele>
        <time>2026-06-28T17:18:27Z</time>
      </trkpt>
      <trkpt lat="43.38271" lon="-1.64403">
        <ele>8</ele>
        <time>2026-06-28T17:18:31Z</time>
      </trkpt>
      <trkpt lat="43.38265" lon="-1.64383">
        <ele>7</ele>
        <time>2026-06-28T17:18:34Z</time>
      </trkpt>
      <trkpt lat="43.38242" lon="-1.64334">
        <ele>5</ele>
        <time>2026-06-28T17:18:41Z</time>
      </trkpt>
      <trkpt lat="43.38219" lon="-1.643">
        <ele>5</ele>
        <time>2026-06-28T17:18:47Z</time>
      </trkpt>
      <trkpt lat="43.38197" lon="-1.64275">
        <ele>5</ele>
        <time>2026-06-28T17:18:52Z</time>
      </trkpt>
      <trkpt lat="43.38131" lon="-1.64212">
        <ele>6</ele>
        <time>2026-06-28T17:19:07Z</time>
      </trkpt>
      <trkpt lat="43.3812" lon="-1.64199">
        <ele>6</ele>
        <time>2026-06-28T17:19:09Z</time>
      </trkpt>
      <trkpt lat="43.38101" lon="-1.64162">
        <ele>7</ele>
        <time>2026-06-28T17:19:15Z</time>
      </trkpt>
      <trkpt lat="43.38063" lon="-1.64078">
        <ele>8</ele>
        <time>2026-06-28T17:19:28Z</time>
      </trkpt>
      <trkpt lat="43.38044" lon="-1.64049">
        <ele>9</ele>
        <time>2026-06-28T17:19:33Z</time>
      </trkpt>
      <trkpt lat="43.38031" lon="-1.64035">
        <ele>9</ele>
        <time>2026-06-28T17:19:36Z</time>
      </trkpt>
      <trkpt lat="43.37897" lon="-1.63913">
        <ele>6</ele>
        <time>2026-06-28T17:20:05Z</time>
      </trkpt>
      <trkpt lat="43.37788" lon="-1.63801">
        <ele>8</ele>
        <time>2026-06-28T17:20:29Z</time>
      </trkpt>
      <trkpt lat="43.37767" lon="-1.63785">
        <ele>8</ele>
        <time>2026-06-28T17:20:33Z</time>
      </trkpt>
      <trkpt lat="43.37751" lon="-1.63779">
        <ele>8</ele>
        <time>2026-06-28T17:20:36Z</time>
      </trkpt>
      <trkpt lat="43.37734" lon="-1.63777">
        <ele>8</ele>
        <time>2026-06-28T17:20:39Z</time>
      </trkpt>
      <trkpt lat="43.37711" lon="-1.63778">
        <ele>7</ele>
        <time>2026-06-28T17:20:43Z</time>
      </trkpt>
      <trkpt lat="43.37639" lon="-1.63785">
        <ele>6</ele>
        <time>2026-06-28T17:20:56Z</time>
      </trkpt>
      <trkpt lat="43.37629" lon="-1.63789">
        <ele>6</ele>
        <time>2026-06-28T17:20:58Z</time>
      </trkpt>
      <trkpt lat="43.3762" lon="-1.63798">
        <ele>6</ele>
        <time>2026-06-28T17:21:00Z</time>
      </trkpt>
      <trkpt lat="43.37615" lon="-1.638">
        <ele>5</ele>
        <time>2026-06-28T17:21:01Z</time>
      </trkpt>
      <trkpt lat="43.37558" lon="-1.63804">
        <ele>5</ele>
        <time>2026-06-28T17:21:11Z</time>
      </trkpt>
      <trkpt lat="43.37549" lon="-1.63807">
        <ele>5</ele>
        <time>2026-06-28T17:21:13Z</time>
      </trkpt>
      <trkpt lat="43.37535" lon="-1.63818">
        <ele>4</ele>
        <time>2026-06-28T17:21:15Z</time>
      </trkpt>
      <trkpt lat="43.3753" lon="-1.63819">
        <ele>4</ele>
        <time>2026-06-28T17:21:16Z</time>
      </trkpt>
      <trkpt lat="43.37519" lon="-1.63818">
        <ele>4</ele>
        <time>2026-06-28T17:21:18Z</time>
      </trkpt>
      <trkpt lat="43.37515" lon="-1.63813">
        <ele>4</ele>
        <time>2026-06-28T17:21:19Z</time>
      </trkpt>
      <trkpt lat="43.37512" lon="-1.63807">
        <ele>4</ele>
        <time>2026-06-28T17:21:20Z</time>
      </trkpt>
      <trkpt lat="43.37506" lon="-1.63803">
        <ele>4</ele>
        <time>2026-06-28T17:21:21Z</time>
      </trkpt>
      <trkpt lat="43.37447" lon="-1.638">
        <ele>4</ele>
        <time>2026-06-28T17:21:32Z</time>
      </trkpt>
      <trkpt lat="43.374" lon="-1.63796">
        <ele>4</ele>
        <time>2026-06-28T17:21:40Z</time>
      </trkpt>
      <trkpt lat="43.37132" lon="-1.63812">
        <ele>5</ele>
        <time>2026-06-28T17:22:28Z</time>
      </trkpt>
      <trkpt lat="43.37076" lon="-1.63811">
        <ele>5</ele>
        <time>2026-06-28T17:22:38Z</time>
      </trkpt>
      <trkpt lat="43.37065" lon="-1.63809">
        <ele>5</ele>
        <time>2026-06-28T17:22:40Z</time>
      </trkpt>
      <trkpt lat="43.3706" lon="-1.63807">
        <ele>5</ele>
        <time>2026-06-28T17:22:41Z</time>
      </trkpt>
      <trkpt lat="43.37029" lon="-1.63781">
        <ele>5</ele>
        <time>2026-06-28T17:22:47Z</time>
      </trkpt>
      <trkpt lat="43.36932" lon="-1.63716">
        <ele>5</ele>
        <time>2026-06-28T17:23:06Z</time>
      </trkpt>
      <trkpt lat="43.36876" lon="-1.63682">
        <ele>4</ele>
        <time>2026-06-28T17:23:17Z</time>
      </trkpt>
      <trkpt lat="43.3686" lon="-1.6367">
        <ele>4</ele>
        <time>2026-06-28T17:23:21Z</time>
      </trkpt>
      <trkpt lat="43.36763" lon="-1.63607">
        <ele>6</ele>
        <time>2026-06-28T17:23:40Z</time>
      </trkpt>
      <trkpt lat="43.36743" lon="-1.63596">
        <ele>7</ele>
        <time>2026-06-28T17:23:44Z</time>
      </trkpt>
      <trkpt lat="43.36707" lon="-1.63586">
        <ele>7</ele>
        <time>2026-06-28T17:23:50Z</time>
      </trkpt>
      <trkpt lat="43.36673" lon="-1.63581">
        <ele>8</ele>
        <time>2026-06-28T17:23:56Z</time>
      </trkpt>
      <trkpt lat="43.36649" lon="-1.63581">
        <ele>7</ele>
        <time>2026-06-28T17:24:00Z</time>
      </trkpt>
      <trkpt lat="43.36626" lon="-1.63584">
        <ele>7</ele>
        <time>2026-06-28T17:24:05Z</time>
      </trkpt>
      <trkpt lat="43.36499" lon="-1.63624">
        <ele>4</ele>
        <time>2026-06-28T17:24:28Z</time>
      </trkpt>
      <trkpt lat="43.36418" lon="-1.63652">
        <ele>7</ele>
        <time>2026-06-28T17:24:43Z</time>
      </trkpt>
      <trkpt lat="43.36399" lon="-1.63663">
        <ele>7</ele>
        <time>2026-06-28T17:24:46Z</time>
      </trkpt>
      <trkpt lat="43.36378" lon="-1.63666">
        <ele>7</ele>
        <time>2026-06-28T17:24:50Z</time>
      </trkpt>
      <trkpt lat="43.36327" lon="-1.63677">
        <ele>7</ele>
        <time>2026-06-28T17:24:59Z</time>
      </trkpt>
      <trkpt lat="43.36306" lon="-1.63679">
        <ele>7</ele>
        <time>2026-06-28T17:25:03Z</time>
      </trkpt>
      <trkpt lat="43.36283" lon="-1.63678">
        <ele>6</ele>
        <time>2026-06-28T17:25:07Z</time>
      </trkpt>
      <trkpt lat="43.36267" lon="-1.63674">
        <ele>6</ele>
        <time>2026-06-28T17:25:10Z</time>
      </trkpt>
      <trkpt lat="43.3624" lon="-1.63664">
        <ele>6</ele>
        <time>2026-06-28T17:25:15Z</time>
      </trkpt>
      <trkpt lat="43.36214" lon="-1.63656">
        <ele>6</ele>
        <time>2026-06-28T17:25:20Z</time>
      </trkpt>
      <trkpt lat="43.36201" lon="-1.6365">
        <ele>6</ele>
        <time>2026-06-28T17:25:22Z</time>
      </trkpt>
      <trkpt lat="43.36182" lon="-1.63639">
        <ele>6</ele>
        <time>2026-06-28T17:25:26Z</time>
      </trkpt>
      <trkpt lat="43.36112" lon="-1.63613">
        <ele>5</ele>
        <time>2026-06-28T17:25:39Z</time>
      </trkpt>
      <trkpt lat="43.36078" lon="-1.63594">
        <ele>5</ele>
        <time>2026-06-28T17:25:45Z</time>
      </trkpt>
      <trkpt lat="43.36059" lon="-1.63578">
        <ele>5</ele>
        <time>2026-06-28T17:25:49Z</time>
      </trkpt>
      <trkpt lat="43.36034" lon="-1.63544">
        <ele>6</ele>
        <time>2026-06-28T17:25:55Z</time>
      </trkpt>
      <trkpt lat="43.36015" lon="-1.6351">
        <ele>6</ele>
        <time>2026-06-28T17:26:01Z</time>
      </trkpt>
      <trkpt lat="43.35999" lon="-1.63468">
        <ele>7</ele>
        <time>2026-06-28T17:26:07Z</time>
      </trkpt>
      <trkpt lat="43.35987" lon="-1.63442">
        <ele>8</ele>
        <time>2026-06-28T17:26:11Z</time>
      </trkpt>
      <trkpt lat="43.35922" lon="-1.63347">
        <ele>8</ele>
        <time>2026-06-28T17:26:28Z</time>
      </trkpt>
      <trkpt lat="43.35895" lon="-1.63317">
        <ele>9</ele>
        <time>2026-06-28T17:26:34Z</time>
      </trkpt>
      <trkpt lat="43.35786" lon="-1.63219">
        <ele>9</ele>
        <time>2026-06-28T17:26:57Z</time>
      </trkpt>
      <trkpt lat="43.35771" lon="-1.63209">
        <ele>8</ele>
        <time>2026-06-28T17:27:00Z</time>
      </trkpt>
      <trkpt lat="43.35741" lon="-1.63192">
        <ele>7</ele>
        <time>2026-06-28T17:27:06Z</time>
      </trkpt>
      <trkpt lat="43.35684" lon="-1.6317">
        <ele>6</ele>
        <time>2026-06-28T17:27:17Z</time>
      </trkpt>
      <trkpt lat="43.35672" lon="-1.63167">
        <ele>6</ele>
        <time>2026-06-28T17:27:19Z</time>
      </trkpt>
      <trkpt lat="43.35656" lon="-1.63169">
        <ele>6</ele>
        <time>2026-06-28T17:27:22Z</time>
      </trkpt>
      <trkpt lat="43.35642" lon="-1.6316">
        <ele>6</ele>
        <time>2026-06-28T17:27:24Z</time>
      </trkpt>
      <trkpt lat="43.35602" lon="-1.63152">
        <ele>5</ele>
        <time>2026-06-28T17:27:32Z</time>
      </trkpt>
      <trkpt lat="43.35433" lon="-1.63099">
        <ele>6</ele>
        <time>2026-06-28T17:28:02Z</time>
      </trkpt>
      <trkpt lat="43.35408" lon="-1.6309">
        <ele>7</ele>
        <time>2026-06-28T17:28:07Z</time>
      </trkpt>
      <trkpt lat="43.35385" lon="-1.63077">
        <ele>7</ele>
        <time>2026-06-28T17:28:11Z</time>
      </trkpt>
      <trkpt lat="43.35357" lon="-1.63057">
        <ele>7</ele>
        <time>2026-06-28T17:28:17Z</time>
      </trkpt>
      <trkpt lat="43.35315" lon="-1.63015">
        <ele>6</ele>
        <time>2026-06-28T17:28:26Z</time>
      </trkpt>
      <trkpt lat="43.35293" lon="-1.62985">
        <ele>6</ele>
        <time>2026-06-28T17:28:32Z</time>
      </trkpt>
      <trkpt lat="43.35271" lon="-1.62946">
        <ele>6</ele>
        <time>2026-06-28T17:28:38Z</time>
      </trkpt>
      <trkpt lat="43.35263" lon="-1.62928">
        <ele>6</ele>
        <time>2026-06-28T17:28:41Z</time>
      </trkpt>
      <trkpt lat="43.35227" lon="-1.62823">
        <ele>7</ele>
        <time>2026-06-28T17:28:56Z</time>
      </trkpt>
      <trkpt lat="43.352" lon="-1.62749">
        <ele>8</ele>
        <time>2026-06-28T17:29:07Z</time>
      </trkpt>
      <trkpt lat="43.35182" lon="-1.62702">
        <ele>8</ele>
        <time>2026-06-28T17:29:13Z</time>
      </trkpt>
      <trkpt lat="43.35171" lon="-1.62667">
        <ele>8</ele>
        <time>2026-06-28T17:29:18Z</time>
      </trkpt>
      <trkpt lat="43.35144" lon="-1.62601">
        <ele>12</ele>
        <time>2026-06-28T17:29:28Z</time>
      </trkpt>
      <trkpt lat="43.35133" lon="-1.6258">
        <ele>12</ele>
        <time>2026-06-28T17:29:32Z</time>
      </trkpt>
      <trkpt lat="43.35124" lon="-1.62557">
        <ele>11</ele>
        <time>2026-06-28T17:29:35Z</time>
      </trkpt>
      <trkpt lat="43.35115" lon="-1.62543">
        <ele>11</ele>
        <time>2026-06-28T17:29:37Z</time>
      </trkpt>
      <trkpt lat="43.35108" lon="-1.62536">
        <ele>10</ele>
        <time>2026-06-28T17:29:39Z</time>
      </trkpt>
      <trkpt lat="43.35104" lon="-1.62533">
        <ele>9</ele>
        <time>2026-06-28T17:29:40Z</time>
      </trkpt>
      <trkpt lat="43.35095" lon="-1.62533">
        <ele>8</ele>
        <time>2026-06-28T17:29:41Z</time>
      </trkpt>
      <trkpt lat="43.35057" lon="-1.62541">
        <ele>6</ele>
        <time>2026-06-28T17:29:48Z</time>
      </trkpt>
      <trkpt lat="43.35047" lon="-1.62542">
        <ele>6</ele>
        <time>2026-06-28T17:29:50Z</time>
      </trkpt>
      <trkpt lat="43.35021" lon="-1.62535">
        <ele>6</ele>
        <time>2026-06-28T17:29:55Z</time>
      </trkpt>
      <trkpt lat="43.34972" lon="-1.62529">
        <ele>6</ele>
        <time>2026-06-28T17:30:03Z</time>
      </trkpt>
      <trkpt lat="43.34934" lon="-1.62521">
        <ele>7</ele>
        <time>2026-06-28T17:30:10Z</time>
      </trkpt>
      <trkpt lat="43.34909" lon="-1.62521">
        <ele>7</ele>
        <time>2026-06-28T17:30:15Z</time>
      </trkpt>
      <trkpt lat="43.34904" lon="-1.62515">
        <ele>7</ele>
        <time>2026-06-28T17:30:16Z</time>
      </trkpt>
      <trkpt lat="43.349" lon="-1.62507">
        <ele>7</ele>
        <time>2026-06-28T17:30:17Z</time>
      </trkpt>
      <trkpt lat="43.34887" lon="-1.62468">
        <ele>7</ele>
        <time>2026-06-28T17:30:23Z</time>
      </trkpt>
      <trkpt lat="43.34876" lon="-1.62444">
        <ele>7</ele>
        <time>2026-06-28T17:30:26Z</time>
      </trkpt>
      <trkpt lat="43.34849" lon="-1.62401">
        <ele>7</ele>
        <time>2026-06-28T17:30:34Z</time>
      </trkpt>
      <trkpt lat="43.34817" lon="-1.62361">
        <ele>8</ele>
        <time>2026-06-28T17:30:41Z</time>
      </trkpt>
      <trkpt lat="43.34812" lon="-1.62352">
        <ele>8</ele>
        <time>2026-06-28T17:30:43Z</time>
      </trkpt>
      <trkpt lat="43.34805" lon="-1.62333">
        <ele>9</ele>
        <time>2026-06-28T17:30:46Z</time>
      </trkpt>
      <trkpt lat="43.34801" lon="-1.62325">
        <ele>9</ele>
        <time>2026-06-28T17:30:47Z</time>
      </trkpt>
      <trkpt lat="43.34794" lon="-1.62318">
        <ele>9</ele>
        <time>2026-06-28T17:30:48Z</time>
      </trkpt>
      <trkpt lat="43.34679" lon="-1.62227">
        <ele>12</ele>
        <time>2026-06-28T17:31:12Z</time>
      </trkpt>
      <trkpt lat="43.34647" lon="-1.62196">
        <ele>13</ele>
        <time>2026-06-28T17:31:19Z</time>
      </trkpt>
      <trkpt lat="43.34574" lon="-1.62138">
        <ele>19</ele>
        <time>2026-06-28T17:31:34Z</time>
      </trkpt>
      <trkpt lat="43.34522" lon="-1.62105">
        <ele>23</ele>
        <time>2026-06-28T17:31:44Z</time>
      </trkpt>
      <trkpt lat="43.34511" lon="-1.621">
        <ele>24</ele>
        <time>2026-06-28T17:31:46Z</time>
      </trkpt>
      <trkpt lat="43.34477" lon="-1.62091">
        <ele>25</ele>
        <time>2026-06-28T17:31:52Z</time>
      </trkpt>
      <trkpt lat="43.34471" lon="-1.62087">
        <ele>25</ele>
        <time>2026-06-28T17:31:54Z</time>
      </trkpt>
      <trkpt lat="43.34466" lon="-1.62082">
        <ele>25</ele>
        <time>2026-06-28T17:31:55Z</time>
      </trkpt>
      <trkpt lat="43.34458" lon="-1.62066">
        <ele>24</ele>
        <time>2026-06-28T17:31:57Z</time>
      </trkpt>
      <trkpt lat="43.34442" lon="-1.62043">
        <ele>24</ele>
        <time>2026-06-28T17:32:01Z</time>
      </trkpt>
      <trkpt lat="43.34399" lon="-1.61974">
        <ele>26</ele>
        <time>2026-06-28T17:32:13Z</time>
      </trkpt>
      <trkpt lat="43.3439" lon="-1.61956">
        <ele>26</ele>
        <time>2026-06-28T17:32:16Z</time>
      </trkpt>
      <trkpt lat="43.34387" lon="-1.61945">
        <ele>26</ele>
        <time>2026-06-28T17:32:17Z</time>
      </trkpt>
      <trkpt lat="43.34381" lon="-1.61913">
        <ele>26</ele>
        <time>2026-06-28T17:32:22Z</time>
      </trkpt>
      <trkpt lat="43.34379" lon="-1.61875">
        <ele>24</ele>
        <time>2026-06-28T17:32:27Z</time>
      </trkpt>
      <trkpt lat="43.34379" lon="-1.6169">
        <ele>25</ele>
        <time>2026-06-28T17:32:51Z</time>
      </trkpt>
      <trkpt lat="43.34373" lon="-1.61663">
        <ele>27</ele>
        <time>2026-06-28T17:32:54Z</time>
      </trkpt>
      <trkpt lat="43.34359" lon="-1.61641">
        <ele>30</ele>
        <time>2026-06-28T17:32:58Z</time>
      </trkpt>
      <trkpt lat="43.34347" lon="-1.61634">
        <ele>31</ele>
        <time>2026-06-28T17:33:00Z</time>
      </trkpt>
      <trkpt lat="43.34329" lon="-1.61631">
        <ele>33</ele>
        <time>2026-06-28T17:33:04Z</time>
      </trkpt>
      <trkpt lat="43.343" lon="-1.61631">
        <ele>35</ele>
        <time>2026-06-28T17:33:09Z</time>
      </trkpt>
      <trkpt lat="43.34288" lon="-1.61634">
        <ele>36</ele>
        <time>2026-06-28T17:33:11Z</time>
      </trkpt>
      <trkpt lat="43.34263" lon="-1.61631">
        <ele>39</ele>
        <time>2026-06-28T17:33:15Z</time>
      </trkpt>
      <trkpt lat="43.3424" lon="-1.61632">
        <ele>40</ele>
        <time>2026-06-28T17:33:19Z</time>
      </trkpt>
      <trkpt lat="43.34229" lon="-1.61629">
        <ele>40</ele>
        <time>2026-06-28T17:33:21Z</time>
      </trkpt>
      <trkpt lat="43.34202" lon="-1.61617">
        <ele>42</ele>
        <time>2026-06-28T17:33:26Z</time>
      </trkpt>
      <trkpt lat="43.34192" lon="-1.61616">
        <ele>42</ele>
        <time>2026-06-28T17:33:28Z</time>
      </trkpt>
      <trkpt lat="43.34186" lon="-1.61614">
        <ele>43</ele>
        <time>2026-06-28T17:33:29Z</time>
      </trkpt>
      <trkpt lat="43.34152" lon="-1.6161">
        <ele>44</ele>
        <time>2026-06-28T17:33:35Z</time>
      </trkpt>
      <trkpt lat="43.34141" lon="-1.61611">
        <ele>45</ele>
        <time>2026-06-28T17:33:37Z</time>
      </trkpt>
      <trkpt lat="43.34126" lon="-1.61615">
        <ele>45</ele>
        <time>2026-06-28T17:33:40Z</time>
      </trkpt>
      <trkpt lat="43.34115" lon="-1.6162">
        <ele>45</ele>
        <time>2026-06-28T17:33:42Z</time>
      </trkpt>
      <trkpt lat="43.34099" lon="-1.61625">
        <ele>45</ele>
        <time>2026-06-28T17:33:45Z</time>
      </trkpt>
      <trkpt lat="43.34089" lon="-1.61626">
        <ele>45</ele>
        <time>2026-06-28T17:33:47Z</time>
      </trkpt>
      <trkpt lat="43.34075" lon="-1.61619">
        <ele>47</ele>
        <time>2026-06-28T17:33:50Z</time>
      </trkpt>
      <trkpt lat="43.34062" lon="-1.61609">
        <ele>48</ele>
        <time>2026-06-28T17:33:52Z</time>
      </trkpt>
      <trkpt lat="43.34038" lon="-1.61583">
        <ele>52</ele>
        <time>2026-06-28T17:33:58Z</time>
      </trkpt>
      <trkpt lat="43.34022" lon="-1.61571">
        <ele>55</ele>
        <time>2026-06-28T17:34:01Z</time>
      </trkpt>
      <trkpt lat="43.34012" lon="-1.61567">
        <ele>56</ele>
        <time>2026-06-28T17:34:03Z</time>
      </trkpt>
      <trkpt lat="43.33986" lon="-1.61561">
        <ele>58</ele>
        <time>2026-06-28T17:34:07Z</time>
      </trkpt>
      <trkpt lat="43.3395" lon="-1.6156">
        <ele>58</ele>
        <time>2026-06-28T17:34:14Z</time>
      </trkpt>
      <trkpt lat="43.33915" lon="-1.61566">
        <ele>56</ele>
        <time>2026-06-28T17:34:20Z</time>
      </trkpt>
      <trkpt lat="43.33894" lon="-1.61566">
        <ele>57</ele>
        <time>2026-06-28T17:34:24Z</time>
      </trkpt>
      <trkpt lat="43.33874" lon="-1.61573">
        <ele>56</ele>
        <time>2026-06-28T17:34:27Z</time>
      </trkpt>
      <trkpt lat="43.33864" lon="-1.61575">
        <ele>57</ele>
        <time>2026-06-28T17:34:29Z</time>
      </trkpt>
      <trkpt lat="43.33839" lon="-1.6157">
        <ele>60</ele>
        <time>2026-06-28T17:34:34Z</time>
      </trkpt>
      <trkpt lat="43.33828" lon="-1.61571">
        <ele>61</ele>
        <time>2026-06-28T17:34:36Z</time>
      </trkpt>
      <trkpt lat="43.33803" lon="-1.61577">
        <ele>61</ele>
        <time>2026-06-28T17:34:40Z</time>
      </trkpt>
      <trkpt lat="43.33783" lon="-1.61576">
        <ele>63</ele>
        <time>2026-06-28T17:34:44Z</time>
      </trkpt>
      <trkpt lat="43.33762" lon="-1.61567">
        <ele>67</ele>
        <time>2026-06-28T17:34:48Z</time>
      </trkpt>
      <trkpt lat="43.33729" lon="-1.61559">
        <ele>69</ele>
        <time>2026-06-28T17:34:54Z</time>
      </trkpt>
      <trkpt lat="43.33708" lon="-1.61549">
        <ele>72</ele>
        <time>2026-06-28T17:34:58Z</time>
      </trkpt>
      <trkpt lat="43.33693" lon="-1.61544">
        <ele>73</ele>
        <time>2026-06-28T17:35:00Z</time>
      </trkpt>
      <trkpt lat="43.33684" lon="-1.61537">
        <ele>74</ele>
        <time>2026-06-28T17:35:02Z</time>
      </trkpt>
      <trkpt lat="43.33665" lon="-1.61514">
        <ele>79</ele>
        <time>2026-06-28T17:35:07Z</time>
      </trkpt>
      <trkpt lat="43.33656" lon="-1.61505">
        <ele>79</ele>
        <time>2026-06-28T17:35:09Z</time>
      </trkpt>
      <trkpt lat="43.33621" lon="-1.61487">
        <ele>78</ele>
        <time>2026-06-28T17:35:15Z</time>
      </trkpt>
      <trkpt lat="43.33611" lon="-1.61478">
        <ele>79</ele>
        <time>2026-06-28T17:35:17Z</time>
      </trkpt>
      <trkpt lat="43.33594" lon="-1.61457">
        <ele>80</ele>
        <time>2026-06-28T17:35:22Z</time>
      </trkpt>
      <trkpt lat="43.33576" lon="-1.61423">
        <ele>84</ele>
        <time>2026-06-28T17:35:27Z</time>
      </trkpt>
      <trkpt lat="43.33567" lon="-1.6141">
        <ele>85</ele>
        <time>2026-06-28T17:35:29Z</time>
      </trkpt>
      <trkpt lat="43.33548" lon="-1.6139">
        <ele>84</ele>
        <time>2026-06-28T17:35:34Z</time>
      </trkpt>
      <trkpt lat="43.33544" lon="-1.61383">
        <ele>84</ele>
        <time>2026-06-28T17:35:35Z</time>
      </trkpt>
      <trkpt lat="43.33538" lon="-1.6136">
        <ele>87</ele>
        <time>2026-06-28T17:35:38Z</time>
      </trkpt>
      <trkpt lat="43.33536" lon="-1.61319">
        <ele>94</ele>
        <time>2026-06-28T17:35:43Z</time>
      </trkpt>
      <trkpt lat="43.3353" lon="-1.61304">
        <ele>96</ele>
        <time>2026-06-28T17:35:45Z</time>
      </trkpt>
      <trkpt lat="43.3352" lon="-1.61295">
        <ele>96</ele>
        <time>2026-06-28T17:35:48Z</time>
      </trkpt>
      <trkpt lat="43.33509" lon="-1.61289">
        <ele>95</ele>
        <time>2026-06-28T17:35:50Z</time>
      </trkpt>
      <trkpt lat="43.33499" lon="-1.61279">
        <ele>95</ele>
        <time>2026-06-28T17:35:52Z</time>
      </trkpt>
      <trkpt lat="43.33491" lon="-1.61266">
        <ele>95</ele>
        <time>2026-06-28T17:35:54Z</time>
      </trkpt>
      <trkpt lat="43.33479" lon="-1.61235">
        <ele>100</ele>
        <time>2026-06-28T17:35:59Z</time>
      </trkpt>
      <trkpt lat="43.33475" lon="-1.61229">
        <ele>101</ele>
        <time>2026-06-28T17:36:00Z</time>
      </trkpt>
      <trkpt lat="43.3347" lon="-1.61224">
        <ele>100</ele>
        <time>2026-06-28T17:36:01Z</time>
      </trkpt>
      <trkpt lat="43.33464" lon="-1.61221">
        <ele>99</ele>
        <time>2026-06-28T17:36:02Z</time>
      </trkpt>
      <trkpt lat="43.33451" lon="-1.6122">
        <ele>96</ele>
        <time>2026-06-28T17:36:04Z</time>
      </trkpt>
      <trkpt lat="43.33445" lon="-1.61218">
        <ele>94</ele>
        <time>2026-06-28T17:36:05Z</time>
      </trkpt>
      <trkpt lat="43.3344" lon="-1.61213">
        <ele>94</ele>
        <time>2026-06-28T17:36:06Z</time>
      </trkpt>
      <trkpt lat="43.33431" lon="-1.61202">
        <ele>93</ele>
        <time>2026-06-28T17:36:09Z</time>
      </trkpt>
      <trkpt lat="43.33425" lon="-1.61187">
        <ele>94</ele>
        <time>2026-06-28T17:36:11Z</time>
      </trkpt>
      <trkpt lat="43.33419" lon="-1.61144">
        <ele>98</ele>
        <time>2026-06-28T17:36:16Z</time>
      </trkpt>
      <trkpt lat="43.33418" lon="-1.61119">
        <ele>100</ele>
        <time>2026-06-28T17:36:20Z</time>
      </trkpt>
      <trkpt lat="43.33426" lon="-1.61079">
        <ele>106</ele>
        <time>2026-06-28T17:36:25Z</time>
      </trkpt>
      <trkpt lat="43.33429" lon="-1.61032">
        <ele>108</ele>
        <time>2026-06-28T17:36:31Z</time>
      </trkpt>
      <trkpt lat="43.33435" lon="-1.61018">
        <ele>110</ele>
        <time>2026-06-28T17:36:33Z</time>
      </trkpt>
      <trkpt lat="43.33451" lon="-1.61003">
        <ele>117</ele>
        <time>2026-06-28T17:36:37Z</time>
      </trkpt>
      <trkpt lat="43.33454" lon="-1.60997">
        <ele>118</ele>
        <time>2026-06-28T17:36:38Z</time>
      </trkpt>
      <trkpt lat="43.33456" lon="-1.60977">
        <ele>120</ele>
        <time>2026-06-28T17:36:40Z</time>
      </trkpt>
      <trkpt lat="43.3344" lon="-1.60952">
        <ele>116</ele>
        <time>2026-06-28T17:36:45Z</time>
      </trkpt>
      <trkpt lat="43.33435" lon="-1.60936">
        <ele>116</ele>
        <time>2026-06-28T17:36:47Z</time>
      </trkpt>
      <trkpt lat="43.33435" lon="-1.60926">
        <ele>117</ele>
        <time>2026-06-28T17:36:48Z</time>
      </trkpt>
      <trkpt lat="43.33439" lon="-1.60869">
        <ele>127</ele>
        <time>2026-06-28T17:36:56Z</time>
      </trkpt>
      <trkpt lat="43.33438" lon="-1.60861">
        <ele>129</ele>
        <time>2026-06-28T17:36:57Z</time>
      </trkpt>
      <trkpt lat="43.33435" lon="-1.60853">
        <ele>129</ele>
        <time>2026-06-28T17:36:58Z</time>
      </trkpt>
      <trkpt lat="43.33431" lon="-1.60849">
        <ele>129</ele>
        <time>2026-06-28T17:36:59Z</time>
      </trkpt>
      <trkpt lat="43.33425" lon="-1.60847">
        <ele>127</ele>
        <time>2026-06-28T17:37:00Z</time>
      </trkpt>
      <trkpt lat="43.33402" lon="-1.60853">
        <ele>121</ele>
        <time>2026-06-28T17:37:04Z</time>
      </trkpt>
      <trkpt lat="43.33396" lon="-1.60852">
        <ele>120</ele>
        <time>2026-06-28T17:37:05Z</time>
      </trkpt>
      <trkpt lat="43.33389" lon="-1.60851">
        <ele>119</ele>
        <time>2026-06-28T17:37:06Z</time>
      </trkpt>
      <trkpt lat="43.33379" lon="-1.60842">
        <ele>119</ele>
        <time>2026-06-28T17:37:08Z</time>
      </trkpt>
      <trkpt lat="43.33365" lon="-1.60823">
        <ele>121</ele>
        <time>2026-06-28T17:37:12Z</time>
      </trkpt>
      <trkpt lat="43.33359" lon="-1.60809">
        <ele>123</ele>
        <time>2026-06-28T17:37:14Z</time>
      </trkpt>
      <trkpt lat="43.33354" lon="-1.60793">
        <ele>125</ele>
        <time>2026-06-28T17:37:16Z</time>
      </trkpt>
      <trkpt lat="43.3335" lon="-1.60768">
        <ele>128</ele>
        <time>2026-06-28T17:37:19Z</time>
      </trkpt>
      <trkpt lat="43.33345" lon="-1.60752">
        <ele>130</ele>
        <time>2026-06-28T17:37:22Z</time>
      </trkpt>
      <trkpt lat="43.33336" lon="-1.60741">
        <ele>131</ele>
        <time>2026-06-28T17:37:24Z</time>
      </trkpt>
      <trkpt lat="43.33325" lon="-1.60736">
        <ele>129</ele>
        <time>2026-06-28T17:37:26Z</time>
      </trkpt>
      <trkpt lat="43.33315" lon="-1.60728">
        <ele>128</ele>
        <time>2026-06-28T17:37:28Z</time>
      </trkpt>
      <trkpt lat="43.33301" lon="-1.6071">
        <ele>128</ele>
        <time>2026-06-28T17:37:31Z</time>
      </trkpt>
      <trkpt lat="43.33267" lon="-1.60651">
        <ele>132</ele>
        <time>2026-06-28T17:37:41Z</time>
      </trkpt>
      <trkpt lat="43.33252" lon="-1.60617">
        <ele>134</ele>
        <time>2026-06-28T17:37:46Z</time>
      </trkpt>
      <trkpt lat="43.33245" lon="-1.60588">
        <ele>138</ele>
        <time>2026-06-28T17:37:50Z</time>
      </trkpt>
      <trkpt lat="43.33243" lon="-1.60557">
        <ele>141</ele>
        <time>2026-06-28T17:37:54Z</time>
      </trkpt>
      <trkpt lat="43.33246" lon="-1.60526">
        <ele>146</ele>
        <time>2026-06-28T17:37:58Z</time>
      </trkpt>
      <trkpt lat="43.33244" lon="-1.60518">
        <ele>147</ele>
        <time>2026-06-28T17:37:59Z</time>
      </trkpt>
      <trkpt lat="43.3324" lon="-1.60511">
        <ele>147</ele>
        <time>2026-06-28T17:38:01Z</time>
      </trkpt>
      <trkpt lat="43.33236" lon="-1.60508">
        <ele>146</ele>
        <time>2026-06-28T17:38:01Z</time>
      </trkpt>
      <trkpt lat="43.33204" lon="-1.60494">
        <ele>140</ele>
        <time>2026-06-28T17:38:07Z</time>
      </trkpt>
      <trkpt lat="43.33196" lon="-1.60485">
        <ele>139</ele>
        <time>2026-06-28T17:38:09Z</time>
      </trkpt>
      <trkpt lat="43.33188" lon="-1.60473">
        <ele>139</ele>
        <time>2026-06-28T17:38:11Z</time>
      </trkpt>
      <trkpt lat="43.33181" lon="-1.60452">
        <ele>140</ele>
        <time>2026-06-28T17:38:14Z</time>
      </trkpt>
      <trkpt lat="43.3317" lon="-1.60398">
        <ele>145</ele>
        <time>2026-06-28T17:38:22Z</time>
      </trkpt>
      <trkpt lat="43.33158" lon="-1.60365">
        <ele>147</ele>
        <time>2026-06-28T17:38:26Z</time>
      </trkpt>
      <trkpt lat="43.33148" lon="-1.6033">
        <ele>150</ele>
        <time>2026-06-28T17:38:31Z</time>
      </trkpt>
      <trkpt lat="43.33135" lon="-1.60304">
        <ele>150</ele>
        <time>2026-06-28T17:38:35Z</time>
      </trkpt>
      <trkpt lat="43.33119" lon="-1.60283">
        <ele>150</ele>
        <time>2026-06-28T17:38:39Z</time>
      </trkpt>
      <trkpt lat="43.33088" lon="-1.6026">
        <ele>152</ele>
        <time>2026-06-28T17:38:45Z</time>
      </trkpt>
      <trkpt lat="43.3301" lon="-1.60226">
        <ele>155</ele>
        <time>2026-06-28T17:39:00Z</time>
      </trkpt>
      <trkpt lat="43.32987" lon="-1.60218">
        <ele>157</ele>
        <time>2026-06-28T17:39:04Z</time>
      </trkpt>
      <trkpt lat="43.32953" lon="-1.60211">
        <ele>160</ele>
        <time>2026-06-28T17:39:10Z</time>
      </trkpt>
      <trkpt lat="43.32898" lon="-1.60204">
        <ele>162</ele>
        <time>2026-06-28T17:39:20Z</time>
      </trkpt>
      <trkpt lat="43.32804" lon="-1.60195">
        <ele>163</ele>
        <time>2026-06-28T17:39:37Z</time>
      </trkpt>
      <trkpt lat="43.32776" lon="-1.6019">
        <ele>164</ele>
        <time>2026-06-28T17:39:42Z</time>
      </trkpt>
      <trkpt lat="43.32763" lon="-1.60186">
        <ele>164</ele>
        <time>2026-06-28T17:39:44Z</time>
      </trkpt>
      <trkpt lat="43.32728" lon="-1.60165">
        <ele>166</ele>
        <time>2026-06-28T17:39:51Z</time>
      </trkpt>
      <trkpt lat="43.32683" lon="-1.60134">
        <ele>169</ele>
        <time>2026-06-28T17:40:00Z</time>
      </trkpt>
      <trkpt lat="43.3267" lon="-1.60127">
        <ele>169</ele>
        <time>2026-06-28T17:40:03Z</time>
      </trkpt>
      <trkpt lat="43.32636" lon="-1.60115">
        <ele>170</ele>
        <time>2026-06-28T17:40:09Z</time>
      </trkpt>
      <trkpt lat="43.32601" lon="-1.6011">
        <ele>168</ele>
        <time>2026-06-28T17:40:15Z</time>
      </trkpt>
      <trkpt lat="43.32579" lon="-1.60102">
        <ele>168</ele>
        <time>2026-06-28T17:40:19Z</time>
      </trkpt>
      <trkpt lat="43.32553" lon="-1.60081">
        <ele>171</ele>
        <time>2026-06-28T17:40:25Z</time>
      </trkpt>
      <trkpt lat="43.32526" lon="-1.60064">
        <ele>173</ele>
        <time>2026-06-28T17:40:30Z</time>
      </trkpt>
      <trkpt lat="43.32524" lon="-1.60065">
        <ele>173</ele>
        <time>2026-06-28T17:40:30Z</time>
      </trkpt>
      <trkpt lat="43.32518" lon="-1.60062">
        <ele>173</ele>
        <time>2026-06-28T17:40:31Z</time>
      </trkpt>
      <trkpt lat="43.32506" lon="-1.6006">
        <ele>173</ele>
        <time>2026-06-28T17:40:33Z</time>
      </trkpt>
      <trkpt lat="43.32494" lon="-1.60064">
        <ele>173</ele>
        <time>2026-06-28T17:40:36Z</time>
      </trkpt>
      <trkpt lat="43.32444" lon="-1.60105">
        <ele>179</ele>
        <time>2026-06-28T17:40:46Z</time>
      </trkpt>
      <trkpt lat="43.32437" lon="-1.60107">
        <ele>180</ele>
        <time>2026-06-28T17:40:47Z</time>
      </trkpt>
      <trkpt lat="43.32431" lon="-1.60107">
        <ele>180</ele>
        <time>2026-06-28T17:40:48Z</time>
      </trkpt>
      <trkpt lat="43.32424" lon="-1.60103">
        <ele>180</ele>
        <time>2026-06-28T17:40:50Z</time>
      </trkpt>
      <trkpt lat="43.32419" lon="-1.60096">
        <ele>179</ele>
        <time>2026-06-28T17:40:51Z</time>
      </trkpt>
      <trkpt lat="43.324" lon="-1.60065">
        <ele>180</ele>
        <time>2026-06-28T17:40:56Z</time>
      </trkpt>
      <trkpt lat="43.32377" lon="-1.60037">
        <ele>181</ele>
        <time>2026-06-28T17:41:02Z</time>
      </trkpt>
      <trkpt lat="43.32364" lon="-1.60027">
        <ele>182</ele>
        <time>2026-06-28T17:41:04Z</time>
      </trkpt>
      <trkpt lat="43.32343" lon="-1.60017">
        <ele>183</ele>
        <time>2026-06-28T17:41:08Z</time>
      </trkpt>
      <trkpt lat="43.32331" lon="-1.60017">
        <ele>185</ele>
        <time>2026-06-28T17:41:10Z</time>
      </trkpt>
      <trkpt lat="43.3231" lon="-1.60008">
        <ele>186</ele>
        <time>2026-06-28T17:41:14Z</time>
      </trkpt>
      <trkpt lat="43.32283" lon="-1.59985">
        <ele>185</ele>
        <time>2026-06-28T17:41:20Z</time>
      </trkpt>
      <trkpt lat="43.32265" lon="-1.59963">
        <ele>182</ele>
        <time>2026-06-28T17:41:24Z</time>
      </trkpt>
      <trkpt lat="43.32251" lon="-1.59953">
        <ele>181</ele>
        <time>2026-06-28T17:41:27Z</time>
      </trkpt>
      <trkpt lat="43.32243" lon="-1.59952">
        <ele>182</ele>
        <time>2026-06-28T17:41:29Z</time>
      </trkpt>
      <trkpt lat="43.32236" lon="-1.59956">
        <ele>183</ele>
        <time>2026-06-28T17:41:30Z</time>
      </trkpt>
      <trkpt lat="43.32229" lon="-1.59961">
        <ele>185</ele>
        <time>2026-06-28T17:41:31Z</time>
      </trkpt>
      <trkpt lat="43.32212" lon="-1.59983">
        <ele>190</ele>
        <time>2026-06-28T17:41:35Z</time>
      </trkpt>
      <trkpt lat="43.32206" lon="-1.59989">
        <ele>191</ele>
        <time>2026-06-28T17:41:37Z</time>
      </trkpt>
      <trkpt lat="43.32198" lon="-1.59994">
        <ele>192</ele>
        <time>2026-06-28T17:41:38Z</time>
      </trkpt>
      <trkpt lat="43.32189" lon="-1.59994">
        <ele>193</ele>
        <time>2026-06-28T17:41:40Z</time>
      </trkpt>
      <trkpt lat="43.32185" lon="-1.59991">
        <ele>192</ele>
        <time>2026-06-28T17:41:41Z</time>
      </trkpt>
      <trkpt lat="43.32182" lon="-1.59985">
        <ele>191</ele>
        <time>2026-06-28T17:41:42Z</time>
      </trkpt>
      <trkpt lat="43.3218" lon="-1.59979">
        <ele>191</ele>
        <time>2026-06-28T17:41:43Z</time>
      </trkpt>
      <trkpt lat="43.32186" lon="-1.5993">
        <ele>183</ele>
        <time>2026-06-28T17:41:49Z</time>
      </trkpt>
      <trkpt lat="43.32183" lon="-1.5988">
        <ele>178</ele>
        <time>2026-06-28T17:41:55Z</time>
      </trkpt>
      <trkpt lat="43.32178" lon="-1.59861">
        <ele>177</ele>
        <time>2026-06-28T17:41:58Z</time>
      </trkpt>
      <trkpt lat="43.32171" lon="-1.59844">
        <ele>177</ele>
        <time>2026-06-28T17:42:01Z</time>
      </trkpt>
      <trkpt lat="43.32161" lon="-1.59831">
        <ele>177</ele>
        <time>2026-06-28T17:42:03Z</time>
      </trkpt>
      <trkpt lat="43.3215" lon="-1.5982">
        <ele>175</ele>
        <time>2026-06-28T17:42:05Z</time>
      </trkpt>
      <trkpt lat="43.32143" lon="-1.59817">
        <ele>175</ele>
        <time>2026-06-28T17:42:07Z</time>
      </trkpt>
      <trkpt lat="43.32101" lon="-1.59802">
        <ele>175</ele>
        <time>2026-06-28T17:42:15Z</time>
      </trkpt>
      <trkpt lat="43.32073" lon="-1.59789">
        <ele>172</ele>
        <time>2026-06-28T17:42:20Z</time>
      </trkpt>
      <trkpt lat="43.32057" lon="-1.59785">
        <ele>169</ele>
        <time>2026-06-28T17:42:23Z</time>
      </trkpt>
      <trkpt lat="43.32051" lon="-1.59786">
        <ele>169</ele>
        <time>2026-06-28T17:42:24Z</time>
      </trkpt>
      <trkpt lat="43.32045" lon="-1.59792">
        <ele>169</ele>
        <time>2026-06-28T17:42:25Z</time>
      </trkpt>
      <trkpt lat="43.32032" lon="-1.59814">
        <ele>173</ele>
        <time>2026-06-28T17:42:29Z</time>
      </trkpt>
      <trkpt lat="43.32021" lon="-1.59826">
        <ele>174</ele>
        <time>2026-06-28T17:42:31Z</time>
      </trkpt>
      <trkpt lat="43.32001" lon="-1.59839">
        <ele>174</ele>
        <time>2026-06-28T17:42:35Z</time>
      </trkpt>
      <trkpt lat="43.31983" lon="-1.59854">
        <ele>178</ele>
        <time>2026-06-28T17:42:39Z</time>
      </trkpt>
      <trkpt lat="43.31977" lon="-1.59856">
        <ele>178</ele>
        <time>2026-06-28T17:42:40Z</time>
      </trkpt>
      <trkpt lat="43.3197" lon="-1.59856">
        <ele>178</ele>
        <time>2026-06-28T17:42:41Z</time>
      </trkpt>
      <trkpt lat="43.31958" lon="-1.59851">
        <ele>177</ele>
        <time>2026-06-28T17:42:43Z</time>
      </trkpt>
      <trkpt lat="43.31928" lon="-1.59829">
        <ele>171</ele>
        <time>2026-06-28T17:42:50Z</time>
      </trkpt>
      <trkpt lat="43.31921" lon="-1.59826">
        <ele>171</ele>
        <time>2026-06-28T17:42:51Z</time>
      </trkpt>
      <trkpt lat="43.31895" lon="-1.59823">
        <ele>172</ele>
        <time>2026-06-28T17:42:55Z</time>
      </trkpt>
      <trkpt lat="43.31888" lon="-1.59821">
        <ele>172</ele>
        <time>2026-06-28T17:42:57Z</time>
      </trkpt>
      <trkpt lat="43.31883" lon="-1.59817">
        <ele>172</ele>
        <time>2026-06-28T17:42:58Z</time>
      </trkpt>
      <trkpt lat="43.31869" lon="-1.59795">
        <ele>169</ele>
        <time>2026-06-28T17:43:02Z</time>
      </trkpt>
      <trkpt lat="43.31857" lon="-1.59783">
        <ele>167</ele>
        <time>2026-06-28T17:43:04Z</time>
      </trkpt>
      <trkpt lat="43.31828" lon="-1.59767">
        <ele>167</ele>
        <time>2026-06-28T17:43:10Z</time>
      </trkpt>
      <trkpt lat="43.31821" lon="-1.59761">
        <ele>168</ele>
        <time>2026-06-28T17:43:11Z</time>
      </trkpt>
      <trkpt lat="43.318" lon="-1.59737">
        <ele>167</ele>
        <time>2026-06-28T17:43:16Z</time>
      </trkpt>
      <trkpt lat="43.31792" lon="-1.59731">
        <ele>167</ele>
        <time>2026-06-28T17:43:18Z</time>
      </trkpt>
      <trkpt lat="43.31783" lon="-1.59727">
        <ele>167</ele>
        <time>2026-06-28T17:43:19Z</time>
      </trkpt>
      <trkpt lat="43.31767" lon="-1.59724">
        <ele>169</ele>
        <time>2026-06-28T17:43:22Z</time>
      </trkpt>
      <trkpt lat="43.31759" lon="-1.5972">
        <ele>170</ele>
        <time>2026-06-28T17:43:24Z</time>
      </trkpt>
      <trkpt lat="43.31754" lon="-1.59712">
        <ele>169</ele>
        <time>2026-06-28T17:43:25Z</time>
      </trkpt>
      <trkpt lat="43.31744" lon="-1.59695">
        <ele>168</ele>
        <time>2026-06-28T17:43:28Z</time>
      </trkpt>
      <trkpt lat="43.31727" lon="-1.59675">
        <ele>170</ele>
        <time>2026-06-28T17:43:32Z</time>
      </trkpt>
      <trkpt lat="43.31725" lon="-1.59666">
        <ele>169</ele>
        <time>2026-06-28T17:43:33Z</time>
      </trkpt>
      <trkpt lat="43.31725" lon="-1.59657">
        <ele>168</ele>
        <time>2026-06-28T17:43:34Z</time>
      </trkpt>
      <trkpt lat="43.31738" lon="-1.59622">
        <ele>159</ele>
        <time>2026-06-28T17:43:39Z</time>
      </trkpt>
      <trkpt lat="43.3174" lon="-1.59601">
        <ele>157</ele>
        <time>2026-06-28T17:43:42Z</time>
      </trkpt>
      <trkpt lat="43.31735" lon="-1.5958">
        <ele>156</ele>
        <time>2026-06-28T17:43:45Z</time>
      </trkpt>
      <trkpt lat="43.31726" lon="-1.59563">
        <ele>156</ele>
        <time>2026-06-28T17:43:48Z</time>
      </trkpt>
      <trkpt lat="43.31708" lon="-1.59538">
        <ele>156</ele>
        <time>2026-06-28T17:43:52Z</time>
      </trkpt>
      <trkpt lat="43.31701" lon="-1.59531">
        <ele>156</ele>
        <time>2026-06-28T17:43:54Z</time>
      </trkpt>
      <trkpt lat="43.31686" lon="-1.59519">
        <ele>157</ele>
        <time>2026-06-28T17:43:57Z</time>
      </trkpt>
      <trkpt lat="43.31656" lon="-1.59491">
        <ele>157</ele>
        <time>2026-06-28T17:44:03Z</time>
      </trkpt>
      <trkpt lat="43.3163" lon="-1.59476">
        <ele>157</ele>
        <time>2026-06-28T17:44:08Z</time>
      </trkpt>
      <trkpt lat="43.31623" lon="-1.5947">
        <ele>157</ele>
        <time>2026-06-28T17:44:10Z</time>
      </trkpt>
      <trkpt lat="43.31617" lon="-1.59462">
        <ele>156</ele>
        <time>2026-06-28T17:44:11Z</time>
      </trkpt>
      <trkpt lat="43.31602" lon="-1.59434">
        <ele>152</ele>
        <time>2026-06-28T17:44:16Z</time>
      </trkpt>
      <trkpt lat="43.31595" lon="-1.59426">
        <ele>151</ele>
        <time>2026-06-28T17:44:17Z</time>
      </trkpt>
      <trkpt lat="43.31587" lon="-1.59421">
        <ele>151</ele>
        <time>2026-06-28T17:44:19Z</time>
      </trkpt>
      <trkpt lat="43.31562" lon="-1.59413">
        <ele>155</ele>
        <time>2026-06-28T17:44:24Z</time>
      </trkpt>
      <trkpt lat="43.31555" lon="-1.59407">
        <ele>156</ele>
        <time>2026-06-28T17:44:25Z</time>
      </trkpt>
      <trkpt lat="43.31539" lon="-1.59374">
        <ele>155</ele>
        <time>2026-06-28T17:44:30Z</time>
      </trkpt>
      <trkpt lat="43.31522" lon="-1.59355">
        <ele>157</ele>
        <time>2026-06-28T17:44:34Z</time>
      </trkpt>
      <trkpt lat="43.31518" lon="-1.59347">
        <ele>157</ele>
        <time>2026-06-28T17:44:35Z</time>
      </trkpt>
      <trkpt lat="43.31516" lon="-1.59339">
        <ele>156</ele>
        <time>2026-06-28T17:44:36Z</time>
      </trkpt>
      <trkpt lat="43.31517" lon="-1.59332">
        <ele>156</ele>
        <time>2026-06-28T17:44:37Z</time>
      </trkpt>
      <trkpt lat="43.31523" lon="-1.59318">
        <ele>154</ele>
        <time>2026-06-28T17:44:39Z</time>
      </trkpt>
      <trkpt lat="43.31538" lon="-1.59297">
        <ele>150</ele>
        <time>2026-06-28T17:44:43Z</time>
      </trkpt>
      <trkpt lat="43.31546" lon="-1.59279">
        <ele>147</ele>
        <time>2026-06-28T17:44:46Z</time>
      </trkpt>
      <trkpt lat="43.31563" lon="-1.59229">
        <ele>141</ele>
        <time>2026-06-28T17:44:53Z</time>
      </trkpt>
      <trkpt lat="43.31583" lon="-1.5918">
        <ele>136</ele>
        <time>2026-06-28T17:45:00Z</time>
      </trkpt>
      <trkpt lat="43.31589" lon="-1.59158">
        <ele>136</ele>
        <time>2026-06-28T17:45:03Z</time>
      </trkpt>
      <trkpt lat="43.31593" lon="-1.59135">
        <ele>137</ele>
        <time>2026-06-28T17:45:07Z</time>
      </trkpt>
      <trkpt lat="43.31596" lon="-1.59125">
        <ele>137</ele>
        <time>2026-06-28T17:45:08Z</time>
      </trkpt>
      <trkpt lat="43.31601" lon="-1.59116">
        <ele>137</ele>
        <time>2026-06-28T17:45:09Z</time>
      </trkpt>
      <trkpt lat="43.31607" lon="-1.59109">
        <ele>137</ele>
        <time>2026-06-28T17:45:11Z</time>
      </trkpt>
      <trkpt lat="43.31615" lon="-1.59105">
        <ele>136</ele>
        <time>2026-06-28T17:45:12Z</time>
      </trkpt>
      <trkpt lat="43.31639" lon="-1.59099">
        <ele>133</ele>
        <time>2026-06-28T17:45:17Z</time>
      </trkpt>
      <trkpt lat="43.31654" lon="-1.59092">
        <ele>131</ele>
        <time>2026-06-28T17:45:19Z</time>
      </trkpt>
      <trkpt lat="43.31668" lon="-1.59079">
        <ele>131</ele>
        <time>2026-06-28T17:45:22Z</time>
      </trkpt>
      <trkpt lat="43.31692" lon="-1.59046">
        <ele>132</ele>
        <time>2026-06-28T17:45:29Z</time>
      </trkpt>
      <trkpt lat="43.31705" lon="-1.59036">
        <ele>132</ele>
        <time>2026-06-28T17:45:31Z</time>
      </trkpt>
      <trkpt lat="43.31713" lon="-1.59033">
        <ele>131</ele>
        <time>2026-06-28T17:45:33Z</time>
      </trkpt>
      <trkpt lat="43.31728" lon="-1.59031">
        <ele>130</ele>
        <time>2026-06-28T17:45:35Z</time>
      </trkpt>
      <trkpt lat="43.31765" lon="-1.59036">
        <ele>125</ele>
        <time>2026-06-28T17:45:42Z</time>
      </trkpt>
      <trkpt lat="43.31772" lon="-1.59035">
        <ele>125</ele>
        <time>2026-06-28T17:45:43Z</time>
      </trkpt>
      <trkpt lat="43.31779" lon="-1.5903">
        <ele>125</ele>
        <time>2026-06-28T17:45:45Z</time>
      </trkpt>
      <trkpt lat="43.3179" lon="-1.59016">
        <ele>127</ele>
        <time>2026-06-28T17:45:47Z</time>
      </trkpt>
      <trkpt lat="43.31806" lon="-1.58992">
        <ele>129</ele>
        <time>2026-06-28T17:45:51Z</time>
      </trkpt>
      <trkpt lat="43.31811" lon="-1.58973">
        <ele>128</ele>
        <time>2026-06-28T17:45:54Z</time>
      </trkpt>
      <trkpt lat="43.31811" lon="-1.58963">
        <ele>128</ele>
        <time>2026-06-28T17:45:55Z</time>
      </trkpt>
      <trkpt lat="43.31808" lon="-1.58953">
        <ele>128</ele>
        <time>2026-06-28T17:45:57Z</time>
      </trkpt>
      <trkpt lat="43.31804" lon="-1.58945">
        <ele>128</ele>
        <time>2026-06-28T17:45:58Z</time>
      </trkpt>
      <trkpt lat="43.31798" lon="-1.5894">
        <ele>128</ele>
        <time>2026-06-28T17:45:59Z</time>
      </trkpt>
      <trkpt lat="43.31791" lon="-1.58937">
        <ele>128</ele>
        <time>2026-06-28T17:46:01Z</time>
      </trkpt>
      <trkpt lat="43.31766" lon="-1.58934">
        <ele>128</ele>
        <time>2026-06-28T17:46:05Z</time>
      </trkpt>
      <trkpt lat="43.31757" lon="-1.58931">
        <ele>128</ele>
        <time>2026-06-28T17:46:07Z</time>
      </trkpt>
      <trkpt lat="43.31742" lon="-1.58918">
        <ele>128</ele>
        <time>2026-06-28T17:46:10Z</time>
      </trkpt>
      <trkpt lat="43.31711" lon="-1.58887">
        <ele>125</ele>
        <time>2026-06-28T17:46:17Z</time>
      </trkpt>
      <trkpt lat="43.31693" lon="-1.58877">
        <ele>124</ele>
        <time>2026-06-28T17:46:20Z</time>
      </trkpt>
      <trkpt lat="43.31655" lon="-1.58877">
        <ele>124</ele>
        <time>2026-06-28T17:46:27Z</time>
      </trkpt>
      <trkpt lat="43.31646" lon="-1.58875">
        <ele>124</ele>
        <time>2026-06-28T17:46:29Z</time>
      </trkpt>
      <trkpt lat="43.31619" lon="-1.58863">
        <ele>121</ele>
        <time>2026-06-28T17:46:34Z</time>
      </trkpt>
      <trkpt lat="43.31599" lon="-1.5886">
        <ele>120</ele>
        <time>2026-06-28T17:46:37Z</time>
      </trkpt>
      <trkpt lat="43.31568" lon="-1.5886">
        <ele>118</ele>
        <time>2026-06-28T17:46:43Z</time>
      </trkpt>
      <trkpt lat="43.31536" lon="-1.58858">
        <ele>116</ele>
        <time>2026-06-28T17:46:48Z</time>
      </trkpt>
      <trkpt lat="43.31526" lon="-1.58858">
        <ele>115</ele>
        <time>2026-06-28T17:46:50Z</time>
      </trkpt>
      <trkpt lat="43.31501" lon="-1.58864">
        <ele>115</ele>
        <time>2026-06-28T17:46:55Z</time>
      </trkpt>
      <trkpt lat="43.31496" lon="-1.58862">
        <ele>114</ele>
        <time>2026-06-28T17:46:56Z</time>
      </trkpt>
      <trkpt lat="43.31491" lon="-1.58857">
        <ele>112</ele>
        <time>2026-06-28T17:46:57Z</time>
      </trkpt>
      <trkpt lat="43.31489" lon="-1.58851">
        <ele>110</ele>
        <time>2026-06-28T17:46:58Z</time>
      </trkpt>
      <trkpt lat="43.31491" lon="-1.58844">
        <ele>109</ele>
        <time>2026-06-28T17:46:59Z</time>
      </trkpt>
      <trkpt lat="43.31494" lon="-1.58839">
        <ele>108</ele>
        <time>2026-06-28T17:46:59Z</time>
      </trkpt>
      <trkpt lat="43.31499" lon="-1.58835">
        <ele>107</ele>
        <time>2026-06-28T17:47:00Z</time>
      </trkpt>
      <trkpt lat="43.31511" lon="-1.58833">
        <ele>108</ele>
        <time>2026-06-28T17:47:03Z</time>
      </trkpt>
      <trkpt lat="43.31531" lon="-1.58834">
        <ele>110</ele>
        <time>2026-06-28T17:47:06Z</time>
      </trkpt>
      <trkpt lat="43.31556" lon="-1.58832">
        <ele>111</ele>
        <time>2026-06-28T17:47:11Z</time>
      </trkpt>
      <trkpt lat="43.31573" lon="-1.58827">
        <ele>111</ele>
        <time>2026-06-28T17:47:14Z</time>
      </trkpt>
      <trkpt lat="43.31598" lon="-1.58814">
        <ele>109</ele>
        <time>2026-06-28T17:47:18Z</time>
      </trkpt>
      <trkpt lat="43.31616" lon="-1.58808">
        <ele>108</ele>
        <time>2026-06-28T17:47:22Z</time>
      </trkpt>
      <trkpt lat="43.3166" lon="-1.58801">
        <ele>107</ele>
        <time>2026-06-28T17:47:30Z</time>
      </trkpt>
      <trkpt lat="43.31674" lon="-1.588">
        <ele>108</ele>
        <time>2026-06-28T17:47:32Z</time>
      </trkpt>
      <trkpt lat="43.31693" lon="-1.58802">
        <ele>109</ele>
        <time>2026-06-28T17:47:35Z</time>
      </trkpt>
      <trkpt lat="43.31701" lon="-1.58801">
        <ele>109</ele>
        <time>2026-06-28T17:47:37Z</time>
      </trkpt>
      <trkpt lat="43.31705" lon="-1.58796">
        <ele>109</ele>
        <time>2026-06-28T17:47:38Z</time>
      </trkpt>
      <trkpt lat="43.31708" lon="-1.58787">
        <ele>107</ele>
        <time>2026-06-28T17:47:39Z</time>
      </trkpt>
      <trkpt lat="43.31705" lon="-1.58777">
        <ele>105</ele>
        <time>2026-06-28T17:47:41Z</time>
      </trkpt>
      <trkpt lat="43.31696" lon="-1.58765">
        <ele>102</ele>
        <time>2026-06-28T17:47:43Z</time>
      </trkpt>
      <trkpt lat="43.31666" lon="-1.5874">
        <ele>95</ele>
        <time>2026-06-28T17:47:49Z</time>
      </trkpt>
      <trkpt lat="43.31645" lon="-1.58717">
        <ele>92</ele>
        <time>2026-06-28T17:47:54Z</time>
      </trkpt>
      <trkpt lat="43.31638" lon="-1.58707">
        <ele>90</ele>
        <time>2026-06-28T17:47:56Z</time>
      </trkpt>
      <trkpt lat="43.31628" lon="-1.58685">
        <ele>87</ele>
        <time>2026-06-28T17:47:59Z</time>
      </trkpt>
      <trkpt lat="43.3162" lon="-1.58661">
        <ele>84</ele>
        <time>2026-06-28T17:48:02Z</time>
      </trkpt>
      <trkpt lat="43.31608" lon="-1.58609">
        <ele>79</ele>
        <time>2026-06-28T17:48:09Z</time>
      </trkpt>
      <trkpt lat="43.3158" lon="-1.58483">
        <ele>71</ele>
        <time>2026-06-28T17:48:26Z</time>
      </trkpt>
      <trkpt lat="43.31569" lon="-1.58447">
        <ele>70</ele>
        <time>2026-06-28T17:48:32Z</time>
      </trkpt>
      <trkpt lat="43.31554" lon="-1.58413">
        <ele>69</ele>
        <time>2026-06-28T17:48:37Z</time>
      </trkpt>
      <trkpt lat="43.31533" lon="-1.58383">
        <ele>67</ele>
        <time>2026-06-28T17:48:42Z</time>
      </trkpt>
      <trkpt lat="43.31497" lon="-1.58342">
        <ele>64</ele>
        <time>2026-06-28T17:48:50Z</time>
      </trkpt>
      <trkpt lat="43.31474" lon="-1.58319">
        <ele>62</ele>
        <time>2026-06-28T17:48:55Z</time>
      </trkpt>
      <trkpt lat="43.31458" lon="-1.58312">
        <ele>61</ele>
        <time>2026-06-28T17:48:58Z</time>
      </trkpt>
      <trkpt lat="43.31453" lon="-1.58308">
        <ele>61</ele>
        <time>2026-06-28T17:48:59Z</time>
      </trkpt>
      <trkpt lat="43.31451" lon="-1.58302">
        <ele>61</ele>
        <time>2026-06-28T17:49:00Z</time>
      </trkpt>
      <trkpt lat="43.3145" lon="-1.58286">
        <ele>61</ele>
        <time>2026-06-28T17:49:02Z</time>
      </trkpt>
      <trkpt lat="43.31456" lon="-1.58253">
        <ele>60</ele>
        <time>2026-06-28T17:49:07Z</time>
      </trkpt>
      <trkpt lat="43.31455" lon="-1.58206">
        <ele>59</ele>
        <time>2026-06-28T17:49:13Z</time>
      </trkpt>
      <trkpt lat="43.31458" lon="-1.58176">
        <ele>59</ele>
        <time>2026-06-28T17:49:17Z</time>
      </trkpt>
      <trkpt lat="43.31467" lon="-1.58148">
        <ele>58</ele>
        <time>2026-06-28T17:49:21Z</time>
      </trkpt>
      <trkpt lat="43.31492" lon="-1.58085">
        <ele>57</ele>
        <time>2026-06-28T17:49:30Z</time>
      </trkpt>
      <trkpt lat="43.31498" lon="-1.58066">
        <ele>57</ele>
        <time>2026-06-28T17:49:33Z</time>
      </trkpt>
      <trkpt lat="43.31501" lon="-1.58045">
        <ele>56</ele>
        <time>2026-06-28T17:49:36Z</time>
      </trkpt>
      <trkpt lat="43.31502" lon="-1.58015">
        <ele>55</ele>
        <time>2026-06-28T17:49:39Z</time>
      </trkpt>
      <trkpt lat="43.31496" lon="-1.57986">
        <ele>55</ele>
        <time>2026-06-28T17:49:43Z</time>
      </trkpt>
      <trkpt lat="43.31468" lon="-1.57881">
        <ele>60</ele>
        <time>2026-06-28T17:49:58Z</time>
      </trkpt>
      <trkpt lat="43.31451" lon="-1.5783">
        <ele>63</ele>
        <time>2026-06-28T17:50:05Z</time>
      </trkpt>
      <trkpt lat="43.31436" lon="-1.57764">
        <ele>60</ele>
        <time>2026-06-28T17:50:14Z</time>
      </trkpt>
      <trkpt lat="43.31375" lon="-1.57544">
        <ele>55</ele>
        <time>2026-06-28T17:50:44Z</time>
      </trkpt>
      <trkpt lat="43.31361" lon="-1.57513">
        <ele>54</ele>
        <time>2026-06-28T17:50:49Z</time>
      </trkpt>
      <trkpt lat="43.31353" lon="-1.57499">
        <ele>53</ele>
        <time>2026-06-28T17:50:52Z</time>
      </trkpt>
      <trkpt lat="43.31343" lon="-1.57488">
        <ele>53</ele>
        <time>2026-06-28T17:50:54Z</time>
      </trkpt>
      <trkpt lat="43.3131" lon="-1.57462">
        <ele>54</ele>
        <time>2026-06-28T17:51:01Z</time>
      </trkpt>
      <trkpt lat="43.31267" lon="-1.57434">
        <ele>52</ele>
        <time>2026-06-28T17:51:09Z</time>
      </trkpt>
      <trkpt lat="43.31241" lon="-1.57413">
        <ele>50</ele>
        <time>2026-06-28T17:51:14Z</time>
      </trkpt>
      <trkpt lat="43.31164" lon="-1.57344">
        <ele>50</ele>
        <time>2026-06-28T17:51:31Z</time>
      </trkpt>
      <trkpt lat="43.31106" lon="-1.57284">
        <ele>45</ele>
        <time>2026-06-28T17:51:44Z</time>
      </trkpt>
      <trkpt lat="43.31079" lon="-1.57261">
        <ele>44</ele>
        <time>2026-06-28T17:51:49Z</time>
      </trkpt>
      <trkpt lat="43.31064" lon="-1.57253">
        <ele>45</ele>
        <time>2026-06-28T17:51:52Z</time>
      </trkpt>
      <trkpt lat="43.31035" lon="-1.57243">
        <ele>46</ele>
        <time>2026-06-28T17:51:58Z</time>
      </trkpt>
      <trkpt lat="43.31007" lon="-1.57238">
        <ele>48</ele>
        <time>2026-06-28T17:52:03Z</time>
      </trkpt>
      <trkpt lat="43.30964" lon="-1.57236">
        <ele>47</ele>
        <time>2026-06-28T17:52:10Z</time>
      </trkpt>
      <trkpt lat="43.30959" lon="-1.57231">
        <ele>47</ele>
        <time>2026-06-28T17:52:11Z</time>
      </trkpt>
      <trkpt lat="43.30958" lon="-1.57221">
        <ele>47</ele>
        <time>2026-06-28T17:52:13Z</time>
      </trkpt>
      <trkpt lat="43.30972" lon="-1.57193">
        <ele>47</ele>
        <time>2026-06-28T17:52:17Z</time>
      </trkpt>
      <trkpt lat="43.30986" lon="-1.57148">
        <ele>48</ele>
        <time>2026-06-28T17:52:23Z</time>
      </trkpt>
      <trkpt lat="43.30988" lon="-1.57126">
        <ele>48</ele>
        <time>2026-06-28T17:52:26Z</time>
      </trkpt>
      <trkpt lat="43.30987" lon="-1.57102">
        <ele>49</ele>
        <time>2026-06-28T17:52:29Z</time>
      </trkpt>
      <trkpt lat="43.30984" lon="-1.57087">
        <ele>49</ele>
        <time>2026-06-28T17:52:31Z</time>
      </trkpt>
      <trkpt lat="43.30978" lon="-1.57072">
        <ele>49</ele>
        <time>2026-06-28T17:52:34Z</time>
      </trkpt>
      <trkpt lat="43.30952" lon="-1.57029">
        <ele>50</ele>
        <time>2026-06-28T17:52:41Z</time>
      </trkpt>
      <trkpt lat="43.30933" lon="-1.56985">
        <ele>50</ele>
        <time>2026-06-28T17:52:47Z</time>
      </trkpt>
      <trkpt lat="43.30921" lon="-1.56936">
        <ele>51</ele>
        <time>2026-06-28T17:52:54Z</time>
      </trkpt>
      <trkpt lat="43.30918" lon="-1.56905">
        <ele>51</ele>
        <time>2026-06-28T17:52:58Z</time>
      </trkpt>
      <trkpt lat="43.30919" lon="-1.56884">
        <ele>50</ele>
        <time>2026-06-28T17:53:01Z</time>
      </trkpt>
      <trkpt lat="43.30934" lon="-1.56811">
        <ele>49</ele>
        <time>2026-06-28T17:53:11Z</time>
      </trkpt>
      <trkpt lat="43.30944" lon="-1.56781">
        <ele>49</ele>
        <time>2026-06-28T17:53:15Z</time>
      </trkpt>
      <trkpt lat="43.30953" lon="-1.56761">
        <ele>49</ele>
        <time>2026-06-28T17:53:18Z</time>
      </trkpt>
      <trkpt lat="43.30981" lon="-1.56717">
        <ele>50</ele>
        <time>2026-06-28T17:53:26Z</time>
      </trkpt>
      <trkpt lat="43.31029" lon="-1.5663">
        <ele>48</ele>
        <time>2026-06-28T17:53:40Z</time>
      </trkpt>
      <trkpt lat="43.31046" lon="-1.56609">
        <ele>47</ele>
        <time>2026-06-28T17:53:44Z</time>
      </trkpt>
      <trkpt lat="43.31065" lon="-1.56593">
        <ele>47</ele>
        <time>2026-06-28T17:53:48Z</time>
      </trkpt>
      <trkpt lat="43.31099" lon="-1.56575">
        <ele>48</ele>
        <time>2026-06-28T17:53:54Z</time>
      </trkpt>
      <trkpt lat="43.31215" lon="-1.56506">
        <ele>47</ele>
        <time>2026-06-28T17:54:17Z</time>
      </trkpt>
      <trkpt lat="43.31236" lon="-1.56491">
        <ele>47</ele>
        <time>2026-06-28T17:54:21Z</time>
      </trkpt>
      <trkpt lat="43.31248" lon="-1.5648">
        <ele>46</ele>
        <time>2026-06-28T17:54:24Z</time>
      </trkpt>
      <trkpt lat="43.31264" lon="-1.56457">
        <ele>47</ele>
        <time>2026-06-28T17:54:28Z</time>
      </trkpt>
      <trkpt lat="43.31301" lon="-1.56392">
        <ele>46</ele>
        <time>2026-06-28T17:54:38Z</time>
      </trkpt>
      <trkpt lat="43.31317" lon="-1.5637">
        <ele>45</ele>
        <time>2026-06-28T17:54:42Z</time>
      </trkpt>
      <trkpt lat="43.31341" lon="-1.56347">
        <ele>43</ele>
        <time>2026-06-28T17:54:48Z</time>
      </trkpt>
      <trkpt lat="43.31391" lon="-1.56306">
        <ele>44</ele>
        <time>2026-06-28T17:54:58Z</time>
      </trkpt>
      <trkpt lat="43.31408" lon="-1.56288">
        <ele>44</ele>
        <time>2026-06-28T17:55:02Z</time>
      </trkpt>
      <trkpt lat="43.31422" lon="-1.56267">
        <ele>44</ele>
        <time>2026-06-28T17:55:05Z</time>
      </trkpt>
      <trkpt lat="43.31432" lon="-1.56244">
        <ele>44</ele>
        <time>2026-06-28T17:55:09Z</time>
      </trkpt>
      <trkpt lat="43.3144" lon="-1.5622">
        <ele>45</ele>
        <time>2026-06-28T17:55:12Z</time>
      </trkpt>
      <trkpt lat="43.31458" lon="-1.56137">
        <ele>46</ele>
        <time>2026-06-28T17:55:24Z</time>
      </trkpt>
      <trkpt lat="43.31467" lon="-1.56117">
        <ele>46</ele>
        <time>2026-06-28T17:55:27Z</time>
      </trkpt>
      <trkpt lat="43.31475" lon="-1.5611">
        <ele>47</ele>
        <time>2026-06-28T17:55:28Z</time>
      </trkpt>
      <trkpt lat="43.31483" lon="-1.56108">
        <ele>48</ele>
        <time>2026-06-28T17:55:30Z</time>
      </trkpt>
      <trkpt lat="43.31492" lon="-1.5611">
        <ele>49</ele>
        <time>2026-06-28T17:55:31Z</time>
      </trkpt>
      <trkpt lat="43.31512" lon="-1.56122">
        <ele>50</ele>
        <time>2026-06-28T17:55:35Z</time>
      </trkpt>
      <trkpt lat="43.31545" lon="-1.56146">
        <ele>52</ele>
        <time>2026-06-28T17:55:42Z</time>
      </trkpt>
      <trkpt lat="43.31558" lon="-1.56154">
        <ele>53</ele>
        <time>2026-06-28T17:55:44Z</time>
      </trkpt>
      <trkpt lat="43.31572" lon="-1.56157">
        <ele>53</ele>
        <time>2026-06-28T17:55:47Z</time>
      </trkpt>
      <trkpt lat="43.3159" lon="-1.56152">
        <ele>53</ele>
        <time>2026-06-28T17:55:50Z</time>
      </trkpt>
      <trkpt lat="43.31602" lon="-1.56144">
        <ele>54</ele>
        <time>2026-06-28T17:55:53Z</time>
      </trkpt>
      <trkpt lat="43.31632" lon="-1.56115">
        <ele>55</ele>
        <time>2026-06-28T17:55:59Z</time>
      </trkpt>
      <trkpt lat="43.31659" lon="-1.56083">
        <ele>57</ele>
        <time>2026-06-28T17:56:05Z</time>
      </trkpt>
      <trkpt lat="43.31731" lon="-1.56007">
        <ele>53</ele>
        <time>2026-06-28T17:56:22Z</time>
      </trkpt>
      <trkpt lat="43.31742" lon="-1.55994">
        <ele>53</ele>
        <time>2026-06-28T17:56:24Z</time>
      </trkpt>
      <trkpt lat="43.31754" lon="-1.55973">
        <ele>52</ele>
        <time>2026-06-28T17:56:28Z</time>
      </trkpt>
      <trkpt lat="43.31762" lon="-1.55932">
        <ele>50</ele>
        <time>2026-06-28T17:56:33Z</time>
      </trkpt>
      <trkpt lat="43.31769" lon="-1.55917">
        <ele>50</ele>
        <time>2026-06-28T17:56:35Z</time>
      </trkpt>
      <trkpt lat="43.31811" lon="-1.55856">
        <ele>48</ele>
        <time>2026-06-28T17:56:46Z</time>
      </trkpt>
      <trkpt lat="43.31837" lon="-1.55808">
        <ele>46</ele>
        <time>2026-06-28T17:56:54Z</time>
      </trkpt>
      <trkpt lat="43.31864" lon="-1.55763">
        <ele>46</ele>
        <time>2026-06-28T17:57:02Z</time>
      </trkpt>
      <trkpt lat="43.31919" lon="-1.55691">
        <ele>43</ele>
        <time>2026-06-28T17:57:15Z</time>
      </trkpt>
      <trkpt lat="43.31935" lon="-1.55663">
        <ele>41</ele>
        <time>2026-06-28T17:57:20Z</time>
      </trkpt>
      <trkpt lat="43.31947" lon="-1.55632">
        <ele>40</ele>
        <time>2026-06-28T17:57:24Z</time>
      </trkpt>
      <trkpt lat="43.31978" lon="-1.55497">
        <ele>36</ele>
        <time>2026-06-28T17:57:43Z</time>
      </trkpt>
      <trkpt lat="43.31991" lon="-1.55434">
        <ele>35</ele>
        <time>2026-06-28T17:57:51Z</time>
      </trkpt>
      <trkpt lat="43.31998" lon="-1.55414">
        <ele>35</ele>
        <time>2026-06-28T17:57:54Z</time>
      </trkpt>
      <trkpt lat="43.32002" lon="-1.55404">
        <ele>35</ele>
        <time>2026-06-28T17:57:55Z</time>
      </trkpt>
      <trkpt lat="43.32013" lon="-1.55388">
        <ele>35</ele>
        <time>2026-06-28T17:57:58Z</time>
      </trkpt>
      <trkpt lat="43.32047" lon="-1.5536">
        <ele>34</ele>
        <time>2026-06-28T17:58:05Z</time>
      </trkpt>
      <trkpt lat="43.3206" lon="-1.55347">
        <ele>34</ele>
        <time>2026-06-28T17:58:08Z</time>
      </trkpt>
      <trkpt lat="43.32075" lon="-1.55321">
        <ele>34</ele>
        <time>2026-06-28T17:58:12Z</time>
      </trkpt>
      <trkpt lat="43.32082" lon="-1.55301">
        <ele>33</ele>
        <time>2026-06-28T17:58:15Z</time>
      </trkpt>
      <trkpt lat="43.32097" lon="-1.55249">
        <ele>32</ele>
        <time>2026-06-28T17:58:23Z</time>
      </trkpt>
      <trkpt lat="43.32137" lon="-1.55077">
        <ele>32</ele>
        <time>2026-06-28T17:58:46Z</time>
      </trkpt>
      <trkpt lat="43.3214" lon="-1.55018">
        <ele>31</ele>
        <time>2026-06-28T17:58:54Z</time>
      </trkpt>
      <trkpt lat="43.32134" lon="-1.54961">
        <ele>30</ele>
        <time>2026-06-28T17:59:01Z</time>
      </trkpt>
      <trkpt lat="43.32129" lon="-1.54935">
        <ele>30</ele>
        <time>2026-06-28T17:59:05Z</time>
      </trkpt>
      <trkpt lat="43.32123" lon="-1.54917">
        <ele>30</ele>
        <time>2026-06-28T17:59:07Z</time>
      </trkpt>
      <trkpt lat="43.32114" lon="-1.54902">
        <ele>30</ele>
        <time>2026-06-28T17:59:10Z</time>
      </trkpt>
      <trkpt lat="43.31941" lon="-1.54688">
        <ele>40</ele>
        <time>2026-06-28T17:59:51Z</time>
      </trkpt>
      <trkpt lat="43.31917" lon="-1.54653">
        <ele>38</ele>
        <time>2026-06-28T17:59:57Z</time>
      </trkpt>
      <trkpt lat="43.31899" lon="-1.54619">
        <ele>39</ele>
        <time>2026-06-28T18:00:03Z</time>
      </trkpt>
      <trkpt lat="43.31886" lon="-1.54582">
        <ele>40</ele>
        <time>2026-06-28T18:00:08Z</time>
      </trkpt>
      <trkpt lat="43.31877" lon="-1.5454">
        <ele>40</ele>
        <time>2026-06-28T18:00:14Z</time>
      </trkpt>
      <trkpt lat="43.31874" lon="-1.54506">
        <ele>40</ele>
        <time>2026-06-28T18:00:18Z</time>
      </trkpt>
      <trkpt lat="43.31875" lon="-1.54447">
        <ele>41</ele>
        <time>2026-06-28T18:00:26Z</time>
      </trkpt>
      <trkpt lat="43.31883" lon="-1.54407">
        <ele>41</ele>
        <time>2026-06-28T18:00:31Z</time>
      </trkpt>
      <trkpt lat="43.31998" lon="-1.53995">
        <ele>38</ele>
        <time>2026-06-28T18:01:28Z</time>
      </trkpt>
      <trkpt lat="43.32008" lon="-1.53944">
        <ele>39</ele>
        <time>2026-06-28T18:01:35Z</time>
      </trkpt>
      <trkpt lat="43.3201" lon="-1.53925">
        <ele>39</ele>
        <time>2026-06-28T18:01:38Z</time>
      </trkpt>
      <trkpt lat="43.32009" lon="-1.53898">
        <ele>39</ele>
        <time>2026-06-28T18:01:41Z</time>
      </trkpt>
      <trkpt lat="43.32001" lon="-1.53737">
        <ele>41</ele>
        <time>2026-06-28T18:02:02Z</time>
      </trkpt>
      <trkpt lat="43.31995" lon="-1.53643">
        <ele>40</ele>
        <time>2026-06-28T18:02:14Z</time>
      </trkpt>
      <trkpt lat="43.31988" lon="-1.53602">
        <ele>39</ele>
        <time>2026-06-28T18:02:20Z</time>
      </trkpt>
      <trkpt lat="43.31976" lon="-1.53571">
        <ele>40</ele>
        <time>2026-06-28T18:02:24Z</time>
      </trkpt>
      <trkpt lat="43.31957" lon="-1.53537">
        <ele>40</ele>
        <time>2026-06-28T18:02:30Z</time>
      </trkpt>
      <trkpt lat="43.31816" lon="-1.53322">
        <ele>46</ele>
        <time>2026-06-28T18:03:07Z</time>
      </trkpt>
      <trkpt lat="43.31717" lon="-1.53174">
        <ele>47</ele>
        <time>2026-06-28T18:03:33Z</time>
      </trkpt>
      <trkpt lat="43.31685" lon="-1.53122">
        <ele>49</ele>
        <time>2026-06-28T18:03:42Z</time>
      </trkpt>
      <trkpt lat="43.31643" lon="-1.5306">
        <ele>52</ele>
        <time>2026-06-28T18:03:53Z</time>
      </trkpt>
      <trkpt lat="43.31629" lon="-1.53044">
        <ele>53</ele>
        <time>2026-06-28T18:03:56Z</time>
      </trkpt>
      <trkpt lat="43.31613" lon="-1.53031">
        <ele>55</ele>
        <time>2026-06-28T18:04:00Z</time>
      </trkpt>
      <trkpt lat="43.31592" lon="-1.53019">
        <ele>57</ele>
        <time>2026-06-28T18:04:04Z</time>
      </trkpt>
      <trkpt lat="43.31562" lon="-1.53009">
        <ele>59</ele>
        <time>2026-06-28T18:04:09Z</time>
      </trkpt>
      <trkpt lat="43.3153" lon="-1.53006">
        <ele>59</ele>
        <time>2026-06-28T18:04:15Z</time>
      </trkpt>
      <trkpt lat="43.31511" lon="-1.53008">
        <ele>58</ele>
        <time>2026-06-28T18:04:18Z</time>
      </trkpt>
      <trkpt lat="43.31499" lon="-1.53007">
        <ele>58</ele>
        <time>2026-06-28T18:04:20Z</time>
      </trkpt>
      <trkpt lat="43.3148" lon="-1.53008">
        <ele>58</ele>
        <time>2026-06-28T18:04:24Z</time>
      </trkpt>
      <trkpt lat="43.31456" lon="-1.53002">
        <ele>59</ele>
        <time>2026-06-28T18:04:28Z</time>
      </trkpt>
      <trkpt lat="43.31415" lon="-1.52987">
        <ele>60</ele>
        <time>2026-06-28T18:04:36Z</time>
      </trkpt>
      <trkpt lat="43.31397" lon="-1.52977">
        <ele>60</ele>
        <time>2026-06-28T18:04:39Z</time>
      </trkpt>
      <trkpt lat="43.31371" lon="-1.52958">
        <ele>59</ele>
        <time>2026-06-28T18:04:44Z</time>
      </trkpt>
      <trkpt lat="43.31354" lon="-1.52949">
        <ele>59</ele>
        <time>2026-06-28T18:04:48Z</time>
      </trkpt>
      <trkpt lat="43.3133" lon="-1.52942">
        <ele>57</ele>
        <time>2026-06-28T18:04:52Z</time>
      </trkpt>
      <trkpt lat="43.31307" lon="-1.52943">
        <ele>57</ele>
        <time>2026-06-28T18:04:56Z</time>
      </trkpt>
      <trkpt lat="43.31289" lon="-1.52949">
        <ele>56</ele>
        <time>2026-06-28T18:04:59Z</time>
      </trkpt>
      <trkpt lat="43.3127" lon="-1.52962">
        <ele>54</ele>
        <time>2026-06-28T18:05:03Z</time>
      </trkpt>
      <trkpt lat="43.31233" lon="-1.52994">
        <ele>51</ele>
        <time>2026-06-28T18:05:11Z</time>
      </trkpt>
      <trkpt lat="43.31214" lon="-1.53004">
        <ele>50</ele>
        <time>2026-06-28T18:05:14Z</time>
      </trkpt>
      <trkpt lat="43.31204" lon="-1.53007">
        <ele>49</ele>
        <time>2026-06-28T18:05:16Z</time>
      </trkpt>
      <trkpt lat="43.31194" lon="-1.5301">
        <ele>49</ele>
        <time>2026-06-28T18:05:18Z</time>
      </trkpt>
      <trkpt lat="43.31172" lon="-1.53009">
        <ele>49</ele>
        <time>2026-06-28T18:05:22Z</time>
      </trkpt>
      <trkpt lat="43.31141" lon="-1.53001">
        <ele>50</ele>
        <time>2026-06-28T18:05:28Z</time>
      </trkpt>
      <trkpt lat="43.31124" lon="-1.52992">
        <ele>50</ele>
        <time>2026-06-28T18:05:31Z</time>
      </trkpt>
      <trkpt lat="43.31092" lon="-1.52969">
        <ele>51</ele>
        <time>2026-06-28T18:05:37Z</time>
      </trkpt>
      <trkpt lat="43.31077" lon="-1.52963">
        <ele>51</ele>
        <time>2026-06-28T18:05:40Z</time>
      </trkpt>
      <trkpt lat="43.31038" lon="-1.52954">
        <ele>51</ele>
        <time>2026-06-28T18:05:47Z</time>
      </trkpt>
      <trkpt lat="43.31025" lon="-1.52948">
        <ele>51</ele>
        <time>2026-06-28T18:05:50Z</time>
      </trkpt>
      <trkpt lat="43.31011" lon="-1.52939">
        <ele>51</ele>
        <time>2026-06-28T18:05:52Z</time>
      </trkpt>
      <trkpt lat="43.30993" lon="-1.52921">
        <ele>52</ele>
        <time>2026-06-28T18:05:56Z</time>
      </trkpt>
      <trkpt lat="43.30983" lon="-1.52906">
        <ele>52</ele>
        <time>2026-06-28T18:05:59Z</time>
      </trkpt>
      <trkpt lat="43.30971" lon="-1.52882">
        <ele>53</ele>
        <time>2026-06-28T18:06:03Z</time>
      </trkpt>
      <trkpt lat="43.30955" lon="-1.52839">
        <ele>54</ele>
        <time>2026-06-28T18:06:09Z</time>
      </trkpt>
      <trkpt lat="43.30943" lon="-1.52817">
        <ele>56</ele>
        <time>2026-06-28T18:06:12Z</time>
      </trkpt>
      <trkpt lat="43.30934" lon="-1.52802">
        <ele>57</ele>
        <time>2026-06-28T18:06:15Z</time>
      </trkpt>
      <trkpt lat="43.30917" lon="-1.52783">
        <ele>58</ele>
        <time>2026-06-28T18:06:19Z</time>
      </trkpt>
      <trkpt lat="43.30898" lon="-1.52768">
        <ele>58</ele>
        <time>2026-06-28T18:06:23Z</time>
      </trkpt>
      <trkpt lat="43.30883" lon="-1.52759">
        <ele>57</ele>
        <time>2026-06-28T18:06:26Z</time>
      </trkpt>
      <trkpt lat="43.30869" lon="-1.52755">
        <ele>57</ele>
        <time>2026-06-28T18:06:28Z</time>
      </trkpt>
      <trkpt lat="43.30839" lon="-1.5275">
        <ele>55</ele>
        <time>2026-06-28T18:06:34Z</time>
      </trkpt>
      <trkpt lat="43.30818" lon="-1.52742">
        <ele>55</ele>
        <time>2026-06-28T18:06:37Z</time>
      </trkpt>
      <trkpt lat="43.30798" lon="-1.52731">
        <ele>55</ele>
        <time>2026-06-28T18:06:41Z</time>
      </trkpt>
      <trkpt lat="43.30762" lon="-1.52697">
        <ele>56</ele>
        <time>2026-06-28T18:06:49Z</time>
      </trkpt>
      <trkpt lat="43.30722" lon="-1.52655">
        <ele>57</ele>
        <time>2026-06-28T18:06:58Z</time>
      </trkpt>
      <trkpt lat="43.30691" lon="-1.52616">
        <ele>57</ele>
        <time>2026-06-28T18:07:06Z</time>
      </trkpt>
      <trkpt lat="43.30674" lon="-1.52598">
        <ele>55</ele>
        <time>2026-06-28T18:07:09Z</time>
      </trkpt>
      <trkpt lat="43.30664" lon="-1.52584">
        <ele>54</ele>
        <time>2026-06-28T18:07:12Z</time>
      </trkpt>
      <trkpt lat="43.30655" lon="-1.52568">
        <ele>55</ele>
        <time>2026-06-28T18:07:15Z</time>
      </trkpt>
      <trkpt lat="43.30643" lon="-1.52533">
        <ele>57</ele>
        <time>2026-06-28T18:07:20Z</time>
      </trkpt>
      <trkpt lat="43.30638" lon="-1.52503">
        <ele>59</ele>
        <time>2026-06-28T18:07:24Z</time>
      </trkpt>
      <trkpt lat="43.30625" lon="-1.52456">
        <ele>59</ele>
        <time>2026-06-28T18:07:30Z</time>
      </trkpt>
      <trkpt lat="43.30621" lon="-1.52427">
        <ele>59</ele>
        <time>2026-06-28T18:07:34Z</time>
      </trkpt>
      <trkpt lat="43.30623" lon="-1.52338">
        <ele>57</ele>
        <time>2026-06-28T18:07:45Z</time>
      </trkpt>
      <trkpt lat="43.30619" lon="-1.52241">
        <ele>60</ele>
        <time>2026-06-28T18:07:58Z</time>
      </trkpt>
      <trkpt lat="43.30619" lon="-1.52224">
        <ele>61</ele>
        <time>2026-06-28T18:08:00Z</time>
      </trkpt>
      <trkpt lat="43.30621" lon="-1.52208">
        <ele>61</ele>
        <time>2026-06-28T18:08:02Z</time>
      </trkpt>
      <trkpt lat="43.3063" lon="-1.52187">
        <ele>62</ele>
        <time>2026-06-28T18:08:05Z</time>
      </trkpt>
      <trkpt lat="43.30637" lon="-1.52175">
        <ele>62</ele>
        <time>2026-06-28T18:08:07Z</time>
      </trkpt>
      <trkpt lat="43.3065" lon="-1.5216">
        <ele>62</ele>
        <time>2026-06-28T18:08:10Z</time>
      </trkpt>
      <trkpt lat="43.30683" lon="-1.52126">
        <ele>62</ele>
        <time>2026-06-28T18:08:18Z</time>
      </trkpt>
      <trkpt lat="43.30696" lon="-1.52109">
        <ele>63</ele>
        <time>2026-06-28T18:08:21Z</time>
      </trkpt>
      <trkpt lat="43.3071" lon="-1.52078">
        <ele>63</ele>
        <time>2026-06-28T18:08:26Z</time>
      </trkpt>
      <trkpt lat="43.30715" lon="-1.52051">
        <ele>63</ele>
        <time>2026-06-28T18:08:29Z</time>
      </trkpt>
      <trkpt lat="43.30715" lon="-1.52018">
        <ele>64</ele>
        <time>2026-06-28T18:08:34Z</time>
      </trkpt>
      <trkpt lat="43.3071" lon="-1.51986">
        <ele>65</ele>
        <time>2026-06-28T18:08:38Z</time>
      </trkpt>
      <trkpt lat="43.30684" lon="-1.51885">
        <ele>67</ele>
        <time>2026-06-28T18:08:52Z</time>
      </trkpt>
      <trkpt lat="43.30677" lon="-1.51867">
        <ele>68</ele>
        <time>2026-06-28T18:08:54Z</time>
      </trkpt>
      <trkpt lat="43.30668" lon="-1.51851">
        <ele>68</ele>
        <time>2026-06-28T18:08:57Z</time>
      </trkpt>
      <trkpt lat="43.30653" lon="-1.51832">
        <ele>69</ele>
        <time>2026-06-28T18:09:01Z</time>
      </trkpt>
      <trkpt lat="43.30604" lon="-1.51777">
        <ele>71</ele>
        <time>2026-06-28T18:09:12Z</time>
      </trkpt>
      <trkpt lat="43.30586" lon="-1.51749">
        <ele>71</ele>
        <time>2026-06-28T18:09:17Z</time>
      </trkpt>
      <trkpt lat="43.30567" lon="-1.5171">
        <ele>71</ele>
        <time>2026-06-28T18:09:23Z</time>
      </trkpt>
      <trkpt lat="43.30556" lon="-1.51691">
        <ele>71</ele>
        <time>2026-06-28T18:09:26Z</time>
      </trkpt>
      <trkpt lat="43.30536" lon="-1.51663">
        <ele>71</ele>
        <time>2026-06-28T18:09:31Z</time>
      </trkpt>
      <trkpt lat="43.30481" lon="-1.51598">
        <ele>72</ele>
        <time>2026-06-28T18:09:44Z</time>
      </trkpt>
      <trkpt lat="43.30354" lon="-1.51457">
        <ele>74</ele>
        <time>2026-06-28T18:10:13Z</time>
      </trkpt>
      <trkpt lat="43.30252" lon="-1.51355">
        <ele>70</ele>
        <time>2026-06-28T18:10:35Z</time>
      </trkpt>
      <trkpt lat="43.3021" lon="-1.51314">
        <ele>67</ele>
        <time>2026-06-28T18:10:45Z</time>
      </trkpt>
      <trkpt lat="43.30189" lon="-1.51298">
        <ele>66</ele>
        <time>2026-06-28T18:10:49Z</time>
      </trkpt>
      <trkpt lat="43.30167" lon="-1.51289">
        <ele>66</ele>
        <time>2026-06-28T18:10:53Z</time>
      </trkpt>
      <trkpt lat="43.30144" lon="-1.51285">
        <ele>67</ele>
        <time>2026-06-28T18:10:57Z</time>
      </trkpt>
      <trkpt lat="43.301" lon="-1.51283">
        <ele>69</ele>
        <time>2026-06-28T18:11:05Z</time>
      </trkpt>
      <trkpt lat="43.30087" lon="-1.5128">
        <ele>69</ele>
        <time>2026-06-28T18:11:07Z</time>
      </trkpt>
      <trkpt lat="43.30081" lon="-1.51277">
        <ele>69</ele>
        <time>2026-06-28T18:11:08Z</time>
      </trkpt>
      <trkpt lat="43.3007" lon="-1.51267">
        <ele>69</ele>
        <time>2026-06-28T18:11:11Z</time>
      </trkpt>
      <trkpt lat="43.30052" lon="-1.51247">
        <ele>68</ele>
        <time>2026-06-28T18:11:15Z</time>
      </trkpt>
      <trkpt lat="43.30045" lon="-1.51242">
        <ele>68</ele>
        <time>2026-06-28T18:11:16Z</time>
      </trkpt>
      <trkpt lat="43.30038" lon="-1.51238">
        <ele>69</ele>
        <time>2026-06-28T18:11:18Z</time>
      </trkpt>
      <trkpt lat="43.3003" lon="-1.51238">
        <ele>69</ele>
        <time>2026-06-28T18:11:19Z</time>
      </trkpt>
      <trkpt lat="43.30022" lon="-1.5124">
        <ele>70</ele>
        <time>2026-06-28T18:11:20Z</time>
      </trkpt>
      <trkpt lat="43.30001" lon="-1.51254">
        <ele>72</ele>
        <time>2026-06-28T18:11:25Z</time>
      </trkpt>
      <trkpt lat="43.29994" lon="-1.51257">
        <ele>73</ele>
        <time>2026-06-28T18:11:26Z</time>
      </trkpt>
      <trkpt lat="43.29987" lon="-1.51258">
        <ele>74</ele>
        <time>2026-06-28T18:11:27Z</time>
      </trkpt>
      <trkpt lat="43.29981" lon="-1.51256">
        <ele>75</ele>
        <time>2026-06-28T18:11:28Z</time>
      </trkpt>
      <trkpt lat="43.29976" lon="-1.51251">
        <ele>76</ele>
        <time>2026-06-28T18:11:29Z</time>
      </trkpt>
      <trkpt lat="43.29973" lon="-1.51245">
        <ele>76</ele>
        <time>2026-06-28T18:11:30Z</time>
      </trkpt>
      <trkpt lat="43.29971" lon="-1.51237">
        <ele>76</ele>
        <time>2026-06-28T18:11:31Z</time>
      </trkpt>
      <trkpt lat="43.29972" lon="-1.51229">
        <ele>76</ele>
        <time>2026-06-28T18:11:32Z</time>
      </trkpt>
      <trkpt lat="43.2998" lon="-1.51208">
        <ele>75</ele>
        <time>2026-06-28T18:11:35Z</time>
      </trkpt>
      <trkpt lat="43.3" lon="-1.5117">
        <ele>71</ele>
        <time>2026-06-28T18:11:42Z</time>
      </trkpt>
      <trkpt lat="43.30009" lon="-1.51148">
        <ele>69</ele>
        <time>2026-06-28T18:11:45Z</time>
      </trkpt>
      <trkpt lat="43.30013" lon="-1.51131">
        <ele>68</ele>
        <time>2026-06-28T18:11:47Z</time>
      </trkpt>
      <trkpt lat="43.30013" lon="-1.51122">
        <ele>67</ele>
        <time>2026-06-28T18:11:48Z</time>
      </trkpt>
      <trkpt lat="43.30011" lon="-1.51104">
        <ele>67</ele>
        <time>2026-06-28T18:11:51Z</time>
      </trkpt>
      <trkpt lat="43.30006" lon="-1.5109">
        <ele>66</ele>
        <time>2026-06-28T18:11:53Z</time>
      </trkpt>
      <trkpt lat="43.29995" lon="-1.51068">
        <ele>67</ele>
        <time>2026-06-28T18:11:56Z</time>
      </trkpt>
      <trkpt lat="43.29907" lon="-1.50923">
        <ele>69</ele>
        <time>2026-06-28T18:12:21Z</time>
      </trkpt>
      <trkpt lat="43.29895" lon="-1.50905">
        <ele>70</ele>
        <time>2026-06-28T18:12:24Z</time>
      </trkpt>
      <trkpt lat="43.29882" lon="-1.50891">
        <ele>71</ele>
        <time>2026-06-28T18:12:27Z</time>
      </trkpt>
      <trkpt lat="43.29849" lon="-1.5086">
        <ele>71</ele>
        <time>2026-06-28T18:12:34Z</time>
      </trkpt>
      <trkpt lat="43.29803" lon="-1.50812">
        <ele>72</ele>
        <time>2026-06-28T18:12:44Z</time>
      </trkpt>
      <trkpt lat="43.29749" lon="-1.50765">
        <ele>73</ele>
        <time>2026-06-28T18:12:55Z</time>
      </trkpt>
      <trkpt lat="43.29713" lon="-1.5074">
        <ele>73</ele>
        <time>2026-06-28T18:13:03Z</time>
      </trkpt>
      <trkpt lat="43.29664" lon="-1.50712">
        <ele>73</ele>
        <time>2026-06-28T18:13:12Z</time>
      </trkpt>
      <trkpt lat="43.29638" lon="-1.50694">
        <ele>73</ele>
        <time>2026-06-28T18:13:17Z</time>
      </trkpt>
      <trkpt lat="43.29624" lon="-1.50679">
        <ele>72</ele>
        <time>2026-06-28T18:13:20Z</time>
      </trkpt>
      <trkpt lat="43.29594" lon="-1.50635">
        <ele>72</ele>
        <time>2026-06-28T18:13:28Z</time>
      </trkpt>
      <trkpt lat="43.29583" lon="-1.50624">
        <ele>71</ele>
        <time>2026-06-28T18:13:31Z</time>
      </trkpt>
      <trkpt lat="43.29572" lon="-1.50615">
        <ele>71</ele>
        <time>2026-06-28T18:13:33Z</time>
      </trkpt>
      <trkpt lat="43.29558" lon="-1.50609">
        <ele>71</ele>
        <time>2026-06-28T18:13:36Z</time>
      </trkpt>
      <trkpt lat="43.29551" lon="-1.50608">
        <ele>71</ele>
        <time>2026-06-28T18:13:37Z</time>
      </trkpt>
      <trkpt lat="43.29529" lon="-1.50614">
        <ele>72</ele>
        <time>2026-06-28T18:13:41Z</time>
      </trkpt>
      <trkpt lat="43.29477" lon="-1.50635">
        <ele>73</ele>
        <time>2026-06-28T18:13:50Z</time>
      </trkpt>
      <trkpt lat="43.29463" lon="-1.50638">
        <ele>73</ele>
        <time>2026-06-28T18:13:53Z</time>
      </trkpt>
      <trkpt lat="43.29427" lon="-1.50633">
        <ele>72</ele>
        <time>2026-06-28T18:13:59Z</time>
      </trkpt>
      <trkpt lat="43.2942" lon="-1.50632">
        <ele>71</ele>
        <time>2026-06-28T18:14:01Z</time>
      </trkpt>
      <trkpt lat="43.29415" lon="-1.50628">
        <ele>71</ele>
        <time>2026-06-28T18:14:02Z</time>
      </trkpt>
      <trkpt lat="43.2941" lon="-1.50622">
        <ele>70</ele>
        <time>2026-06-28T18:14:03Z</time>
      </trkpt>
      <trkpt lat="43.29403" lon="-1.50599">
        <ele>68</ele>
        <time>2026-06-28T18:14:06Z</time>
      </trkpt>
      <trkpt lat="43.29396" lon="-1.50586">
        <ele>67</ele>
        <time>2026-06-28T18:14:08Z</time>
      </trkpt>
      <trkpt lat="43.29343" lon="-1.50527">
        <ele>70</ele>
        <time>2026-06-28T18:14:20Z</time>
      </trkpt>
      <trkpt lat="43.29338" lon="-1.5052">
        <ele>71</ele>
        <time>2026-06-28T18:14:22Z</time>
      </trkpt>
      <trkpt lat="43.29335" lon="-1.50512">
        <ele>71</ele>
        <time>2026-06-28T18:14:23Z</time>
      </trkpt>
      <trkpt lat="43.29335" lon="-1.50503">
        <ele>72</ele>
        <time>2026-06-28T18:14:24Z</time>
      </trkpt>
      <trkpt lat="43.29345" lon="-1.50475">
        <ele>73</ele>
        <time>2026-06-28T18:14:28Z</time>
      </trkpt>
      <trkpt lat="43.29349" lon="-1.50455">
        <ele>74</ele>
        <time>2026-06-28T18:14:31Z</time>
      </trkpt>
      <trkpt lat="43.29351" lon="-1.50437">
        <ele>75</ele>
        <time>2026-06-28T18:14:33Z</time>
      </trkpt>
      <trkpt lat="43.29348" lon="-1.5038">
        <ele>76</ele>
        <time>2026-06-28T18:14:40Z</time>
      </trkpt>
      <trkpt lat="43.29342" lon="-1.50326">
        <ele>77</ele>
        <time>2026-06-28T18:14:47Z</time>
      </trkpt>
      <trkpt lat="43.29344" lon="-1.50309">
        <ele>78</ele>
        <time>2026-06-28T18:14:50Z</time>
      </trkpt>
      <trkpt lat="43.29355" lon="-1.50244">
        <ele>82</ele>
        <time>2026-06-28T18:14:58Z</time>
      </trkpt>
      <trkpt lat="43.29375" lon="-1.50144">
        <ele>85</ele>
        <time>2026-06-28T18:15:12Z</time>
      </trkpt>
      <trkpt lat="43.29387" lon="-1.5011">
        <ele>87</ele>
        <time>2026-06-28T18:15:17Z</time>
      </trkpt>
      <trkpt lat="43.29413" lon="-1.50054">
        <ele>88</ele>
        <time>2026-06-28T18:15:25Z</time>
      </trkpt>
      <trkpt lat="43.29418" lon="-1.50037">
        <ele>88</ele>
        <time>2026-06-28T18:15:28Z</time>
      </trkpt>
      <trkpt lat="43.29422" lon="-1.50011">
        <ele>88</ele>
        <time>2026-06-28T18:15:31Z</time>
      </trkpt>
      <trkpt lat="43.29422" lon="-1.49973">
        <ele>89</ele>
        <time>2026-06-28T18:15:36Z</time>
      </trkpt>
      <trkpt lat="43.29412" lon="-1.49853">
        <ele>98</ele>
        <time>2026-06-28T18:15:52Z</time>
      </trkpt>
      <trkpt lat="43.29401" lon="-1.49768">
        <ele>102</ele>
        <time>2026-06-28T18:16:03Z</time>
      </trkpt>
      <trkpt lat="43.29403" lon="-1.49729">
        <ele>102</ele>
        <time>2026-06-28T18:16:08Z</time>
      </trkpt>
      <trkpt lat="43.29411" lon="-1.49693">
        <ele>100</ele>
        <time>2026-06-28T18:16:13Z</time>
      </trkpt>
      <trkpt lat="43.29417" lon="-1.49677">
        <ele>99</ele>
        <time>2026-06-28T18:16:15Z</time>
      </trkpt>
      <trkpt lat="43.29429" lon="-1.49654">
        <ele>100</ele>
        <time>2026-06-28T18:16:19Z</time>
      </trkpt>
      <trkpt lat="43.29444" lon="-1.49634">
        <ele>102</ele>
        <time>2026-06-28T18:16:22Z</time>
      </trkpt>
      <trkpt lat="43.2946" lon="-1.49617">
        <ele>104</ele>
        <time>2026-06-28T18:16:26Z</time>
      </trkpt>
      <trkpt lat="43.29477" lon="-1.49602">
        <ele>106</ele>
        <time>2026-06-28T18:16:30Z</time>
      </trkpt>
      <trkpt lat="43.29495" lon="-1.4959">
        <ele>109</ele>
        <time>2026-06-28T18:16:33Z</time>
      </trkpt>
      <trkpt lat="43.29514" lon="-1.49581">
        <ele>110</ele>
        <time>2026-06-28T18:16:37Z</time>
      </trkpt>
      <trkpt lat="43.29545" lon="-1.49562">
        <ele>112</ele>
        <time>2026-06-28T18:16:43Z</time>
      </trkpt>
      <trkpt lat="43.29563" lon="-1.49546">
        <ele>113</ele>
        <time>2026-06-28T18:16:47Z</time>
      </trkpt>
      <trkpt lat="43.29573" lon="-1.49532">
        <ele>113</ele>
        <time>2026-06-28T18:16:49Z</time>
      </trkpt>
      <trkpt lat="43.29581" lon="-1.49515">
        <ele>113</ele>
        <time>2026-06-28T18:16:52Z</time>
      </trkpt>
      <trkpt lat="43.29609" lon="-1.49437">
        <ele>112</ele>
        <time>2026-06-28T18:17:03Z</time>
      </trkpt>
      <trkpt lat="43.29628" lon="-1.49405">
        <ele>113</ele>
        <time>2026-06-28T18:17:08Z</time>
      </trkpt>
      <trkpt lat="43.29643" lon="-1.49383">
        <ele>115</ele>
        <time>2026-06-28T18:17:12Z</time>
      </trkpt>
      <trkpt lat="43.29677" lon="-1.49344">
        <ele>117</ele>
        <time>2026-06-28T18:17:20Z</time>
      </trkpt>
      <trkpt lat="43.29706" lon="-1.49316">
        <ele>120</ele>
        <time>2026-06-28T18:17:26Z</time>
      </trkpt>
      <trkpt lat="43.29726" lon="-1.49303">
        <ele>122</ele>
        <time>2026-06-28T18:17:30Z</time>
      </trkpt>
      <trkpt lat="43.29747" lon="-1.49294">
        <ele>124</ele>
        <time>2026-06-28T18:17:34Z</time>
      </trkpt>
      <trkpt lat="43.29767" lon="-1.49289">
        <ele>125</ele>
        <time>2026-06-28T18:17:38Z</time>
      </trkpt>
      <trkpt lat="43.29786" lon="-1.4929">
        <ele>126</ele>
        <time>2026-06-28T18:17:41Z</time>
      </trkpt>
      <trkpt lat="43.29803" lon="-1.49296">
        <ele>128</ele>
        <time>2026-06-28T18:17:44Z</time>
      </trkpt>
      <trkpt lat="43.29835" lon="-1.49312">
        <ele>130</ele>
        <time>2026-06-28T18:17:51Z</time>
      </trkpt>
      <trkpt lat="43.29861" lon="-1.49332">
        <ele>134</ele>
        <time>2026-06-28T18:17:56Z</time>
      </trkpt>
      <trkpt lat="43.29867" lon="-1.49333">
        <ele>135</ele>
        <time>2026-06-28T18:17:57Z</time>
      </trkpt>
      <trkpt lat="43.29863" lon="-1.49328">
        <ele>134</ele>
        <time>2026-06-28T18:17:58Z</time>
      </trkpt>
      <trkpt lat="43.29864" lon="-1.49337">
        <ele>134</ele>
        <time>2026-06-28T18:17:59Z</time>
      </trkpt>
      <trkpt lat="43.29896" lon="-1.49374">
        <ele>136</ele>
        <time>2026-06-28T18:18:06Z</time>
      </trkpt>
      <trkpt lat="43.29916" lon="-1.49393">
        <ele>136</ele>
        <time>2026-06-28T18:18:11Z</time>
      </trkpt>
      <trkpt lat="43.29938" lon="-1.49409">
        <ele>135</ele>
        <time>2026-06-28T18:18:15Z</time>
      </trkpt>
      <trkpt lat="43.29958" lon="-1.49421">
        <ele>134</ele>
        <time>2026-06-28T18:18:19Z</time>
      </trkpt>
      <trkpt lat="43.2998" lon="-1.4943">
        <ele>132</ele>
        <time>2026-06-28T18:18:23Z</time>
      </trkpt>
      <trkpt lat="43.30003" lon="-1.49436">
        <ele>130</ele>
        <time>2026-06-28T18:18:27Z</time>
      </trkpt>
      <trkpt lat="43.30027" lon="-1.4944">
        <ele>128</ele>
        <time>2026-06-28T18:18:32Z</time>
      </trkpt>
      <trkpt lat="43.30061" lon="-1.49439">
        <ele>127</ele>
        <time>2026-06-28T18:18:38Z</time>
      </trkpt>
      <trkpt lat="43.30087" lon="-1.49433">
        <ele>127</ele>
        <time>2026-06-28T18:18:42Z</time>
      </trkpt>
      <trkpt lat="43.3012" lon="-1.49417">
        <ele>127</ele>
        <time>2026-06-28T18:18:49Z</time>
      </trkpt>
      <trkpt lat="43.30204" lon="-1.49363">
        <ele>130</ele>
        <time>2026-06-28T18:19:05Z</time>
      </trkpt>
      <trkpt lat="43.30226" lon="-1.49351">
        <ele>131</ele>
        <time>2026-06-28T18:19:09Z</time>
      </trkpt>
      <trkpt lat="43.3024" lon="-1.49346">
        <ele>131</ele>
        <time>2026-06-28T18:19:12Z</time>
      </trkpt>
      <trkpt lat="43.30248" lon="-1.49345">
        <ele>131</ele>
        <time>2026-06-28T18:19:13Z</time>
      </trkpt>
      <trkpt lat="43.30256" lon="-1.49347">
        <ele>131</ele>
        <time>2026-06-28T18:19:15Z</time>
      </trkpt>
      <trkpt lat="43.3027" lon="-1.49357">
        <ele>131</ele>
        <time>2026-06-28T18:19:18Z</time>
      </trkpt>
      <trkpt lat="43.30276" lon="-1.49364">
        <ele>131</ele>
        <time>2026-06-28T18:19:19Z</time>
      </trkpt>
      <trkpt lat="43.30284" lon="-1.49382">
        <ele>129</ele>
        <time>2026-06-28T18:19:22Z</time>
      </trkpt>
      <trkpt lat="43.30325" lon="-1.49534">
        <ele>124</ele>
        <time>2026-06-28T18:19:43Z</time>
      </trkpt>
      <trkpt lat="43.30332" lon="-1.49555">
        <ele>124</ele>
        <time>2026-06-28T18:19:46Z</time>
      </trkpt>
      <trkpt lat="43.30337" lon="-1.49565">
        <ele>124</ele>
        <time>2026-06-28T18:19:47Z</time>
      </trkpt>
      <trkpt lat="43.3035" lon="-1.49582">
        <ele>124</ele>
        <time>2026-06-28T18:19:50Z</time>
      </trkpt>
      <trkpt lat="43.30365" lon="-1.49596">
        <ele>124</ele>
        <time>2026-06-28T18:19:54Z</time>
      </trkpt>
      <trkpt lat="43.30398" lon="-1.49619">
        <ele>124</ele>
        <time>2026-06-28T18:20:00Z</time>
      </trkpt>
      <trkpt lat="43.30413" lon="-1.49634">
        <ele>124</ele>
        <time>2026-06-28T18:20:04Z</time>
      </trkpt>
      <trkpt lat="43.30426" lon="-1.49652">
        <ele>124</ele>
        <time>2026-06-28T18:20:07Z</time>
      </trkpt>
      <trkpt lat="43.30438" lon="-1.49681">
        <ele>123</ele>
        <time>2026-06-28T18:20:11Z</time>
      </trkpt>
      <trkpt lat="43.30462" lon="-1.4975">
        <ele>119</ele>
        <time>2026-06-28T18:20:21Z</time>
      </trkpt>
      <trkpt lat="43.30476" lon="-1.49799">
        <ele>119</ele>
        <time>2026-06-28T18:20:28Z</time>
      </trkpt>
      <trkpt lat="43.30484" lon="-1.49819">
        <ele>119</ele>
        <time>2026-06-28T18:20:31Z</time>
      </trkpt>
      <trkpt lat="43.3049" lon="-1.49823">
        <ele>119</ele>
        <time>2026-06-28T18:20:32Z</time>
      </trkpt>
      <trkpt lat="43.30496" lon="-1.49819">
        <ele>119</ele>
        <time>2026-06-28T18:20:33Z</time>
      </trkpt>
      <trkpt lat="43.30504" lon="-1.49804">
        <ele>119</ele>
        <time>2026-06-28T18:20:36Z</time>
      </trkpt>
      <trkpt lat="43.30519" lon="-1.49767">
        <ele>119</ele>
        <time>2026-06-28T18:20:41Z</time>
      </trkpt>
      <trkpt lat="43.30536" lon="-1.49744">
        <ele>119</ele>
        <time>2026-06-28T18:20:45Z</time>
      </trkpt>
      <trkpt lat="43.30542" lon="-1.49738">
        <ele>119</ele>
        <time>2026-06-28T18:20:47Z</time>
      </trkpt>
      <trkpt lat="43.30571" lon="-1.49729">
        <ele>120</ele>
        <time>2026-06-28T18:20:52Z</time>
      </trkpt>
      <trkpt lat="43.30618" lon="-1.49712">
        <ele>120</ele>
        <time>2026-06-28T18:21:01Z</time>
      </trkpt>
      <trkpt lat="43.30636" lon="-1.49709">
        <ele>119</ele>
        <time>2026-06-28T18:21:04Z</time>
      </trkpt>
      <trkpt lat="43.30656" lon="-1.49708">
        <ele>119</ele>
        <time>2026-06-28T18:21:07Z</time>
      </trkpt>
      <trkpt lat="43.30676" lon="-1.49704">
        <ele>118</ele>
        <time>2026-06-28T18:21:11Z</time>
      </trkpt>
      <trkpt lat="43.30682" lon="-1.49709">
        <ele>118</ele>
        <time>2026-06-28T18:21:12Z</time>
      </trkpt>
      <trkpt lat="43.30685" lon="-1.49717">
        <ele>117</ele>
        <time>2026-06-28T18:21:13Z</time>
      </trkpt>
      <trkpt lat="43.30687" lon="-1.49745">
        <ele>117</ele>
        <time>2026-06-28T18:21:17Z</time>
      </trkpt>
      <trkpt lat="43.30687" lon="-1.49806">
        <ele>120</ele>
        <time>2026-06-28T18:21:25Z</time>
      </trkpt>
      <trkpt lat="43.30682" lon="-1.49871">
        <ele>123</ele>
        <time>2026-06-28T18:21:33Z</time>
      </trkpt>
      <trkpt lat="43.30686" lon="-1.49877">
        <ele>123</ele>
        <time>2026-06-28T18:21:35Z</time>
      </trkpt>
      <trkpt lat="43.30696" lon="-1.49884">
        <ele>122</ele>
        <time>2026-06-28T18:21:37Z</time>
      </trkpt>
      <trkpt lat="43.30728" lon="-1.49896">
        <ele>118</ele>
        <time>2026-06-28T18:21:42Z</time>
      </trkpt>
      <trkpt lat="43.30805" lon="-1.49904">
        <ele>115</ele>
        <time>2026-06-28T18:21:56Z</time>
      </trkpt>
      <trkpt lat="43.30869" lon="-1.49904">
        <ele>114</ele>
        <time>2026-06-28T18:22:08Z</time>
      </trkpt>
      <trkpt lat="43.30903" lon="-1.49901">
        <ele>113</ele>
        <time>2026-06-28T18:22:14Z</time>
      </trkpt>
      <trkpt lat="43.30923" lon="-1.49902">
        <ele>112</ele>
        <time>2026-06-28T18:22:17Z</time>
      </trkpt>
      <trkpt lat="43.30946" lon="-1.49901">
        <ele>111</ele>
        <time>2026-06-28T18:22:21Z</time>
      </trkpt>
      <trkpt lat="43.30969" lon="-1.49898">
        <ele>110</ele>
        <time>2026-06-28T18:22:25Z</time>
      </trkpt>
      <trkpt lat="43.30967" lon="-1.49894">
        <ele>110</ele>
        <time>2026-06-28T18:22:26Z</time>
      </trkpt>
      <trkpt lat="43.30966" lon="-1.49899">
        <ele>110</ele>
        <time>2026-06-28T18:22:27Z</time>
      </trkpt>
      <trkpt lat="43.30982" lon="-1.49895">
        <ele>110</ele>
        <time>2026-06-28T18:22:30Z</time>
      </trkpt>
      <trkpt lat="43.30988" lon="-1.49897">
        <ele>110</ele>
        <time>2026-06-28T18:22:31Z</time>
      </trkpt>
      <trkpt lat="43.30985" lon="-1.49897">
        <ele>110</ele>
        <time>2026-06-28T18:22:31Z</time>
      </trkpt>
      <trkpt lat="43.30986" lon="-1.49892">
        <ele>109</ele>
        <time>2026-06-28T18:22:32Z</time>
      </trkpt>
      <trkpt lat="43.31001" lon="-1.4989">
        <ele>109</ele>
        <time>2026-06-28T18:22:35Z</time>
      </trkpt>
      <trkpt lat="43.31007" lon="-1.49894">
        <ele>108</ele>
        <time>2026-06-28T18:22:36Z</time>
      </trkpt>
      <trkpt lat="43.31009" lon="-1.49916">
        <ele>109</ele>
        <time>2026-06-28T18:22:39Z</time>
      </trkpt>
      <trkpt lat="43.31014" lon="-1.49932">
        <ele>108</ele>
        <time>2026-06-28T18:22:41Z</time>
      </trkpt>
      <trkpt lat="43.31043" lon="-1.50008">
        <ele>104</ele>
        <time>2026-06-28T18:22:52Z</time>
      </trkpt>
      <trkpt lat="43.31056" lon="-1.50036">
        <ele>103</ele>
        <time>2026-06-28T18:22:56Z</time>
      </trkpt>
      <trkpt lat="43.31069" lon="-1.50048">
        <ele>102</ele>
        <time>2026-06-28T18:22:59Z</time>
      </trkpt>
      <trkpt lat="43.31076" lon="-1.50052">
        <ele>101</ele>
        <time>2026-06-28T18:23:00Z</time>
      </trkpt>
      <trkpt lat="43.31083" lon="-1.50054">
        <ele>101</ele>
        <time>2026-06-28T18:23:02Z</time>
      </trkpt>
      <trkpt lat="43.31104" lon="-1.50053">
        <ele>99</ele>
        <time>2026-06-28T18:23:05Z</time>
      </trkpt>
      <trkpt lat="43.31115" lon="-1.5005">
        <ele>98</ele>
        <time>2026-06-28T18:23:07Z</time>
      </trkpt>
      <trkpt lat="43.31119" lon="-1.50047">
        <ele>98</ele>
        <time>2026-06-28T18:23:08Z</time>
      </trkpt>
      <trkpt lat="43.31125" lon="-1.50039">
        <ele>97</ele>
        <time>2026-06-28T18:23:10Z</time>
      </trkpt>
      <trkpt lat="43.31127" lon="-1.50027">
        <ele>96</ele>
        <time>2026-06-28T18:23:11Z</time>
      </trkpt>
      <trkpt lat="43.31124" lon="-1.49985">
        <ele>96</ele>
        <time>2026-06-28T18:23:17Z</time>
      </trkpt>
      <trkpt lat="43.31126" lon="-1.49873">
        <ele>95</ele>
        <time>2026-06-28T18:23:31Z</time>
      </trkpt>
      <trkpt lat="43.31129" lon="-1.49833">
        <ele>94</ele>
        <time>2026-06-28T18:23:36Z</time>
      </trkpt>
      <trkpt lat="43.31137" lon="-1.49802">
        <ele>93</ele>
        <time>2026-06-28T18:23:41Z</time>
      </trkpt>
      <trkpt lat="43.31152" lon="-1.49772">
        <ele>92</ele>
        <time>2026-06-28T18:23:45Z</time>
      </trkpt>
      <trkpt lat="43.31164" lon="-1.49755">
        <ele>90</ele>
        <time>2026-06-28T18:23:49Z</time>
      </trkpt>
      <trkpt lat="43.31207" lon="-1.49714">
        <ele>88</ele>
        <time>2026-06-28T18:23:58Z</time>
      </trkpt>
      <trkpt lat="43.31221" lon="-1.49699">
        <ele>87</ele>
        <time>2026-06-28T18:24:01Z</time>
      </trkpt>
      <trkpt lat="43.31302" lon="-1.49596">
        <ele>92</ele>
        <time>2026-06-28T18:24:21Z</time>
      </trkpt>
      <trkpt lat="43.31321" lon="-1.49578">
        <ele>93</ele>
        <time>2026-06-28T18:24:25Z</time>
      </trkpt>
      <trkpt lat="43.31347" lon="-1.49555">
        <ele>94</ele>
        <time>2026-06-28T18:24:30Z</time>
      </trkpt>
      <trkpt lat="43.31366" lon="-1.49537">
        <ele>95</ele>
        <time>2026-06-28T18:24:34Z</time>
      </trkpt>
      <trkpt lat="43.31434" lon="-1.49458">
        <ele>97</ele>
        <time>2026-06-28T18:24:50Z</time>
      </trkpt>
      <trkpt lat="43.31451" lon="-1.49436">
        <ele>98</ele>
        <time>2026-06-28T18:24:54Z</time>
      </trkpt>
      <trkpt lat="43.31499" lon="-1.49359">
        <ele>100</ele>
        <time>2026-06-28T18:25:07Z</time>
      </trkpt>
      <trkpt lat="43.31542" lon="-1.49286">
        <ele>103</ele>
        <time>2026-06-28T18:25:20Z</time>
      </trkpt>
      <trkpt lat="43.31641" lon="-1.49031">
        <ele>107</ele>
        <time>2026-06-28T18:25:57Z</time>
      </trkpt>
      <trkpt lat="43.31659" lon="-1.48993">
        <ele>108</ele>
        <time>2026-06-28T18:26:03Z</time>
      </trkpt>
      <trkpt lat="43.31671" lon="-1.48977">
        <ele>109</ele>
        <time>2026-06-28T18:26:06Z</time>
      </trkpt>
      <trkpt lat="43.31685" lon="-1.48963">
        <ele>110</ele>
        <time>2026-06-28T18:26:09Z</time>
      </trkpt>
      <trkpt lat="43.31734" lon="-1.48922">
        <ele>112</ele>
        <time>2026-06-28T18:26:19Z</time>
      </trkpt>
      <trkpt lat="43.31755" lon="-1.48895">
        <ele>113</ele>
        <time>2026-06-28T18:26:24Z</time>
      </trkpt>
      <trkpt lat="43.31798" lon="-1.48837">
        <ele>114</ele>
        <time>2026-06-28T18:26:35Z</time>
      </trkpt>
      <trkpt lat="43.31847" lon="-1.4875">
        <ele>117</ele>
        <time>2026-06-28T18:26:49Z</time>
      </trkpt>
      <trkpt lat="43.31871" lon="-1.48719">
        <ele>121</ele>
        <time>2026-06-28T18:26:55Z</time>
      </trkpt>
      <trkpt lat="43.31885" lon="-1.48707">
        <ele>122</ele>
        <time>2026-06-28T18:26:58Z</time>
      </trkpt>
      <trkpt lat="43.31951" lon="-1.48662">
        <ele>125</ele>
        <time>2026-06-28T18:27:11Z</time>
      </trkpt>
      <trkpt lat="43.31979" lon="-1.48641">
        <ele>128</ele>
        <time>2026-06-28T18:27:17Z</time>
      </trkpt>
      <trkpt lat="43.32019" lon="-1.48598">
        <ele>131</ele>
        <time>2026-06-28T18:27:26Z</time>
      </trkpt>
      <trkpt lat="43.32043" lon="-1.4857">
        <ele>134</ele>
        <time>2026-06-28T18:27:31Z</time>
      </trkpt>
      <trkpt lat="43.32092" lon="-1.48486">
        <ele>140</ele>
        <time>2026-06-28T18:27:45Z</time>
      </trkpt>
      <trkpt lat="43.32166" lon="-1.48332">
        <ele>142</ele>
        <time>2026-06-28T18:28:09Z</time>
      </trkpt>
      <trkpt lat="43.32181" lon="-1.48299">
        <ele>147</ele>
        <time>2026-06-28T18:28:14Z</time>
      </trkpt>
      <trkpt lat="43.32198" lon="-1.48237">
        <ele>150</ele>
        <time>2026-06-28T18:28:23Z</time>
      </trkpt>
      <trkpt lat="43.32205" lon="-1.48218">
        <ele>149</ele>
        <time>2026-06-28T18:28:26Z</time>
      </trkpt>
      <trkpt lat="43.32215" lon="-1.48199">
        <ele>147</ele>
        <time>2026-06-28T18:28:29Z</time>
      </trkpt>
      <trkpt lat="43.32253" lon="-1.48148">
        <ele>145</ele>
        <time>2026-06-28T18:28:38Z</time>
      </trkpt>
      <trkpt lat="43.32285" lon="-1.4811">
        <ele>151</ele>
        <time>2026-06-28T18:28:46Z</time>
      </trkpt>
      <trkpt lat="43.32303" lon="-1.48093">
        <ele>152</ele>
        <time>2026-06-28T18:28:50Z</time>
      </trkpt>
      <trkpt lat="43.32363" lon="-1.48047">
        <ele>155</ele>
        <time>2026-06-28T18:29:02Z</time>
      </trkpt>
      <trkpt lat="43.3238" lon="-1.4803">
        <ele>155</ele>
        <time>2026-06-28T18:29:06Z</time>
      </trkpt>
      <trkpt lat="43.32394" lon="-1.48007">
        <ele>155</ele>
        <time>2026-06-28T18:29:09Z</time>
      </trkpt>
      <trkpt lat="43.32438" lon="-1.47913">
        <ele>158</ele>
        <time>2026-06-28T18:29:24Z</time>
      </trkpt>
      <trkpt lat="43.3251" lon="-1.47764">
        <ele>161</ele>
        <time>2026-06-28T18:29:47Z</time>
      </trkpt>
      <trkpt lat="43.32534" lon="-1.47719">
        <ele>162</ele>
        <time>2026-06-28T18:29:54Z</time>
      </trkpt>
      <trkpt lat="43.32546" lon="-1.47702">
        <ele>163</ele>
        <time>2026-06-28T18:29:57Z</time>
      </trkpt>
      <trkpt lat="43.32584" lon="-1.47659">
        <ele>164</ele>
        <time>2026-06-28T18:30:06Z</time>
      </trkpt>
      <trkpt lat="43.32595" lon="-1.47644">
        <ele>165</ele>
        <time>2026-06-28T18:30:09Z</time>
      </trkpt>
      <trkpt lat="43.32611" lon="-1.47618">
        <ele>167</ele>
        <time>2026-06-28T18:30:13Z</time>
      </trkpt>
      <trkpt lat="43.32677" lon="-1.47498">
        <ele>170</ele>
        <time>2026-06-28T18:30:33Z</time>
      </trkpt>
      <trkpt lat="43.32701" lon="-1.47459">
        <ele>173</ele>
        <time>2026-06-28T18:30:39Z</time>
      </trkpt>
      <trkpt lat="43.32713" lon="-1.47446">
        <ele>174</ele>
        <time>2026-06-28T18:30:42Z</time>
      </trkpt>
      <trkpt lat="43.32719" lon="-1.47442">
        <ele>175</ele>
        <time>2026-06-28T18:30:43Z</time>
      </trkpt>
      <trkpt lat="43.32759" lon="-1.47423">
        <ele>176</ele>
        <time>2026-06-28T18:30:51Z</time>
      </trkpt>
      <trkpt lat="43.32761" lon="-1.47415">
        <ele>176</ele>
        <time>2026-06-28T18:30:52Z</time>
      </trkpt>
      <trkpt lat="43.32757" lon="-1.47402">
        <ele>177</ele>
        <time>2026-06-28T18:30:54Z</time>
      </trkpt>
      <trkpt lat="43.32761" lon="-1.47407">
        <ele>176</ele>
        <time>2026-06-28T18:30:55Z</time>
      </trkpt>
      <trkpt lat="43.32764" lon="-1.47414">
        <ele>176</ele>
        <time>2026-06-28T18:30:56Z</time>
      </trkpt>
      <trkpt lat="43.32767" lon="-1.47415">
        <ele>175</ele>
        <time>2026-06-28T18:30:56Z</time>
      </trkpt>
      <trkpt lat="43.32763" lon="-1.47416">
        <ele>176</ele>
        <time>2026-06-28T18:30:57Z</time>
      </trkpt>
      <trkpt lat="43.32764" lon="-1.47415">
        <ele>176</ele>
        <time>2026-06-28T18:30:57Z</time>
      </trkpt>
      <trkpt lat="43.32762" lon="-1.47414">
        <ele>176</ele>
        <time>2026-06-28T18:30:58Z</time>
      </trkpt>
      <trkpt lat="43.32764" lon="-1.47418">
        <ele>175</ele>
        <time>2026-06-28T18:30:58Z</time>
      </trkpt>
      <trkpt lat="43.32765" lon="-1.47416">
        <ele>175</ele>
        <time>2026-06-28T18:30:58Z</time>
      </trkpt>
      <trkpt lat="43.32768" lon="-1.47419">
        <ele>175</ele>
        <time>2026-06-28T18:30:59Z</time>
      </trkpt>
      <trkpt lat="43.32772" lon="-1.47417">
        <ele>175</ele>
        <time>2026-06-28T18:31:00Z</time>
      </trkpt>
      <trkpt lat="43.32781" lon="-1.47395">
        <ele>175</ele>
        <time>2026-06-28T18:31:03Z</time>
      </trkpt>
      <trkpt lat="43.32791" lon="-1.47362">
        <ele>175</ele>
        <time>2026-06-28T18:31:08Z</time>
      </trkpt>
      <trkpt lat="43.32803" lon="-1.4733">
        <ele>175</ele>
        <time>2026-06-28T18:31:12Z</time>
      </trkpt>
      <trkpt lat="43.32809" lon="-1.4731">
        <ele>175</ele>
        <time>2026-06-28T18:31:15Z</time>
      </trkpt>
      <trkpt lat="43.3281" lon="-1.47297">
        <ele>176</ele>
        <time>2026-06-28T18:31:17Z</time>
      </trkpt>
      <trkpt lat="43.3281" lon="-1.4727">
        <ele>178</ele>
        <time>2026-06-28T18:31:20Z</time>
      </trkpt>
      <trkpt lat="43.32798" lon="-1.47171">
        <ele>186</ele>
        <time>2026-06-28T18:31:33Z</time>
      </trkpt>
      <trkpt lat="43.32798" lon="-1.47117">
        <ele>186</ele>
        <time>2026-06-28T18:31:40Z</time>
      </trkpt>
      <trkpt lat="43.32807" lon="-1.47026">
        <ele>185</ele>
        <time>2026-06-28T18:31:52Z</time>
      </trkpt>
      <trkpt lat="43.32823" lon="-1.46937">
        <ele>186</ele>
        <time>2026-06-28T18:32:04Z</time>
      </trkpt>
      <trkpt lat="43.32831" lon="-1.46906">
        <ele>187</ele>
        <time>2026-06-28T18:32:08Z</time>
      </trkpt>
      <trkpt lat="43.32838" lon="-1.46889">
        <ele>185</ele>
        <time>2026-06-28T18:32:11Z</time>
      </trkpt>
      <trkpt lat="43.32866" lon="-1.46843">
        <ele>180</ele>
        <time>2026-06-28T18:32:19Z</time>
      </trkpt>
      <trkpt lat="43.32882" lon="-1.46778">
        <ele>173</ele>
        <time>2026-06-28T18:32:28Z</time>
      </trkpt>
      <trkpt lat="43.32943" lon="-1.46636">
        <ele>170</ele>
        <time>2026-06-28T18:32:49Z</time>
      </trkpt>
      <trkpt lat="43.32949" lon="-1.46614">
        <ele>170</ele>
        <time>2026-06-28T18:32:52Z</time>
      </trkpt>
      <trkpt lat="43.32951" lon="-1.46587">
        <ele>172</ele>
        <time>2026-06-28T18:32:56Z</time>
      </trkpt>
      <trkpt lat="43.32948" lon="-1.46567">
        <ele>174</ele>
        <time>2026-06-28T18:32:58Z</time>
      </trkpt>
      <trkpt lat="43.32935" lon="-1.46521">
        <ele>178</ele>
        <time>2026-06-28T18:33:05Z</time>
      </trkpt>
      <trkpt lat="43.32935" lon="-1.46496">
        <ele>179</ele>
        <time>2026-06-28T18:33:08Z</time>
      </trkpt>
      <trkpt lat="43.3294" lon="-1.46479">
        <ele>177</ele>
        <time>2026-06-28T18:33:10Z</time>
      </trkpt>
      <trkpt lat="43.32954" lon="-1.46458">
        <ele>175</ele>
        <time>2026-06-28T18:33:14Z</time>
      </trkpt>
      <trkpt lat="43.32977" lon="-1.46434">
        <ele>174</ele>
        <time>2026-06-28T18:33:19Z</time>
      </trkpt>
      <trkpt lat="43.33011" lon="-1.46405">
        <ele>172</ele>
        <time>2026-06-28T18:33:26Z</time>
      </trkpt>
      <trkpt lat="43.33025" lon="-1.46388">
        <ele>169</ele>
        <time>2026-06-28T18:33:29Z</time>
      </trkpt>
      <trkpt lat="43.33031" lon="-1.46378">
        <ele>168</ele>
        <time>2026-06-28T18:33:31Z</time>
      </trkpt>
      <trkpt lat="43.33044" lon="-1.46343">
        <ele>167</ele>
        <time>2026-06-28T18:33:36Z</time>
      </trkpt>
      <trkpt lat="43.33076" lon="-1.46235">
        <ele>163</ele>
        <time>2026-06-28T18:33:51Z</time>
      </trkpt>
      <trkpt lat="43.33101" lon="-1.46157">
        <ele>163</ele>
        <time>2026-06-28T18:34:02Z</time>
      </trkpt>
      <trkpt lat="43.3311" lon="-1.46108">
        <ele>160</ele>
        <time>2026-06-28T18:34:09Z</time>
      </trkpt>
      <trkpt lat="43.33116" lon="-1.4609">
        <ele>159</ele>
        <time>2026-06-28T18:34:11Z</time>
      </trkpt>
      <trkpt lat="43.33124" lon="-1.46074">
        <ele>156</ele>
        <time>2026-06-28T18:34:14Z</time>
      </trkpt>
      <trkpt lat="43.33143" lon="-1.46051">
        <ele>152</ele>
        <time>2026-06-28T18:34:18Z</time>
      </trkpt>
      <trkpt lat="43.33176" lon="-1.46023">
        <ele>146</ele>
        <time>2026-06-28T18:34:25Z</time>
      </trkpt>
      <trkpt lat="43.33191" lon="-1.46008">
        <ele>143</ele>
        <time>2026-06-28T18:34:29Z</time>
      </trkpt>
      <trkpt lat="43.33215" lon="-1.45966">
        <ele>139</ele>
        <time>2026-06-28T18:34:36Z</time>
      </trkpt>
      <trkpt lat="43.33226" lon="-1.45943">
        <ele>138</ele>
        <time>2026-06-28T18:34:39Z</time>
      </trkpt>
      <trkpt lat="43.33234" lon="-1.45922">
        <ele>138</ele>
        <time>2026-06-28T18:34:42Z</time>
      </trkpt>
      <trkpt lat="43.33239" lon="-1.45898">
        <ele>138</ele>
        <time>2026-06-28T18:34:45Z</time>
      </trkpt>
      <trkpt lat="43.3324" lon="-1.45886">
        <ele>137</ele>
        <time>2026-06-28T18:34:47Z</time>
      </trkpt>
      <trkpt lat="43.33239" lon="-1.4586">
        <ele>136</ele>
        <time>2026-06-28T18:34:50Z</time>
      </trkpt>
      <trkpt lat="43.33234" lon="-1.45812">
        <ele>133</ele>
        <time>2026-06-28T18:34:57Z</time>
      </trkpt>
      <trkpt lat="43.33234" lon="-1.45783">
        <ele>131</ele>
        <time>2026-06-28T18:35:00Z</time>
      </trkpt>
      <trkpt lat="43.33237" lon="-1.45762">
        <ele>130</ele>
        <time>2026-06-28T18:35:03Z</time>
      </trkpt>
      <trkpt lat="43.33259" lon="-1.45686">
        <ele>127</ele>
        <time>2026-06-28T18:35:14Z</time>
      </trkpt>
      <trkpt lat="43.33264" lon="-1.45659">
        <ele>126</ele>
        <time>2026-06-28T18:35:17Z</time>
      </trkpt>
      <trkpt lat="43.33265" lon="-1.45632">
        <ele>124</ele>
        <time>2026-06-28T18:35:21Z</time>
      </trkpt>
      <trkpt lat="43.33261" lon="-1.45585">
        <ele>121</ele>
        <time>2026-06-28T18:35:27Z</time>
      </trkpt>
      <trkpt lat="43.33262" lon="-1.45562">
        <ele>119</ele>
        <time>2026-06-28T18:35:30Z</time>
      </trkpt>
      <trkpt lat="43.33267" lon="-1.45538">
        <ele>117</ele>
        <time>2026-06-28T18:35:33Z</time>
      </trkpt>
      <trkpt lat="43.33281" lon="-1.45486">
        <ele>113</ele>
        <time>2026-06-28T18:35:40Z</time>
      </trkpt>
      <trkpt lat="43.33294" lon="-1.45413">
        <ele>108</ele>
        <time>2026-06-28T18:35:50Z</time>
      </trkpt>
      <trkpt lat="43.33306" lon="-1.45357">
        <ele>108</ele>
        <time>2026-06-28T18:35:58Z</time>
      </trkpt>
      <trkpt lat="43.33313" lon="-1.45334">
        <ele>108</ele>
        <time>2026-06-28T18:36:01Z</time>
      </trkpt>
      <trkpt lat="43.33318" lon="-1.45325">
        <ele>109</ele>
        <time>2026-06-28T18:36:02Z</time>
      </trkpt>
      <trkpt lat="43.33332" lon="-1.45313">
        <ele>109</ele>
        <time>2026-06-28T18:36:05Z</time>
      </trkpt>
      <trkpt lat="43.33422" lon="-1.45258">
        <ele>103</ele>
        <time>2026-06-28T18:36:23Z</time>
      </trkpt>
      <trkpt lat="43.33441" lon="-1.45249">
        <ele>102</ele>
        <time>2026-06-28T18:36:26Z</time>
      </trkpt>
      <trkpt lat="43.33469" lon="-1.45239">
        <ele>101</ele>
        <time>2026-06-28T18:36:31Z</time>
      </trkpt>
      <trkpt lat="43.33487" lon="-1.45236">
        <ele>100</ele>
        <time>2026-06-28T18:36:35Z</time>
      </trkpt>
      <trkpt lat="43.33533" lon="-1.45239">
        <ele>97</ele>
        <time>2026-06-28T18:36:43Z</time>
      </trkpt>
      <trkpt lat="43.33554" lon="-1.45237">
        <ele>96</ele>
        <time>2026-06-28T18:36:47Z</time>
      </trkpt>
      <trkpt lat="43.33593" lon="-1.4522">
        <ele>97</ele>
        <time>2026-06-28T18:36:54Z</time>
      </trkpt>
      <trkpt lat="43.33664" lon="-1.45183">
        <ele>92</ele>
        <time>2026-06-28T18:37:07Z</time>
      </trkpt>
      <trkpt lat="43.33693" lon="-1.45179">
        <ele>89</ele>
        <time>2026-06-28T18:37:13Z</time>
      </trkpt>
      <trkpt lat="43.33735" lon="-1.45179">
        <ele>83</ele>
        <time>2026-06-28T18:37:20Z</time>
      </trkpt>
      <trkpt lat="43.3379" lon="-1.45172">
        <ele>77</ele>
        <time>2026-06-28T18:37:30Z</time>
      </trkpt>
      <trkpt lat="43.3382" lon="-1.45171">
        <ele>73</ele>
        <time>2026-06-28T18:37:35Z</time>
      </trkpt>
      <trkpt lat="43.33824" lon="-1.45166">
        <ele>73</ele>
        <time>2026-06-28T18:37:36Z</time>
      </trkpt>
      <trkpt lat="43.33828" lon="-1.45166">
        <ele>73</ele>
        <time>2026-06-28T18:37:37Z</time>
      </trkpt>
      <trkpt lat="43.33849" lon="-1.45187">
        <ele>70</ele>
        <time>2026-06-28T18:37:42Z</time>
      </trkpt>
      <trkpt lat="43.33897" lon="-1.45252">
        <ele>65</ele>
        <time>2026-06-28T18:37:54Z</time>
      </trkpt>
      <trkpt lat="43.33926" lon="-1.45281">
        <ele>62</ele>
        <time>2026-06-28T18:38:00Z</time>
      </trkpt>
      <trkpt lat="43.33936" lon="-1.45292">
        <ele>61</ele>
        <time>2026-06-28T18:38:02Z</time>
      </trkpt>
      <trkpt lat="43.33939" lon="-1.453">
        <ele>60</ele>
        <time>2026-06-28T18:38:03Z</time>
      </trkpt>
      <trkpt lat="43.33937" lon="-1.45307">
        <ele>60</ele>
        <time>2026-06-28T18:38:04Z</time>
      </trkpt>
      <trkpt lat="43.33918" lon="-1.45329">
        <ele>60</ele>
        <time>2026-06-28T18:38:09Z</time>
      </trkpt>
      <trkpt lat="43.33877" lon="-1.45368">
        <ele>59</ele>
        <time>2026-06-28T18:38:18Z</time>
      </trkpt>
      <trkpt lat="43.33855" lon="-1.45394">
        <ele>59</ele>
        <time>2026-06-28T18:38:23Z</time>
      </trkpt>
      <trkpt lat="43.33845" lon="-1.45409">
        <ele>59</ele>
        <time>2026-06-28T18:38:25Z</time>
      </trkpt>
      <trkpt lat="43.33836" lon="-1.45425">
        <ele>59</ele>
        <time>2026-06-28T18:38:28Z</time>
      </trkpt>
      <trkpt lat="43.33798" lon="-1.45521">
        <ele>62</ele>
        <time>2026-06-28T18:38:42Z</time>
      </trkpt>
      <trkpt lat="43.33768" lon="-1.45581">
        <ele>61</ele>
        <time>2026-06-28T18:38:52Z</time>
      </trkpt>
      <trkpt lat="43.33733" lon="-1.45637">
        <ele>62</ele>
        <time>2026-06-28T18:39:01Z</time>
      </trkpt>
      <trkpt lat="43.33605" lon="-1.45826">
        <ele>66</ele>
        <time>2026-06-28T18:39:35Z</time>
      </trkpt>
      <trkpt lat="43.33573" lon="-1.45876">
        <ele>66</ele>
        <time>2026-06-28T18:39:43Z</time>
      </trkpt>
      <trkpt lat="43.33562" lon="-1.45901">
        <ele>65</ele>
        <time>2026-06-28T18:39:47Z</time>
      </trkpt>
      <trkpt lat="43.33554" lon="-1.45939">
        <ele>63</ele>
        <time>2026-06-28T18:39:52Z</time>
      </trkpt>
      <trkpt lat="43.33553" lon="-1.45971">
        <ele>60</ele>
        <time>2026-06-28T18:39:56Z</time>
      </trkpt>
      <trkpt lat="43.33558" lon="-1.46014">
        <ele>58</ele>
        <time>2026-06-28T18:40:02Z</time>
      </trkpt>
      <trkpt lat="43.33575" lon="-1.46074">
        <ele>57</ele>
        <time>2026-06-28T18:40:10Z</time>
      </trkpt>
      <trkpt lat="43.33582" lon="-1.46093">
        <ele>57</ele>
        <time>2026-06-28T18:40:13Z</time>
      </trkpt>
      <trkpt lat="43.33594" lon="-1.4612">
        <ele>57</ele>
        <time>2026-06-28T18:40:17Z</time>
      </trkpt>
      <trkpt lat="43.33625" lon="-1.46177">
        <ele>56</ele>
        <time>2026-06-28T18:40:26Z</time>
      </trkpt>
      <trkpt lat="43.33637" lon="-1.46201">
        <ele>56</ele>
        <time>2026-06-28T18:40:30Z</time>
      </trkpt>
      <trkpt lat="43.33645" lon="-1.46227">
        <ele>56</ele>
        <time>2026-06-28T18:40:34Z</time>
      </trkpt>
      <trkpt lat="43.33653" lon="-1.46262">
        <ele>56</ele>
        <time>2026-06-28T18:40:38Z</time>
      </trkpt>
      <trkpt lat="43.33683" lon="-1.4645">
        <ele>61</ele>
        <time>2026-06-28T18:41:03Z</time>
      </trkpt>
      <trkpt lat="43.337" lon="-1.46542">
        <ele>63</ele>
        <time>2026-06-28T18:41:16Z</time>
      </trkpt>
      <trkpt lat="43.33704" lon="-1.46598">
        <ele>64</ele>
        <time>2026-06-28T18:41:23Z</time>
      </trkpt>
      <trkpt lat="43.337" lon="-1.46681">
        <ele>65</ele>
        <time>2026-06-28T18:41:34Z</time>
      </trkpt>
      <trkpt lat="43.33701" lon="-1.46714">
        <ele>66</ele>
        <time>2026-06-28T18:41:38Z</time>
      </trkpt>
      <trkpt lat="43.33706" lon="-1.46746">
        <ele>66</ele>
        <time>2026-06-28T18:41:42Z</time>
      </trkpt>
      <trkpt lat="43.33721" lon="-1.46797">
        <ele>67</ele>
        <time>2026-06-28T18:41:49Z</time>
      </trkpt>
      <trkpt lat="43.33732" lon="-1.46824">
        <ele>67</ele>
        <time>2026-06-28T18:41:53Z</time>
      </trkpt>
      <trkpt lat="43.33742" lon="-1.46842">
        <ele>67</ele>
        <time>2026-06-28T18:41:56Z</time>
      </trkpt>
      <trkpt lat="43.3375" lon="-1.46854">
        <ele>67</ele>
        <time>2026-06-28T18:41:58Z</time>
      </trkpt>
      <trkpt lat="43.33768" lon="-1.46876">
        <ele>67</ele>
        <time>2026-06-28T18:42:03Z</time>
      </trkpt>
      <trkpt lat="43.33798" lon="-1.46902">
        <ele>67</ele>
        <time>2026-06-28T18:42:09Z</time>
      </trkpt>
      <trkpt lat="43.33875" lon="-1.46955">
        <ele>65</ele>
        <time>2026-06-28T18:42:24Z</time>
      </trkpt>
      <trkpt lat="43.33895" lon="-1.46971">
        <ele>64</ele>
        <time>2026-06-28T18:42:28Z</time>
      </trkpt>
      <trkpt lat="43.33964" lon="-1.47049">
        <ele>63</ele>
        <time>2026-06-28T18:42:44Z</time>
      </trkpt>
      <trkpt lat="43.33975" lon="-1.47064">
        <ele>64</ele>
        <time>2026-06-28T18:42:47Z</time>
      </trkpt>
      <trkpt lat="43.33988" lon="-1.4709">
        <ele>65</ele>
        <time>2026-06-28T18:42:51Z</time>
      </trkpt>
      <trkpt lat="43.34048" lon="-1.47213">
        <ele>65</ele>
        <time>2026-06-28T18:43:10Z</time>
      </trkpt>
      <trkpt lat="43.34067" lon="-1.47259">
        <ele>64</ele>
        <time>2026-06-28T18:43:17Z</time>
      </trkpt>
      <trkpt lat="43.34082" lon="-1.47274">
        <ele>62</ele>
        <time>2026-06-28T18:43:20Z</time>
      </trkpt>
      <trkpt lat="43.34085" lon="-1.4728">
        <ele>62</ele>
        <time>2026-06-28T18:43:21Z</time>
      </trkpt>
      <trkpt lat="43.34086" lon="-1.47293">
        <ele>63</ele>
        <time>2026-06-28T18:43:23Z</time>
      </trkpt>
      <trkpt lat="43.34075" lon="-1.47316">
        <ele>66</ele>
        <time>2026-06-28T18:43:27Z</time>
      </trkpt>
      <trkpt lat="43.34072" lon="-1.47331">
        <ele>67</ele>
        <time>2026-06-28T18:43:29Z</time>
      </trkpt>
      <trkpt lat="43.3409" lon="-1.47457">
        <ele>64</ele>
        <time>2026-06-28T18:43:45Z</time>
      </trkpt>
      <trkpt lat="43.34091" lon="-1.47481">
        <ele>64</ele>
        <time>2026-06-28T18:43:48Z</time>
      </trkpt>
      <trkpt lat="43.34088" lon="-1.47512">
        <ele>64</ele>
        <time>2026-06-28T18:43:52Z</time>
      </trkpt>
      <trkpt lat="43.34088" lon="-1.47535">
        <ele>65</ele>
        <time>2026-06-28T18:43:55Z</time>
      </trkpt>
      <trkpt lat="43.34086" lon="-1.47542">
        <ele>66</ele>
        <time>2026-06-28T18:43:56Z</time>
      </trkpt>
      <trkpt lat="43.3408" lon="-1.47554">
        <ele>66</ele>
        <time>2026-06-28T18:43:58Z</time>
      </trkpt>
      <trkpt lat="43.34035" lon="-1.47628">
        <ele>68</ele>
        <time>2026-06-28T18:44:11Z</time>
      </trkpt>
      <trkpt lat="43.34015" lon="-1.47657">
        <ele>68</ele>
        <time>2026-06-28T18:44:16Z</time>
      </trkpt>
      <trkpt lat="43.3396" lon="-1.4772">
        <ele>68</ele>
        <time>2026-06-28T18:44:29Z</time>
      </trkpt>
      <trkpt lat="43.33944" lon="-1.47735">
        <ele>67</ele>
        <time>2026-06-28T18:44:32Z</time>
      </trkpt>
      <trkpt lat="43.33925" lon="-1.47746">
        <ele>66</ele>
        <time>2026-06-28T18:44:36Z</time>
      </trkpt>
      <trkpt lat="43.33907" lon="-1.47756">
        <ele>65</ele>
        <time>2026-06-28T18:44:39Z</time>
      </trkpt>
      <trkpt lat="43.33894" lon="-1.4776">
        <ele>66</ele>
        <time>2026-06-28T18:44:42Z</time>
      </trkpt>
      <trkpt lat="43.33874" lon="-1.47764">
        <ele>66</ele>
        <time>2026-06-28T18:44:45Z</time>
      </trkpt>
      <trkpt lat="43.33854" lon="-1.47765">
        <ele>66</ele>
        <time>2026-06-28T18:44:49Z</time>
      </trkpt>
      <trkpt lat="43.33834" lon="-1.47763">
        <ele>65</ele>
        <time>2026-06-28T18:44:52Z</time>
      </trkpt>
      <trkpt lat="43.33816" lon="-1.4776">
        <ele>66</ele>
        <time>2026-06-28T18:44:56Z</time>
      </trkpt>
      <trkpt lat="43.33739" lon="-1.47737">
        <ele>68</ele>
        <time>2026-06-28T18:45:10Z</time>
      </trkpt>
      <trkpt lat="43.33722" lon="-1.47735">
        <ele>68</ele>
        <time>2026-06-28T18:45:13Z</time>
      </trkpt>
      <trkpt lat="43.33705" lon="-1.47736">
        <ele>69</ele>
        <time>2026-06-28T18:45:16Z</time>
      </trkpt>
      <trkpt lat="43.3369" lon="-1.4774">
        <ele>70</ele>
        <time>2026-06-28T18:45:18Z</time>
      </trkpt>
      <trkpt lat="43.3367" lon="-1.47751">
        <ele>71</ele>
        <time>2026-06-28T18:45:22Z</time>
      </trkpt>
      <trkpt lat="43.33653" lon="-1.47768">
        <ele>72</ele>
        <time>2026-06-28T18:45:26Z</time>
      </trkpt>
      <trkpt lat="43.33644" lon="-1.47782">
        <ele>73</ele>
        <time>2026-06-28T18:45:28Z</time>
      </trkpt>
      <trkpt lat="43.33632" lon="-1.47807">
        <ele>74</ele>
        <time>2026-06-28T18:45:32Z</time>
      </trkpt>
      <trkpt lat="43.33623" lon="-1.47846">
        <ele>75</ele>
        <time>2026-06-28T18:45:38Z</time>
      </trkpt>
      <trkpt lat="43.33577" lon="-1.48191">
        <ele>94</ele>
        <time>2026-06-28T18:46:23Z</time>
      </trkpt>
      <trkpt lat="43.33568" lon="-1.48242">
        <ele>97</ele>
        <time>2026-06-28T18:46:30Z</time>
      </trkpt>
      <trkpt lat="43.3356" lon="-1.48272">
        <ele>98</ele>
        <time>2026-06-28T18:46:34Z</time>
      </trkpt>
      <trkpt lat="43.33553" lon="-1.48292">
        <ele>99</ele>
        <time>2026-06-28T18:46:37Z</time>
      </trkpt>
      <trkpt lat="43.3354" lon="-1.48321">
        <ele>99</ele>
        <time>2026-06-28T18:46:41Z</time>
      </trkpt>
      <trkpt lat="43.33497" lon="-1.484">
        <ele>102</ele>
        <time>2026-06-28T18:46:54Z</time>
      </trkpt>
      <trkpt lat="43.33467" lon="-1.48463">
        <ele>106</ele>
        <time>2026-06-28T18:47:04Z</time>
      </trkpt>
      <trkpt lat="43.33454" lon="-1.48513">
        <ele>109</ele>
        <time>2026-06-28T18:47:11Z</time>
      </trkpt>
      <trkpt lat="43.33441" lon="-1.486">
        <ele>113</ele>
        <time>2026-06-28T18:47:22Z</time>
      </trkpt>
      <trkpt lat="43.33432" lon="-1.48628">
        <ele>112</ele>
        <time>2026-06-28T18:47:26Z</time>
      </trkpt>
      <trkpt lat="43.3342" lon="-1.48652">
        <ele>111</ele>
        <time>2026-06-28T18:47:30Z</time>
      </trkpt>
      <trkpt lat="43.33406" lon="-1.48673">
        <ele>111</ele>
        <time>2026-06-28T18:47:33Z</time>
      </trkpt>
      <trkpt lat="43.33361" lon="-1.48724">
        <ele>115</ele>
        <time>2026-06-28T18:47:44Z</time>
      </trkpt>
      <trkpt lat="43.3334" lon="-1.48752">
        <ele>118</ele>
        <time>2026-06-28T18:47:49Z</time>
      </trkpt>
      <trkpt lat="43.33318" lon="-1.48795">
        <ele>121</ele>
        <time>2026-06-28T18:47:56Z</time>
      </trkpt>
      <trkpt lat="43.33302" lon="-1.48831">
        <ele>122</ele>
        <time>2026-06-28T18:48:01Z</time>
      </trkpt>
      <trkpt lat="43.33293" lon="-1.48859">
        <ele>122</ele>
        <time>2026-06-28T18:48:05Z</time>
      </trkpt>
      <trkpt lat="43.33289" lon="-1.48883">
        <ele>122</ele>
        <time>2026-06-28T18:48:08Z</time>
      </trkpt>
      <trkpt lat="43.33287" lon="-1.48901">
        <ele>123</ele>
        <time>2026-06-28T18:48:11Z</time>
      </trkpt>
      <trkpt lat="43.33289" lon="-1.48917">
        <ele>123</ele>
        <time>2026-06-28T18:48:13Z</time>
      </trkpt>
      <trkpt lat="43.33297" lon="-1.48936">
        <ele>123</ele>
        <time>2026-06-28T18:48:16Z</time>
      </trkpt>
      <trkpt lat="43.33296" lon="-1.48951">
        <ele>124</ele>
        <time>2026-06-28T18:48:18Z</time>
      </trkpt>
      <trkpt lat="43.33298" lon="-1.48959">
        <ele>124</ele>
        <time>2026-06-28T18:48:19Z</time>
      </trkpt>
      <trkpt lat="43.3331" lon="-1.4899">
        <ele>123</ele>
        <time>2026-06-28T18:48:23Z</time>
      </trkpt>
      <trkpt lat="43.33307" lon="-1.48993">
        <ele>123</ele>
        <time>2026-06-28T18:48:24Z</time>
      </trkpt>
      <trkpt lat="43.33305" lon="-1.48993">
        <ele>123</ele>
        <time>2026-06-28T18:48:24Z</time>
      </trkpt>
      <trkpt lat="43.33302" lon="-1.48987">
        <ele>124</ele>
        <time>2026-06-28T18:48:25Z</time>
      </trkpt>
      <trkpt lat="43.33293" lon="-1.48967">
        <ele>124</ele>
        <time>2026-06-28T18:48:28Z</time>
      </trkpt>
      <trkpt lat="43.33278" lon="-1.48946">
        <ele>125</ele>
        <time>2026-06-28T18:48:32Z</time>
      </trkpt>
      <trkpt lat="43.33276" lon="-1.48937">
        <ele>124</ele>
        <time>2026-06-28T18:48:33Z</time>
      </trkpt>
      <trkpt lat="43.33278" lon="-1.4893">
        <ele>124</ele>
        <time>2026-06-28T18:48:34Z</time>
      </trkpt>
      <trkpt lat="43.33283" lon="-1.48925">
        <ele>123</ele>
        <time>2026-06-28T18:48:35Z</time>
      </trkpt>
      <trkpt lat="43.333" lon="-1.48926">
        <ele>123</ele>
        <time>2026-06-28T18:48:38Z</time>
      </trkpt>
      <trkpt lat="43.33315" lon="-1.48914">
        <ele>123</ele>
        <time>2026-06-28T18:48:42Z</time>
      </trkpt>
      <trkpt lat="43.33335" lon="-1.48903">
        <ele>124</ele>
        <time>2026-06-28T18:48:45Z</time>
      </trkpt>
      <trkpt lat="43.33349" lon="-1.48897">
        <ele>125</ele>
        <time>2026-06-28T18:48:48Z</time>
      </trkpt>
      <trkpt lat="43.33365" lon="-1.48894">
        <ele>127</ele>
        <time>2026-06-28T18:48:51Z</time>
      </trkpt>
      <trkpt lat="43.33406" lon="-1.48892">
        <ele>132</ele>
        <time>2026-06-28T18:48:58Z</time>
      </trkpt>
      <trkpt lat="43.33436" lon="-1.48892">
        <ele>136</ele>
        <time>2026-06-28T18:49:03Z</time>
      </trkpt>
      <trkpt lat="43.33446" lon="-1.48895">
        <ele>138</ele>
        <time>2026-06-28T18:49:05Z</time>
      </trkpt>
      <trkpt lat="43.3346" lon="-1.48901">
        <ele>140</ele>
        <time>2026-06-28T18:49:08Z</time>
      </trkpt>
      <trkpt lat="43.33479" lon="-1.48917">
        <ele>143</ele>
        <time>2026-06-28T18:49:12Z</time>
      </trkpt>
      <trkpt lat="43.3349" lon="-1.48933">
        <ele>144</ele>
        <time>2026-06-28T18:49:15Z</time>
      </trkpt>
      <trkpt lat="43.33497" lon="-1.48954">
        <ele>144</ele>
        <time>2026-06-28T18:49:18Z</time>
      </trkpt>
      <trkpt lat="43.3352" lon="-1.4903">
        <ele>145</ele>
        <time>2026-06-28T18:49:28Z</time>
      </trkpt>
      <trkpt lat="43.33545" lon="-1.49118">
        <ele>143</ele>
        <time>2026-06-28T18:49:41Z</time>
      </trkpt>
      <trkpt lat="43.3357" lon="-1.49165">
        <ele>146</ele>
        <time>2026-06-28T18:49:48Z</time>
      </trkpt>
      <trkpt lat="43.33574" lon="-1.49183">
        <ele>145</ele>
        <time>2026-06-28T18:49:51Z</time>
      </trkpt>
      <trkpt lat="43.33578" lon="-1.49216">
        <ele>143</ele>
        <time>2026-06-28T18:49:55Z</time>
      </trkpt>
      <trkpt lat="43.33584" lon="-1.49235">
        <ele>143</ele>
        <time>2026-06-28T18:49:58Z</time>
      </trkpt>
      <trkpt lat="43.33606" lon="-1.49291">
        <ele>144</ele>
        <time>2026-06-28T18:50:06Z</time>
      </trkpt>
      <trkpt lat="43.33632" lon="-1.49342">
        <ele>146</ele>
        <time>2026-06-28T18:50:14Z</time>
      </trkpt>
      <trkpt lat="43.33654" lon="-1.49374">
        <ele>150</ele>
        <time>2026-06-28T18:50:20Z</time>
      </trkpt>
      <trkpt lat="43.3368" lon="-1.49406">
        <ele>152</ele>
        <time>2026-06-28T18:50:26Z</time>
      </trkpt>
      <trkpt lat="43.33734" lon="-1.49482">
        <ele>158</ele>
        <time>2026-06-28T18:50:40Z</time>
      </trkpt>
      <trkpt lat="43.33745" lon="-1.49495">
        <ele>160</ele>
        <time>2026-06-28T18:50:42Z</time>
      </trkpt>
      <trkpt lat="43.33757" lon="-1.49505">
        <ele>161</ele>
        <time>2026-06-28T18:50:45Z</time>
      </trkpt>
      <trkpt lat="43.33765" lon="-1.49508">
        <ele>161</ele>
        <time>2026-06-28T18:50:46Z</time>
      </trkpt>
      <trkpt lat="43.33799" lon="-1.49504">
        <ele>160</ele>
        <time>2026-06-28T18:50:52Z</time>
      </trkpt>
      <trkpt lat="43.33811" lon="-1.49509">
        <ele>159</ele>
        <time>2026-06-28T18:50:54Z</time>
      </trkpt>
      <trkpt lat="43.33823" lon="-1.49518">
        <ele>160</ele>
        <time>2026-06-28T18:50:57Z</time>
      </trkpt>
      <trkpt lat="43.3384" lon="-1.49538">
        <ele>159</ele>
        <time>2026-06-28T18:51:01Z</time>
      </trkpt>
      <trkpt lat="43.33867" lon="-1.49586">
        <ele>158</ele>
        <time>2026-06-28T18:51:09Z</time>
      </trkpt>
      <trkpt lat="43.33876" lon="-1.49598">
        <ele>158</ele>
        <time>2026-06-28T18:51:11Z</time>
      </trkpt>
      <trkpt lat="43.33888" lon="-1.49605">
        <ele>157</ele>
        <time>2026-06-28T18:51:13Z</time>
      </trkpt>
      <trkpt lat="43.33915" lon="-1.49616">
        <ele>154</ele>
        <time>2026-06-28T18:51:18Z</time>
      </trkpt>
      <trkpt lat="43.33935" lon="-1.49631">
        <ele>153</ele>
        <time>2026-06-28T18:51:22Z</time>
      </trkpt>
      <trkpt lat="43.33954" lon="-1.49653">
        <ele>153</ele>
        <time>2026-06-28T18:51:27Z</time>
      </trkpt>
      <trkpt lat="43.34001" lon="-1.49712">
        <ele>150</ele>
        <time>2026-06-28T18:51:38Z</time>
      </trkpt>
      <trkpt lat="43.34013" lon="-1.49731">
        <ele>150</ele>
        <time>2026-06-28T18:51:41Z</time>
      </trkpt>
      <trkpt lat="43.34022" lon="-1.49753">
        <ele>151</ele>
        <time>2026-06-28T18:51:45Z</time>
      </trkpt>
      <trkpt lat="43.34036" lon="-1.498">
        <ele>147</ele>
        <time>2026-06-28T18:51:51Z</time>
      </trkpt>
      <trkpt lat="43.34053" lon="-1.49864">
        <ele>142</ele>
        <time>2026-06-28T18:52:00Z</time>
      </trkpt>
      <trkpt lat="43.34061" lon="-1.49886">
        <ele>141</ele>
        <time>2026-06-28T18:52:03Z</time>
      </trkpt>
      <trkpt lat="43.34078" lon="-1.49914">
        <ele>140</ele>
        <time>2026-06-28T18:52:08Z</time>
      </trkpt>
      <trkpt lat="43.34121" lon="-1.49973">
        <ele>135</ele>
        <time>2026-06-28T18:52:19Z</time>
      </trkpt>
      <trkpt lat="43.34126" lon="-1.49983">
        <ele>134</ele>
        <time>2026-06-28T18:52:20Z</time>
      </trkpt>
      <trkpt lat="43.34128" lon="-1.49995">
        <ele>134</ele>
        <time>2026-06-28T18:52:22Z</time>
      </trkpt>
      <trkpt lat="43.34118" lon="-1.50045">
        <ele>133</ele>
        <time>2026-06-28T18:52:28Z</time>
      </trkpt>
      <trkpt lat="43.34113" lon="-1.50059">
        <ele>132</ele>
        <time>2026-06-28T18:52:31Z</time>
      </trkpt>
      <trkpt lat="43.34098" lon="-1.50087">
        <ele>131</ele>
        <time>2026-06-28T18:52:35Z</time>
      </trkpt>
      <trkpt lat="43.34071" lon="-1.5013">
        <ele>128</ele>
        <time>2026-06-28T18:52:42Z</time>
      </trkpt>
      <trkpt lat="43.34054" lon="-1.50163">
        <ele>125</ele>
        <time>2026-06-28T18:52:48Z</time>
      </trkpt>
      <trkpt lat="43.34039" lon="-1.502">
        <ele>123</ele>
        <time>2026-06-28T18:52:53Z</time>
      </trkpt>
      <trkpt lat="43.34029" lon="-1.50238">
        <ele>122</ele>
        <time>2026-06-28T18:52:58Z</time>
      </trkpt>
      <trkpt lat="43.34013" lon="-1.50331">
        <ele>123</ele>
        <time>2026-06-28T18:53:11Z</time>
      </trkpt>
      <trkpt lat="43.34009" lon="-1.50372">
        <ele>121</ele>
        <time>2026-06-28T18:53:16Z</time>
      </trkpt>
      <trkpt lat="43.34011" lon="-1.50441">
        <ele>119</ele>
        <time>2026-06-28T18:53:25Z</time>
      </trkpt>
      <trkpt lat="43.34019" lon="-1.50525">
        <ele>117</ele>
        <time>2026-06-28T18:53:36Z</time>
      </trkpt>
      <trkpt lat="43.34018" lon="-1.50545">
        <ele>117</ele>
        <time>2026-06-28T18:53:39Z</time>
      </trkpt>
      <trkpt lat="43.34014" lon="-1.50564">
        <ele>118</ele>
        <time>2026-06-28T18:53:41Z</time>
      </trkpt>
      <trkpt lat="43.34003" lon="-1.50585">
        <ele>119</ele>
        <time>2026-06-28T18:53:44Z</time>
      </trkpt>
      <trkpt lat="43.33993" lon="-1.50596">
        <ele>118</ele>
        <time>2026-06-28T18:53:47Z</time>
      </trkpt>
      <trkpt lat="43.33984" lon="-1.50604">
        <ele>116</ele>
        <time>2026-06-28T18:53:49Z</time>
      </trkpt>
      <trkpt lat="43.33947" lon="-1.50622">
        <ele>112</ele>
        <time>2026-06-28T18:53:56Z</time>
      </trkpt>
      <trkpt lat="43.33941" lon="-1.50624">
        <ele>112</ele>
        <time>2026-06-28T18:53:57Z</time>
      </trkpt>
      <trkpt lat="43.33921" lon="-1.50625">
        <ele>111</ele>
        <time>2026-06-28T18:54:00Z</time>
      </trkpt>
      <trkpt lat="43.33907" lon="-1.5063">
        <ele>109</ele>
        <time>2026-06-28T18:54:03Z</time>
      </trkpt>
      <trkpt lat="43.33901" lon="-1.50634">
        <ele>108</ele>
        <time>2026-06-28T18:54:04Z</time>
      </trkpt>
      <trkpt lat="43.3389" lon="-1.50648">
        <ele>107</ele>
        <time>2026-06-28T18:54:07Z</time>
      </trkpt>
      <trkpt lat="43.33877" lon="-1.50686">
        <ele>105</ele>
        <time>2026-06-28T18:54:12Z</time>
      </trkpt>
      <trkpt lat="43.3384" lon="-1.50815">
        <ele>103</ele>
        <time>2026-06-28T18:54:30Z</time>
      </trkpt>
      <trkpt lat="43.33835" lon="-1.50852">
        <ele>102</ele>
        <time>2026-06-28T18:54:35Z</time>
      </trkpt>
      <trkpt lat="43.33835" lon="-1.50909">
        <ele>97</ele>
        <time>2026-06-28T18:54:42Z</time>
      </trkpt>
      <trkpt lat="43.33831" lon="-1.50923">
        <ele>96</ele>
        <time>2026-06-28T18:54:44Z</time>
      </trkpt>
      <trkpt lat="43.33823" lon="-1.50934">
        <ele>94</ele>
        <time>2026-06-28T18:54:46Z</time>
      </trkpt>
      <trkpt lat="43.33813" lon="-1.50937">
        <ele>92</ele>
        <time>2026-06-28T18:54:48Z</time>
      </trkpt>
      <trkpt lat="43.33806" lon="-1.50936">
        <ele>91</ele>
        <time>2026-06-28T18:54:49Z</time>
      </trkpt>
      <trkpt lat="43.33788" lon="-1.5093">
        <ele>88</ele>
        <time>2026-06-28T18:54:53Z</time>
      </trkpt>
      <trkpt lat="43.3377" lon="-1.50918">
        <ele>86</ele>
        <time>2026-06-28T18:54:56Z</time>
      </trkpt>
      <trkpt lat="43.33752" lon="-1.509">
        <ele>84</ele>
        <time>2026-06-28T18:55:00Z</time>
      </trkpt>
      <trkpt lat="43.33743" lon="-1.50883">
        <ele>83</ele>
        <time>2026-06-28T18:55:03Z</time>
      </trkpt>
      <trkpt lat="43.33739" lon="-1.50873">
        <ele>83</ele>
        <time>2026-06-28T18:55:04Z</time>
      </trkpt>
      <trkpt lat="43.33734" lon="-1.5085">
        <ele>83</ele>
        <time>2026-06-28T18:55:07Z</time>
      </trkpt>
      <trkpt lat="43.33732" lon="-1.50815">
        <ele>83</ele>
        <time>2026-06-28T18:55:12Z</time>
      </trkpt>
      <trkpt lat="43.33736" lon="-1.50775">
        <ele>85</ele>
        <time>2026-06-28T18:55:17Z</time>
      </trkpt>
      <trkpt lat="43.33735" lon="-1.50765">
        <ele>84</ele>
        <time>2026-06-28T18:55:19Z</time>
      </trkpt>
      <trkpt lat="43.33729" lon="-1.50748">
        <ele>83</ele>
        <time>2026-06-28T18:55:21Z</time>
      </trkpt>
      <trkpt lat="43.33706" lon="-1.50717">
        <ele>78</ele>
        <time>2026-06-28T18:55:27Z</time>
      </trkpt>
      <trkpt lat="43.33672" lon="-1.50666">
        <ele>72</ele>
        <time>2026-06-28T18:55:36Z</time>
      </trkpt>
      <trkpt lat="43.33658" lon="-1.50649">
        <ele>71</ele>
        <time>2026-06-28T18:55:39Z</time>
      </trkpt>
      <trkpt lat="43.33646" lon="-1.50643">
        <ele>71</ele>
        <time>2026-06-28T18:55:41Z</time>
      </trkpt>
      <trkpt lat="43.3363" lon="-1.50641">
        <ele>71</ele>
        <time>2026-06-28T18:55:44Z</time>
      </trkpt>
      <trkpt lat="43.3362" lon="-1.50643">
        <ele>71</ele>
        <time>2026-06-28T18:55:46Z</time>
      </trkpt>
      <trkpt lat="43.33614" lon="-1.50648">
        <ele>71</ele>
        <time>2026-06-28T18:55:47Z</time>
      </trkpt>
      <trkpt lat="43.33609" lon="-1.50664">
        <ele>70</ele>
        <time>2026-06-28T18:55:49Z</time>
      </trkpt>
      <trkpt lat="43.33602" lon="-1.50727">
        <ele>64</ele>
        <time>2026-06-28T18:55:58Z</time>
      </trkpt>
      <trkpt lat="43.33592" lon="-1.50745">
        <ele>61</ele>
        <time>2026-06-28T18:56:01Z</time>
      </trkpt>
      <trkpt lat="43.33591" lon="-1.50764">
        <ele>60</ele>
        <time>2026-06-28T18:56:03Z</time>
      </trkpt>
      <trkpt lat="43.3363" lon="-1.51064">
        <ele>54</ele>
        <time>2026-06-28T18:56:43Z</time>
      </trkpt>
      <trkpt lat="43.33639" lon="-1.51126">
        <ele>53</ele>
        <time>2026-06-28T18:56:51Z</time>
      </trkpt>
      <trkpt lat="43.33656" lon="-1.51188">
        <ele>51</ele>
        <time>2026-06-28T18:56:59Z</time>
      </trkpt>
      <trkpt lat="43.33738" lon="-1.51454">
        <ele>48</ele>
        <time>2026-06-28T18:57:37Z</time>
      </trkpt>
      <trkpt lat="43.33761" lon="-1.51522">
        <ele>47</ele>
        <time>2026-06-28T18:57:46Z</time>
      </trkpt>
      <trkpt lat="43.33799" lon="-1.51616">
        <ele>46</ele>
        <time>2026-06-28T18:58:00Z</time>
      </trkpt>
      <trkpt lat="43.34063" lon="-1.5224">
        <ele>43</ele>
        <time>2026-06-28T18:59:34Z</time>
      </trkpt>
      <trkpt lat="43.34076" lon="-1.52276">
        <ele>42</ele>
        <time>2026-06-28T18:59:39Z</time>
      </trkpt>
      <trkpt lat="43.34089" lon="-1.52298">
        <ele>42</ele>
        <time>2026-06-28T18:59:43Z</time>
      </trkpt>
      <trkpt lat="43.34098" lon="-1.52324">
        <ele>43</ele>
        <time>2026-06-28T18:59:46Z</time>
      </trkpt>
      <trkpt lat="43.34141" lon="-1.52421">
        <ele>42</ele>
        <time>2026-06-28T19:00:01Z</time>
      </trkpt>
      <trkpt lat="43.34175" lon="-1.52494">
        <ele>42</ele>
        <time>2026-06-28T19:00:12Z</time>
      </trkpt>
      <trkpt lat="43.34198" lon="-1.52536">
        <ele>43</ele>
        <time>2026-06-28T19:00:19Z</time>
      </trkpt>
      <trkpt lat="43.3428" lon="-1.52666">
        <ele>40</ele>
        <time>2026-06-28T19:00:41Z</time>
      </trkpt>
      <trkpt lat="43.34324" lon="-1.52743">
        <ele>36</ele>
        <time>2026-06-28T19:00:54Z</time>
      </trkpt>
      <trkpt lat="43.34333" lon="-1.52754">
        <ele>35</ele>
        <time>2026-06-28T19:00:56Z</time>
      </trkpt>
      <trkpt lat="43.34349" lon="-1.52765">
        <ele>35</ele>
        <time>2026-06-28T19:00:59Z</time>
      </trkpt>
      <trkpt lat="43.34352" lon="-1.52771">
        <ele>35</ele>
        <time>2026-06-28T19:01:00Z</time>
      </trkpt>
      <trkpt lat="43.34363" lon="-1.52811">
        <ele>35</ele>
        <time>2026-06-28T19:01:06Z</time>
      </trkpt>
      <trkpt lat="43.34417" lon="-1.529">
        <ele>35</ele>
        <time>2026-06-28T19:01:21Z</time>
      </trkpt>
      <trkpt lat="43.34433" lon="-1.52933">
        <ele>36</ele>
        <time>2026-06-28T19:01:26Z</time>
      </trkpt>
      <trkpt lat="43.34446" lon="-1.52967">
        <ele>37</ele>
        <time>2026-06-28T19:01:31Z</time>
      </trkpt>
      <trkpt lat="43.34459" lon="-1.5303">
        <ele>39</ele>
        <time>2026-06-28T19:01:39Z</time>
      </trkpt>
      <trkpt lat="43.34495" lon="-1.53427">
        <ele>43</ele>
        <time>2026-06-28T19:02:31Z</time>
      </trkpt>
      <trkpt lat="43.34506" lon="-1.53522">
        <ele>42</ele>
        <time>2026-06-28T19:02:44Z</time>
      </trkpt>
      <trkpt lat="43.34535" lon="-1.53714">
        <ele>40</ele>
        <time>2026-06-28T19:03:09Z</time>
      </trkpt>
      <trkpt lat="43.34561" lon="-1.53817">
        <ele>39</ele>
        <time>2026-06-28T19:03:23Z</time>
      </trkpt>
      <trkpt lat="43.34569" lon="-1.53859">
        <ele>38</ele>
        <time>2026-06-28T19:03:29Z</time>
      </trkpt>
      <trkpt lat="43.34573" lon="-1.53893">
        <ele>36</ele>
        <time>2026-06-28T19:03:33Z</time>
      </trkpt>
      <trkpt lat="43.34574" lon="-1.53962">
        <ele>35</ele>
        <time>2026-06-28T19:03:42Z</time>
      </trkpt>
      <trkpt lat="43.34579" lon="-1.53997">
        <ele>35</ele>
        <time>2026-06-28T19:03:47Z</time>
      </trkpt>
      <trkpt lat="43.34584" lon="-1.5402">
        <ele>34</ele>
        <time>2026-06-28T19:03:50Z</time>
      </trkpt>
      <trkpt lat="43.34595" lon="-1.54054">
        <ele>35</ele>
        <time>2026-06-28T19:03:55Z</time>
      </trkpt>
      <trkpt lat="43.34604" lon="-1.54074">
        <ele>36</ele>
        <time>2026-06-28T19:03:58Z</time>
      </trkpt>
      <trkpt lat="43.34647" lon="-1.54155">
        <ele>38</ele>
        <time>2026-06-28T19:04:11Z</time>
      </trkpt>
      <trkpt lat="43.3466" lon="-1.54187">
        <ele>39</ele>
        <time>2026-06-28T19:04:15Z</time>
      </trkpt>
      <trkpt lat="43.34669" lon="-1.54219">
        <ele>38</ele>
        <time>2026-06-28T19:04:20Z</time>
      </trkpt>
      <trkpt lat="43.34675" lon="-1.54251">
        <ele>36</ele>
        <time>2026-06-28T19:04:24Z</time>
      </trkpt>
      <trkpt lat="43.34678" lon="-1.54282">
        <ele>36</ele>
        <time>2026-06-28T19:04:28Z</time>
      </trkpt>
      <trkpt lat="43.34683" lon="-1.54428">
        <ele>31</ele>
        <time>2026-06-28T19:04:47Z</time>
      </trkpt>
      <trkpt lat="43.34689" lon="-1.54457">
        <ele>30</ele>
        <time>2026-06-28T19:04:51Z</time>
      </trkpt>
      <trkpt lat="43.34702" lon="-1.54496">
        <ele>28</ele>
        <time>2026-06-28T19:04:56Z</time>
      </trkpt>
      <trkpt lat="43.3471" lon="-1.54514">
        <ele>28</ele>
        <time>2026-06-28T19:04:59Z</time>
      </trkpt>
      <trkpt lat="43.34725" lon="-1.54539">
        <ele>28</ele>
        <time>2026-06-28T19:05:03Z</time>
      </trkpt>
      <trkpt lat="43.34848" lon="-1.54735">
        <ele>25</ele>
        <time>2026-06-28T19:05:37Z</time>
      </trkpt>
      <trkpt lat="43.34873" lon="-1.54773">
        <ele>25</ele>
        <time>2026-06-28T19:05:44Z</time>
      </trkpt>
      <trkpt lat="43.34896" lon="-1.54801">
        <ele>24</ele>
        <time>2026-06-28T19:05:49Z</time>
      </trkpt>
      <trkpt lat="43.34922" lon="-1.54824">
        <ele>23</ele>
        <time>2026-06-28T19:05:54Z</time>
      </trkpt>
      <trkpt lat="43.34943" lon="-1.54837">
        <ele>23</ele>
        <time>2026-06-28T19:05:59Z</time>
      </trkpt>
      <trkpt lat="43.35068" lon="-1.54905">
        <ele>21</ele>
        <time>2026-06-28T19:06:22Z</time>
      </trkpt>
      <trkpt lat="43.35085" lon="-1.54915">
        <ele>20</ele>
        <time>2026-06-28T19:06:26Z</time>
      </trkpt>
      <trkpt lat="43.35104" lon="-1.54931">
        <ele>19</ele>
        <time>2026-06-28T19:06:30Z</time>
      </trkpt>
      <trkpt lat="43.35118" lon="-1.54934">
        <ele>19</ele>
        <time>2026-06-28T19:06:32Z</time>
      </trkpt>
      <trkpt lat="43.35122" lon="-1.54937">
        <ele>19</ele>
        <time>2026-06-28T19:06:33Z</time>
      </trkpt>
      <trkpt lat="43.3513" lon="-1.54945">
        <ele>18</ele>
        <time>2026-06-28T19:06:35Z</time>
      </trkpt>
      <trkpt lat="43.35135" lon="-1.54959">
        <ele>18</ele>
        <time>2026-06-28T19:06:37Z</time>
      </trkpt>
      <trkpt lat="43.35135" lon="-1.54993">
        <ele>17</ele>
        <time>2026-06-28T19:06:41Z</time>
      </trkpt>
      <trkpt lat="43.3514" lon="-1.5501">
        <ele>17</ele>
        <time>2026-06-28T19:06:44Z</time>
      </trkpt>
      <trkpt lat="43.35153" lon="-1.55044">
        <ele>17</ele>
        <time>2026-06-28T19:06:49Z</time>
      </trkpt>
      <trkpt lat="43.35265" lon="-1.55297">
        <ele>17</ele>
        <time>2026-06-28T19:07:27Z</time>
      </trkpt>
      <trkpt lat="43.3528" lon="-1.55324">
        <ele>18</ele>
        <time>2026-06-28T19:07:31Z</time>
      </trkpt>
      <trkpt lat="43.35294" lon="-1.5534">
        <ele>17</ele>
        <time>2026-06-28T19:07:35Z</time>
      </trkpt>
      <trkpt lat="43.3531" lon="-1.55355">
        <ele>17</ele>
        <time>2026-06-28T19:07:38Z</time>
      </trkpt>
      <trkpt lat="43.35327" lon="-1.55367">
        <ele>17</ele>
        <time>2026-06-28T19:07:41Z</time>
      </trkpt>
      <trkpt lat="43.35346" lon="-1.55375">
        <ele>16</ele>
        <time>2026-06-28T19:07:45Z</time>
      </trkpt>
      <trkpt lat="43.35364" lon="-1.55379">
        <ele>16</ele>
        <time>2026-06-28T19:07:48Z</time>
      </trkpt>
      <trkpt lat="43.35392" lon="-1.55378">
        <ele>16</ele>
        <time>2026-06-28T19:07:53Z</time>
      </trkpt>
      <trkpt lat="43.35474" lon="-1.55367">
        <ele>16</ele>
        <time>2026-06-28T19:08:08Z</time>
      </trkpt>
      <trkpt lat="43.35501" lon="-1.5537">
        <ele>16</ele>
        <time>2026-06-28T19:08:13Z</time>
      </trkpt>
      <trkpt lat="43.35516" lon="-1.55376">
        <ele>16</ele>
        <time>2026-06-28T19:08:15Z</time>
      </trkpt>
      <trkpt lat="43.35539" lon="-1.55392">
        <ele>16</ele>
        <time>2026-06-28T19:08:20Z</time>
      </trkpt>
      <trkpt lat="43.35552" lon="-1.55396">
        <ele>16</ele>
        <time>2026-06-28T19:08:22Z</time>
      </trkpt>
      <trkpt lat="43.35557" lon="-1.55399">
        <ele>16</ele>
        <time>2026-06-28T19:08:23Z</time>
      </trkpt>
      <trkpt lat="43.35565" lon="-1.55409">
        <ele>16</ele>
        <time>2026-06-28T19:08:25Z</time>
      </trkpt>
      <trkpt lat="43.35568" lon="-1.55417">
        <ele>16</ele>
        <time>2026-06-28T19:08:26Z</time>
      </trkpt>
      <trkpt lat="43.35581" lon="-1.55471">
        <ele>14</ele>
        <time>2026-06-28T19:08:34Z</time>
      </trkpt>
      <trkpt lat="43.35586" lon="-1.55503">
        <ele>13</ele>
        <time>2026-06-28T19:08:38Z</time>
      </trkpt>
      <trkpt lat="43.35588" lon="-1.5556">
        <ele>15</ele>
        <time>2026-06-28T19:08:45Z</time>
      </trkpt>
      <trkpt lat="43.35591" lon="-1.55767">
        <ele>16</ele>
        <time>2026-06-28T19:09:12Z</time>
      </trkpt>
      <trkpt lat="43.35595" lon="-1.55803">
        <ele>16</ele>
        <time>2026-06-28T19:09:17Z</time>
      </trkpt>
      <trkpt lat="43.35604" lon="-1.55835">
        <ele>15</ele>
        <time>2026-06-28T19:09:21Z</time>
      </trkpt>
      <trkpt lat="43.35611" lon="-1.55854">
        <ele>15</ele>
        <time>2026-06-28T19:09:24Z</time>
      </trkpt>
      <trkpt lat="43.35619" lon="-1.5587">
        <ele>15</ele>
        <time>2026-06-28T19:09:27Z</time>
      </trkpt>
      <trkpt lat="43.35628" lon="-1.55883">
        <ele>15</ele>
        <time>2026-06-28T19:09:29Z</time>
      </trkpt>
      <trkpt lat="43.35641" lon="-1.559">
        <ele>16</ele>
        <time>2026-06-28T19:09:32Z</time>
      </trkpt>
      <trkpt lat="43.35731" lon="-1.55973">
        <ele>16</ele>
        <time>2026-06-28T19:09:51Z</time>
      </trkpt>
      <trkpt lat="43.3574" lon="-1.55977">
        <ele>17</ele>
        <time>2026-06-28T19:09:52Z</time>
      </trkpt>
      <trkpt lat="43.35752" lon="-1.55976">
        <ele>17</ele>
        <time>2026-06-28T19:09:55Z</time>
      </trkpt>
      <trkpt lat="43.3576" lon="-1.55977">
        <ele>18</ele>
        <time>2026-06-28T19:09:56Z</time>
      </trkpt>
      <trkpt lat="43.35767" lon="-1.55983">
        <ele>18</ele>
        <time>2026-06-28T19:09:57Z</time>
      </trkpt>
      <trkpt lat="43.3577" lon="-1.55995">
        <ele>18</ele>
        <time>2026-06-28T19:09:59Z</time>
      </trkpt>
      <trkpt lat="43.35768" lon="-1.56007">
        <ele>19</ele>
        <time>2026-06-28T19:10:01Z</time>
      </trkpt>
      <trkpt lat="43.35761" lon="-1.56017">
        <ele>19</ele>
        <time>2026-06-28T19:10:02Z</time>
      </trkpt>
      <trkpt lat="43.35745" lon="-1.56026">
        <ele>19</ele>
        <time>2026-06-28T19:10:06Z</time>
      </trkpt>
      <trkpt lat="43.35719" lon="-1.56049">
        <ele>19</ele>
        <time>2026-06-28T19:10:11Z</time>
      </trkpt>
      <trkpt lat="43.35671" lon="-1.56079">
        <ele>18</ele>
        <time>2026-06-28T19:10:20Z</time>
      </trkpt>
      <trkpt lat="43.35654" lon="-1.56094">
        <ele>18</ele>
        <time>2026-06-28T19:10:24Z</time>
      </trkpt>
      <trkpt lat="43.35643" lon="-1.56108">
        <ele>18</ele>
        <time>2026-06-28T19:10:27Z</time>
      </trkpt>
      <trkpt lat="43.35634" lon="-1.56124">
        <ele>18</ele>
        <time>2026-06-28T19:10:29Z</time>
      </trkpt>
      <trkpt lat="43.35625" lon="-1.56152">
        <ele>19</ele>
        <time>2026-06-28T19:10:33Z</time>
      </trkpt>
      <trkpt lat="43.35622" lon="-1.56173">
        <ele>19</ele>
        <time>2026-06-28T19:10:36Z</time>
      </trkpt>
      <trkpt lat="43.3562" lon="-1.56205">
        <ele>19</ele>
        <time>2026-06-28T19:10:40Z</time>
      </trkpt>
      <trkpt lat="43.35627" lon="-1.56481">
        <ele>19</ele>
        <time>2026-06-28T19:11:16Z</time>
      </trkpt>
      <trkpt lat="43.35627" lon="-1.56548">
        <ele>19</ele>
        <time>2026-06-28T19:11:25Z</time>
      </trkpt>
      <trkpt lat="43.3563" lon="-1.56574">
        <ele>19</ele>
        <time>2026-06-28T19:11:28Z</time>
      </trkpt>
      <trkpt lat="43.35638" lon="-1.56595">
        <ele>19</ele>
        <time>2026-06-28T19:11:31Z</time>
      </trkpt>
      <trkpt lat="43.35639" lon="-1.56603">
        <ele>19</ele>
        <time>2026-06-28T19:11:32Z</time>
      </trkpt>
      <trkpt lat="43.35631" lon="-1.56634">
        <ele>19</ele>
        <time>2026-06-28T19:11:36Z</time>
      </trkpt>
      <trkpt lat="43.3562" lon="-1.56699">
        <ele>19</ele>
        <time>2026-06-28T19:11:45Z</time>
      </trkpt>
      <trkpt lat="43.35608" lon="-1.56742">
        <ele>18</ele>
        <time>2026-06-28T19:11:51Z</time>
      </trkpt>
      <trkpt lat="43.35594" lon="-1.56787">
        <ele>17</ele>
        <time>2026-06-28T19:11:57Z</time>
      </trkpt>
      <trkpt lat="43.3559" lon="-1.56821">
        <ele>17</ele>
        <time>2026-06-28T19:12:02Z</time>
      </trkpt>
      <trkpt lat="43.35592" lon="-1.56839">
        <ele>17</ele>
        <time>2026-06-28T19:12:04Z</time>
      </trkpt>
      <trkpt lat="43.35599" lon="-1.56864">
        <ele>17</ele>
        <time>2026-06-28T19:12:08Z</time>
      </trkpt>
      <trkpt lat="43.35611" lon="-1.56889">
        <ele>17</ele>
        <time>2026-06-28T19:12:11Z</time>
      </trkpt>
      <trkpt lat="43.35625" lon="-1.56912">
        <ele>17</ele>
        <time>2026-06-28T19:12:15Z</time>
      </trkpt>
      <trkpt lat="43.35641" lon="-1.56944">
        <ele>17</ele>
        <time>2026-06-28T19:12:20Z</time>
      </trkpt>
      <trkpt lat="43.35672" lon="-1.57014">
        <ele>15</ele>
        <time>2026-06-28T19:12:31Z</time>
      </trkpt>
      <trkpt lat="43.35716" lon="-1.57107">
        <ele>15</ele>
        <time>2026-06-28T19:12:45Z</time>
      </trkpt>
      <trkpt lat="43.35733" lon="-1.57149">
        <ele>15</ele>
        <time>2026-06-28T19:12:52Z</time>
      </trkpt>
      <trkpt lat="43.35741" lon="-1.57173">
        <ele>15</ele>
        <time>2026-06-28T19:12:55Z</time>
      </trkpt>
      <trkpt lat="43.35749" lon="-1.57225">
        <ele>14</ele>
        <time>2026-06-28T19:13:02Z</time>
      </trkpt>
      <trkpt lat="43.35767" lon="-1.57412">
        <ele>13</ele>
        <time>2026-06-28T19:13:26Z</time>
      </trkpt>
      <trkpt lat="43.35771" lon="-1.57429">
        <ele>13</ele>
        <time>2026-06-28T19:13:29Z</time>
      </trkpt>
      <trkpt lat="43.35777" lon="-1.57443">
        <ele>13</ele>
        <time>2026-06-28T19:13:31Z</time>
      </trkpt>
      <trkpt lat="43.35784" lon="-1.57455">
        <ele>13</ele>
        <time>2026-06-28T19:13:33Z</time>
      </trkpt>
      <trkpt lat="43.35788" lon="-1.5747">
        <ele>13</ele>
        <time>2026-06-28T19:13:35Z</time>
      </trkpt>
      <trkpt lat="43.35784" lon="-1.57506">
        <ele>13</ele>
        <time>2026-06-28T19:13:39Z</time>
      </trkpt>
      <trkpt lat="43.35784" lon="-1.57536">
        <ele>13</ele>
        <time>2026-06-28T19:13:43Z</time>
      </trkpt>
      <trkpt lat="43.35786" lon="-1.57567">
        <ele>13</ele>
        <time>2026-06-28T19:13:47Z</time>
      </trkpt>
      <trkpt lat="43.35789" lon="-1.57599">
        <ele>13</ele>
        <time>2026-06-28T19:13:51Z</time>
      </trkpt>
      <trkpt lat="43.35821" lon="-1.57764">
        <ele>12</ele>
        <time>2026-06-28T19:14:14Z</time>
      </trkpt>
      <trkpt lat="43.35839" lon="-1.57851">
        <ele>11</ele>
        <time>2026-06-28T19:14:25Z</time>
      </trkpt>
      <trkpt lat="43.3585" lon="-1.5789">
        <ele>12</ele>
        <time>2026-06-28T19:14:31Z</time>
      </trkpt>
      <trkpt lat="43.35859" lon="-1.57916">
        <ele>12</ele>
        <time>2026-06-28T19:14:34Z</time>
      </trkpt>
      <trkpt lat="43.35875" lon="-1.5795">
        <ele>12</ele>
        <time>2026-06-28T19:14:40Z</time>
      </trkpt>
      <trkpt lat="43.35893" lon="-1.57982">
        <ele>11</ele>
        <time>2026-06-28T19:14:45Z</time>
      </trkpt>
      <trkpt lat="43.36089" lon="-1.58266">
        <ele>12</ele>
        <time>2026-06-28T19:15:36Z</time>
      </trkpt>
      <trkpt lat="43.36116" lon="-1.58308">
        <ele>12</ele>
        <time>2026-06-28T19:15:43Z</time>
      </trkpt>
      <trkpt lat="43.3613" lon="-1.58335">
        <ele>12</ele>
        <time>2026-06-28T19:15:47Z</time>
      </trkpt>
      <trkpt lat="43.36151" lon="-1.58382">
        <ele>12</ele>
        <time>2026-06-28T19:15:54Z</time>
      </trkpt>
      <trkpt lat="43.36163" lon="-1.58414">
        <ele>12</ele>
        <time>2026-06-28T19:15:59Z</time>
      </trkpt>
      <trkpt lat="43.36257" lon="-1.58706">
        <ele>14</ele>
        <time>2026-06-28T19:16:40Z</time>
      </trkpt>
      <trkpt lat="43.36275" lon="-1.58746">
        <ele>18</ele>
        <time>2026-06-28T19:16:46Z</time>
      </trkpt>
      <trkpt lat="43.36292" lon="-1.58773">
        <ele>20</ele>
        <time>2026-06-28T19:16:51Z</time>
      </trkpt>
      <trkpt lat="43.36311" lon="-1.58797">
        <ele>20</ele>
        <time>2026-06-28T19:16:55Z</time>
      </trkpt>
      <trkpt lat="43.36338" lon="-1.58825">
        <ele>19</ele>
        <time>2026-06-28T19:17:01Z</time>
      </trkpt>
      <trkpt lat="43.36403" lon="-1.58883">
        <ele>17</ele>
        <time>2026-06-28T19:17:15Z</time>
      </trkpt>
      <trkpt lat="43.36416" lon="-1.58897">
        <ele>16</ele>
        <time>2026-06-28T19:17:18Z</time>
      </trkpt>
      <trkpt lat="43.3644" lon="-1.58927">
        <ele>12</ele>
        <time>2026-06-28T19:17:24Z</time>
      </trkpt>
      <trkpt lat="43.36455" lon="-1.58954">
        <ele>12</ele>
        <time>2026-06-28T19:17:28Z</time>
      </trkpt>
      <trkpt lat="43.36464" lon="-1.58974">
        <ele>11</ele>
        <time>2026-06-28T19:17:31Z</time>
      </trkpt>
      <trkpt lat="43.36479" lon="-1.59017">
        <ele>10</ele>
        <time>2026-06-28T19:17:38Z</time>
      </trkpt>
      <trkpt lat="43.3658" lon="-1.59354">
        <ele>9</ele>
        <time>2026-06-28T19:18:25Z</time>
      </trkpt>
      <trkpt lat="43.36591" lon="-1.59407">
        <ele>9</ele>
        <time>2026-06-28T19:18:32Z</time>
      </trkpt>
      <trkpt lat="43.36595" lon="-1.59448">
        <ele>10</ele>
        <time>2026-06-28T19:18:37Z</time>
      </trkpt>
      <trkpt lat="43.36597" lon="-1.59501">
        <ele>10</ele>
        <time>2026-06-28T19:18:44Z</time>
      </trkpt>
      <trkpt lat="43.36573" lon="-1.59803">
        <ele>19</ele>
        <time>2026-06-28T19:19:23Z</time>
      </trkpt>
      <trkpt lat="43.36566" lon="-1.59845">
        <ele>19</ele>
        <time>2026-06-28T19:19:29Z</time>
      </trkpt>
      <trkpt lat="43.36554" lon="-1.59873">
        <ele>18</ele>
        <time>2026-06-28T19:19:33Z</time>
      </trkpt>
      <trkpt lat="43.36545" lon="-1.59888">
        <ele>17</ele>
        <time>2026-06-28T19:19:36Z</time>
      </trkpt>
      <trkpt lat="43.36528" lon="-1.59907">
        <ele>15</ele>
        <time>2026-06-28T19:19:40Z</time>
      </trkpt>
      <trkpt lat="43.3646" lon="-1.59961">
        <ele>15</ele>
        <time>2026-06-28T19:19:54Z</time>
      </trkpt>
      <trkpt lat="43.36428" lon="-1.59994">
        <ele>14</ele>
        <time>2026-06-28T19:20:01Z</time>
      </trkpt>
      <trkpt lat="43.36404" lon="-1.60027">
        <ele>15</ele>
        <time>2026-06-28T19:20:07Z</time>
      </trkpt>
      <trkpt lat="43.36379" lon="-1.60071">
        <ele>16</ele>
        <time>2026-06-28T19:20:14Z</time>
      </trkpt>
      <trkpt lat="43.3634" lon="-1.60171">
        <ele>18</ele>
        <time>2026-06-28T19:20:29Z</time>
      </trkpt>
      <trkpt lat="43.36322" lon="-1.60203">
        <ele>21</ele>
        <time>2026-06-28T19:20:34Z</time>
      </trkpt>
      <trkpt lat="43.36295" lon="-1.60237">
        <ele>22</ele>
        <time>2026-06-28T19:20:40Z</time>
      </trkpt>
      <trkpt lat="43.36223" lon="-1.60299">
        <ele>17</ele>
        <time>2026-06-28T19:20:55Z</time>
      </trkpt>
      <trkpt lat="43.36193" lon="-1.60327">
        <ele>15</ele>
        <time>2026-06-28T19:21:02Z</time>
      </trkpt>
      <trkpt lat="43.3617" lon="-1.60351">
        <ele>14</ele>
        <time>2026-06-28T19:21:07Z</time>
      </trkpt>
      <trkpt lat="43.36155" lon="-1.60371">
        <ele>15</ele>
        <time>2026-06-28T19:21:11Z</time>
      </trkpt>
      <trkpt lat="43.3614" lon="-1.60394">
        <ele>16</ele>
        <time>2026-06-28T19:21:15Z</time>
      </trkpt>
      <trkpt lat="43.36123" lon="-1.60438">
        <ele>17</ele>
        <time>2026-06-28T19:21:21Z</time>
      </trkpt>
      <trkpt lat="43.36111" lon="-1.60485">
        <ele>18</ele>
        <time>2026-06-28T19:21:28Z</time>
      </trkpt>
      <trkpt lat="43.36108" lon="-1.60523">
        <ele>19</ele>
        <time>2026-06-28T19:21:33Z</time>
      </trkpt>
      <trkpt lat="43.36108" lon="-1.60572">
        <ele>19</ele>
        <time>2026-06-28T19:21:39Z</time>
      </trkpt>
      <trkpt lat="43.36122" lon="-1.60702">
        <ele>19</ele>
        <time>2026-06-28T19:21:56Z</time>
      </trkpt>
      <trkpt lat="43.36124" lon="-1.60736">
        <ele>19</ele>
        <time>2026-06-28T19:22:00Z</time>
      </trkpt>
      <trkpt lat="43.36118" lon="-1.60846">
        <ele>17</ele>
        <time>2026-06-28T19:22:15Z</time>
      </trkpt>
      <trkpt lat="43.36115" lon="-1.60958">
        <ele>18</ele>
        <time>2026-06-28T19:22:29Z</time>
      </trkpt>
      <trkpt lat="43.36108" lon="-1.61076">
        <ele>16</ele>
        <time>2026-06-28T19:22:44Z</time>
      </trkpt>
      <trkpt lat="43.36103" lon="-1.6111">
        <ele>15</ele>
        <time>2026-06-28T19:22:49Z</time>
      </trkpt>
      <trkpt lat="43.36089" lon="-1.61166">
        <ele>13</ele>
        <time>2026-06-28T19:22:57Z</time>
      </trkpt>
      <trkpt lat="43.36072" lon="-1.61209">
        <ele>11</ele>
        <time>2026-06-28T19:23:03Z</time>
      </trkpt>
      <trkpt lat="43.36057" lon="-1.61239">
        <ele>11</ele>
        <time>2026-06-28T19:23:08Z</time>
      </trkpt>
      <trkpt lat="43.36046" lon="-1.61259">
        <ele>11</ele>
        <time>2026-06-28T19:23:11Z</time>
      </trkpt>
      <trkpt lat="43.36021" lon="-1.61294">
        <ele>11</ele>
        <time>2026-06-28T19:23:17Z</time>
      </trkpt>
      <trkpt lat="43.35925" lon="-1.61415">
        <ele>16</ele>
        <time>2026-06-28T19:23:40Z</time>
      </trkpt>
      <trkpt lat="43.35904" lon="-1.61435">
        <ele>18</ele>
        <time>2026-06-28T19:23:45Z</time>
      </trkpt>
      <trkpt lat="43.35832" lon="-1.61492">
        <ele>12</ele>
        <time>2026-06-28T19:24:00Z</time>
      </trkpt>
      <trkpt lat="43.3581" lon="-1.61514">
        <ele>14</ele>
        <time>2026-06-28T19:24:05Z</time>
      </trkpt>
      <trkpt lat="43.35797" lon="-1.61531">
        <ele>15</ele>
        <time>2026-06-28T19:24:08Z</time>
      </trkpt>
      <trkpt lat="43.3569" lon="-1.61696">
        <ele>17</ele>
        <time>2026-06-28T19:24:36Z</time>
      </trkpt>
      <trkpt lat="43.35541" lon="-1.61934">
        <ele>19</ele>
        <time>2026-06-28T19:25:17Z</time>
      </trkpt>
      <trkpt lat="43.35509" lon="-1.61982">
        <ele>19</ele>
        <time>2026-06-28T19:25:25Z</time>
      </trkpt>
      <trkpt lat="43.35492" lon="-1.62003">
        <ele>20</ele>
        <time>2026-06-28T19:25:29Z</time>
      </trkpt>
      <trkpt lat="43.3548" lon="-1.62015">
        <ele>20</ele>
        <time>2026-06-28T19:25:32Z</time>
      </trkpt>
      <trkpt lat="43.35446" lon="-1.62042">
        <ele>22</ele>
        <time>2026-06-28T19:25:39Z</time>
      </trkpt>
      <trkpt lat="43.35412" lon="-1.62063">
        <ele>23</ele>
        <time>2026-06-28T19:25:46Z</time>
      </trkpt>
      <trkpt lat="43.35382" lon="-1.62076">
        <ele>22</ele>
        <time>2026-06-28T19:25:51Z</time>
      </trkpt>
      <trkpt lat="43.35293" lon="-1.6211">
        <ele>18</ele>
        <time>2026-06-28T19:26:08Z</time>
      </trkpt>
      <trkpt lat="43.35272" lon="-1.62117">
        <ele>17</ele>
        <time>2026-06-28T19:26:12Z</time>
      </trkpt>
      <trkpt lat="43.35238" lon="-1.62131">
        <ele>14</ele>
        <time>2026-06-28T19:26:18Z</time>
      </trkpt>
      <trkpt lat="43.35225" lon="-1.62141">
        <ele>14</ele>
        <time>2026-06-28T19:26:21Z</time>
      </trkpt>
      <trkpt lat="43.35194" lon="-1.62173">
        <ele>12</ele>
        <time>2026-06-28T19:26:27Z</time>
      </trkpt>
      <trkpt lat="43.35184" lon="-1.62188">
        <ele>12</ele>
        <time>2026-06-28T19:26:30Z</time>
      </trkpt>
      <trkpt lat="43.3513" lon="-1.62293">
        <ele>12</ele>
        <time>2026-06-28T19:26:47Z</time>
      </trkpt>
      <trkpt lat="43.35117" lon="-1.62322">
        <ele>11</ele>
        <time>2026-06-28T19:26:51Z</time>
      </trkpt>
      <trkpt lat="43.35112" lon="-1.62339">
        <ele>11</ele>
        <time>2026-06-28T19:26:54Z</time>
      </trkpt>
      <trkpt lat="43.35106" lon="-1.62438">
        <ele>11</ele>
        <time>2026-06-28T19:27:06Z</time>
      </trkpt>
      <trkpt lat="43.35109" lon="-1.62476">
        <ele>11</ele>
        <time>2026-06-28T19:27:11Z</time>
      </trkpt>
      <trkpt lat="43.35116" lon="-1.62513">
        <ele>12</ele>
        <time>2026-06-28T19:27:16Z</time>
      </trkpt>
      <trkpt lat="43.35116" lon="-1.62521">
        <ele>12</ele>
        <time>2026-06-28T19:27:17Z</time>
      </trkpt>
      <trkpt lat="43.35113" lon="-1.62527">
        <ele>11</ele>
        <time>2026-06-28T19:27:18Z</time>
      </trkpt>
      <trkpt lat="43.35109" lon="-1.6253">
        <ele>10</ele>
        <time>2026-06-28T19:27:19Z</time>
      </trkpt>
      <trkpt lat="43.35058" lon="-1.62536">
        <ele>6</ele>
        <time>2026-06-28T19:27:28Z</time>
      </trkpt>
      <trkpt lat="43.34973" lon="-1.62526">
        <ele>6</ele>
        <time>2026-06-28T19:27:43Z</time>
      </trkpt>
      <trkpt lat="43.34928" lon="-1.62518">
        <ele>7</ele>
        <time>2026-06-28T19:27:51Z</time>
      </trkpt>
      <trkpt lat="43.3492" lon="-1.6252">
        <ele>7</ele>
        <time>2026-06-28T19:27:53Z</time>
      </trkpt>
      <trkpt lat="43.34918" lon="-1.62529">
        <ele>7</ele>
        <time>2026-06-28T19:27:54Z</time>
      </trkpt>
      <trkpt lat="43.34931" lon="-1.62577">
        <ele>6</ele>
        <time>2026-06-28T19:28:01Z</time>
      </trkpt>
      <trkpt lat="43.34932" lon="-1.6262">
        <ele>4</ele>
        <time>2026-06-28T19:28:06Z</time>
      </trkpt>
      <trkpt lat="43.3493" lon="-1.62643">
        <ele>3</ele>
        <time>2026-06-28T19:28:09Z</time>
      </trkpt>
      <trkpt lat="43.34925" lon="-1.62666">
        <ele>3</ele>
        <time>2026-06-28T19:28:12Z</time>
      </trkpt>
      <trkpt lat="43.34914" lon="-1.6271">
        <ele>4</ele>
        <time>2026-06-28T19:28:18Z</time>
      </trkpt>
      <trkpt lat="43.34909" lon="-1.62739">
        <ele>4</ele>
        <time>2026-06-28T19:28:22Z</time>
      </trkpt>
      <trkpt lat="43.34903" lon="-1.62814">
        <ele>8</ele>
        <time>2026-06-28T19:28:32Z</time>
      </trkpt>
      <trkpt lat="43.34904" lon="-1.62834">
        <ele>9</ele>
        <time>2026-06-28T19:28:35Z</time>
      </trkpt>
      <trkpt lat="43.34911" lon="-1.62872">
        <ele>10</ele>
        <time>2026-06-28T19:28:40Z</time>
      </trkpt>
      <trkpt lat="43.34915" lon="-1.62922">
        <ele>11</ele>
        <time>2026-06-28T19:28:46Z</time>
      </trkpt>
      <trkpt lat="43.3491" lon="-1.62976">
        <ele>14</ele>
        <time>2026-06-28T19:28:53Z</time>
      </trkpt>
      <trkpt lat="43.34912" lon="-1.63009">
        <ele>16</ele>
        <time>2026-06-28T19:28:58Z</time>
      </trkpt>
      <trkpt lat="43.34916" lon="-1.63031">
        <ele>18</ele>
        <time>2026-06-28T19:29:00Z</time>
      </trkpt>
      <trkpt lat="43.34925" lon="-1.6306">
        <ele>19</ele>
        <time>2026-06-28T19:29:05Z</time>
      </trkpt>
      <trkpt lat="43.34935" lon="-1.63074">
        <ele>19</ele>
        <time>2026-06-28T19:29:07Z</time>
      </trkpt>
      <trkpt lat="43.34954" lon="-1.63092">
        <ele>18</ele>
        <time>2026-06-28T19:29:11Z</time>
      </trkpt>
      <trkpt lat="43.35002" lon="-1.63125">
        <ele>16</ele>
        <time>2026-06-28T19:29:21Z</time>
      </trkpt>
      <trkpt lat="43.3511" lon="-1.63206">
        <ele>17</ele>
        <time>2026-06-28T19:29:43Z</time>
      </trkpt>
      <trkpt lat="43.35151" lon="-1.6324">
        <ele>16</ele>
        <time>2026-06-28T19:29:51Z</time>
      </trkpt>
      <trkpt lat="43.35236" lon="-1.63315">
        <ele>18</ele>
        <time>2026-06-28T19:30:09Z</time>
      </trkpt>
      <trkpt lat="43.35287" lon="-1.63369">
        <ele>21</ele>
        <time>2026-06-28T19:30:21Z</time>
      </trkpt>
      <trkpt lat="43.35316" lon="-1.63387">
        <ele>20</ele>
        <time>2026-06-28T19:30:26Z</time>
      </trkpt>
      <trkpt lat="43.35337" lon="-1.63404">
        <ele>20</ele>
        <time>2026-06-28T19:30:31Z</time>
      </trkpt>
      <trkpt lat="43.35378" lon="-1.63452">
        <ele>20</ele>
        <time>2026-06-28T19:30:40Z</time>
      </trkpt>
      <trkpt lat="43.35425" lon="-1.63482">
        <ele>14</ele>
        <time>2026-06-28T19:30:49Z</time>
      </trkpt>
      <trkpt lat="43.35435" lon="-1.63492">
        <ele>14</ele>
        <time>2026-06-28T19:30:52Z</time>
      </trkpt>
      <trkpt lat="43.35445" lon="-1.63503">
        <ele>14</ele>
        <time>2026-06-28T19:30:54Z</time>
      </trkpt>
      <trkpt lat="43.35455" lon="-1.63525">
        <ele>13</ele>
        <time>2026-06-28T19:30:57Z</time>
      </trkpt>
      <trkpt lat="43.35457" lon="-1.63534">
        <ele>13</ele>
        <time>2026-06-28T19:30:58Z</time>
      </trkpt>
      <trkpt lat="43.3546" lon="-1.63552">
        <ele>13</ele>
        <time>2026-06-28T19:31:01Z</time>
      </trkpt>
      <trkpt lat="43.35459" lon="-1.63582">
        <ele>14</ele>
        <time>2026-06-28T19:31:05Z</time>
      </trkpt>
      <trkpt lat="43.35448" lon="-1.63657">
        <ele>13</ele>
        <time>2026-06-28T19:31:15Z</time>
      </trkpt>
      <trkpt lat="43.35446" lon="-1.63693">
        <ele>12</ele>
        <time>2026-06-28T19:31:19Z</time>
      </trkpt>
      <trkpt lat="43.35446" lon="-1.63777">
        <ele>7</ele>
        <time>2026-06-28T19:31:30Z</time>
      </trkpt>
      <trkpt lat="43.35448" lon="-1.63796">
        <ele>7</ele>
        <time>2026-06-28T19:31:33Z</time>
      </trkpt>
      <trkpt lat="43.35452" lon="-1.63813">
        <ele>6</ele>
        <time>2026-06-28T19:31:35Z</time>
      </trkpt>
      <trkpt lat="43.35458" lon="-1.63827">
        <ele>6</ele>
        <time>2026-06-28T19:31:37Z</time>
      </trkpt>
      <trkpt lat="43.3547" lon="-1.63842">
        <ele>6</ele>
        <time>2026-06-28T19:31:40Z</time>
      </trkpt>
      <trkpt lat="43.35489" lon="-1.6386">
        <ele>6</ele>
        <time>2026-06-28T19:31:44Z</time>
      </trkpt>
      <trkpt lat="43.35508" lon="-1.63875">
        <ele>7</ele>
        <time>2026-06-28T19:31:48Z</time>
      </trkpt>
      <trkpt lat="43.35533" lon="-1.63888">
        <ele>8</ele>
        <time>2026-06-28T19:31:53Z</time>
      </trkpt>
      <trkpt lat="43.35588" lon="-1.63906">
        <ele>10</ele>
        <time>2026-06-28T19:32:03Z</time>
      </trkpt>
      <trkpt lat="43.35595" lon="-1.6391">
        <ele>10</ele>
        <time>2026-06-28T19:32:04Z</time>
      </trkpt>
      <trkpt lat="43.35599" lon="-1.63918">
        <ele>10</ele>
        <time>2026-06-28T19:32:05Z</time>
      </trkpt>
      <trkpt lat="43.35599" lon="-1.63929">
        <ele>11</ele>
        <time>2026-06-28T19:32:07Z</time>
      </trkpt>
      <trkpt lat="43.35592" lon="-1.63968">
        <ele>12</ele>
        <time>2026-06-28T19:32:12Z</time>
      </trkpt>
      <trkpt lat="43.35588" lon="-1.64005">
        <ele>13</ele>
        <time>2026-06-28T19:32:17Z</time>
      </trkpt>
      <trkpt lat="43.3558" lon="-1.64033">
        <ele>15</ele>
        <time>2026-06-28T19:32:21Z</time>
      </trkpt>
      <trkpt lat="43.35577" lon="-1.64041">
        <ele>16</ele>
        <time>2026-06-28T19:32:22Z</time>
      </trkpt>
      <trkpt lat="43.35565" lon="-1.64052">
        <ele>16</ele>
        <time>2026-06-28T19:32:24Z</time>
      </trkpt>
      <trkpt lat="43.35496" lon="-1.64095">
        <ele>15</ele>
        <time>2026-06-28T19:32:38Z</time>
      </trkpt>
      <trkpt lat="43.35457" lon="-1.64124">
        <ele>14</ele>
        <time>2026-06-28T19:32:46Z</time>
      </trkpt>
      <trkpt lat="43.35436" lon="-1.64147">
        <ele>13</ele>
        <time>2026-06-28T19:32:51Z</time>
      </trkpt>
      <trkpt lat="43.35407" lon="-1.64188">
        <ele>14</ele>
        <time>2026-06-28T19:32:58Z</time>
      </trkpt>
      <trkpt lat="43.35398" lon="-1.64203">
        <ele>15</ele>
        <time>2026-06-28T19:33:00Z</time>
      </trkpt>
      <trkpt lat="43.35382" lon="-1.64222">
        <ele>16</ele>
        <time>2026-06-28T19:33:04Z</time>
      </trkpt>
      <trkpt lat="43.35366" lon="-1.64236">
        <ele>16</ele>
        <time>2026-06-28T19:33:08Z</time>
      </trkpt>
      <trkpt lat="43.35342" lon="-1.64252">
        <ele>16</ele>
        <time>2026-06-28T19:33:12Z</time>
      </trkpt>
      <trkpt lat="43.35319" lon="-1.64263">
        <ele>15</ele>
        <time>2026-06-28T19:33:17Z</time>
      </trkpt>
      <trkpt lat="43.35241" lon="-1.64288">
        <ele>12</ele>
        <time>2026-06-28T19:33:31Z</time>
      </trkpt>
      <trkpt lat="43.35201" lon="-1.64298">
        <ele>10</ele>
        <time>2026-06-28T19:33:38Z</time>
      </trkpt>
      <trkpt lat="43.35158" lon="-1.64312">
        <ele>9</ele>
        <time>2026-06-28T19:33:46Z</time>
      </trkpt>
      <trkpt lat="43.35117" lon="-1.64323">
        <ele>8</ele>
        <time>2026-06-28T19:33:53Z</time>
      </trkpt>
      <trkpt lat="43.3508" lon="-1.64352">
        <ele>8</ele>
        <time>2026-06-28T19:34:01Z</time>
      </trkpt>
      <trkpt lat="43.35062" lon="-1.6436">
        <ele>10</ele>
        <time>2026-06-28T19:34:04Z</time>
      </trkpt>
      <trkpt lat="43.34966" lon="-1.64384">
        <ele>13</ele>
        <time>2026-06-28T19:34:22Z</time>
      </trkpt>
      <trkpt lat="43.34951" lon="-1.64381">
        <ele>13</ele>
        <time>2026-06-28T19:34:24Z</time>
      </trkpt>
      <trkpt lat="43.34937" lon="-1.64376">
        <ele>13</ele>
        <time>2026-06-28T19:34:27Z</time>
      </trkpt>
      <trkpt lat="43.34897" lon="-1.64351">
        <ele>15</ele>
        <time>2026-06-28T19:34:35Z</time>
      </trkpt>
      <trkpt lat="43.3489" lon="-1.64346">
        <ele>16</ele>
        <time>2026-06-28T19:34:36Z</time>
      </trkpt>
      <trkpt lat="43.34877" lon="-1.6434">
        <ele>16</ele>
        <time>2026-06-28T19:34:39Z</time>
      </trkpt>
      <trkpt lat="43.34859" lon="-1.64336">
        <ele>17</ele>
        <time>2026-06-28T19:34:42Z</time>
      </trkpt>
      <trkpt lat="43.34841" lon="-1.64326">
        <ele>18</ele>
        <time>2026-06-28T19:34:45Z</time>
      </trkpt>
      <trkpt lat="43.3483" lon="-1.64323">
        <ele>18</ele>
        <time>2026-06-28T19:34:47Z</time>
      </trkpt>
      <trkpt lat="43.34814" lon="-1.6432">
        <ele>18</ele>
        <time>2026-06-28T19:34:50Z</time>
      </trkpt>
      <trkpt lat="43.348" lon="-1.64313">
        <ele>19</ele>
        <time>2026-06-28T19:34:53Z</time>
      </trkpt>
      <trkpt lat="43.34778" lon="-1.64299">
        <ele>20</ele>
        <time>2026-06-28T19:34:57Z</time>
      </trkpt>
      <trkpt lat="43.34753" lon="-1.6427">
        <ele>23</ele>
        <time>2026-06-28T19:35:03Z</time>
      </trkpt>
      <trkpt lat="43.3473" lon="-1.6425">
        <ele>24</ele>
        <time>2026-06-28T19:35:08Z</time>
      </trkpt>
      <trkpt lat="43.34694" lon="-1.64235">
        <ele>23</ele>
        <time>2026-06-28T19:35:15Z</time>
      </trkpt>
      <trkpt lat="43.34686" lon="-1.64236">
        <ele>23</ele>
        <time>2026-06-28T19:35:16Z</time>
      </trkpt>
      <trkpt lat="43.34675" lon="-1.64241">
        <ele>21</ele>
        <time>2026-06-28T19:35:18Z</time>
      </trkpt>
      <trkpt lat="43.3467" lon="-1.64241">
        <ele>21</ele>
        <time>2026-06-28T19:35:19Z</time>
      </trkpt>
      <trkpt lat="43.34665" lon="-1.64245">
        <ele>21</ele>
        <time>2026-06-28T19:35:20Z</time>
      </trkpt>
      <trkpt lat="43.34649" lon="-1.64267">
        <ele>22</ele>
        <time>2026-06-28T19:35:24Z</time>
      </trkpt>
      <trkpt lat="43.34634" lon="-1.64298">
        <ele>22</ele>
        <time>2026-06-28T19:35:29Z</time>
      </trkpt>
      <trkpt lat="43.34621" lon="-1.64316">
        <ele>22</ele>
        <time>2026-06-28T19:35:32Z</time>
      </trkpt>
      <trkpt lat="43.34593" lon="-1.64332">
        <ele>22</ele>
        <time>2026-06-28T19:35:38Z</time>
      </trkpt>
      <trkpt lat="43.34578" lon="-1.64342">
        <ele>23</ele>
        <time>2026-06-28T19:35:40Z</time>
      </trkpt>
      <trkpt lat="43.34564" lon="-1.64345">
        <ele>23</ele>
        <time>2026-06-28T19:35:43Z</time>
      </trkpt>
      <trkpt lat="43.34556" lon="-1.64345">
        <ele>23</ele>
        <time>2026-06-28T19:35:44Z</time>
      </trkpt>
      <trkpt lat="43.34489" lon="-1.6432">
        <ele>25</ele>
        <time>2026-06-28T19:35:57Z</time>
      </trkpt>
      <trkpt lat="43.34479" lon="-1.64317">
        <ele>25</ele>
        <time>2026-06-28T19:35:59Z</time>
      </trkpt>
      <trkpt lat="43.34348" lon="-1.64304">
        <ele>26</ele>
        <time>2026-06-28T19:36:22Z</time>
      </trkpt>
      <trkpt lat="43.3404" lon="-1.64262">
        <ele>34</ele>
        <time>2026-06-28T19:37:17Z</time>
      </trkpt>
      <trkpt lat="43.34035" lon="-1.64262">
        <ele>34</ele>
        <time>2026-06-28T19:37:18Z</time>
      </trkpt>
      <trkpt lat="43.3403" lon="-1.64266">
        <ele>35</ele>
        <time>2026-06-28T19:37:19Z</time>
      </trkpt>
      <trkpt lat="43.34025" lon="-1.6429">
        <ele>35</ele>
        <time>2026-06-28T19:37:22Z</time>
      </trkpt>
      <trkpt lat="43.34017" lon="-1.64345">
        <ele>35</ele>
        <time>2026-06-28T19:37:29Z</time>
      </trkpt>
      <trkpt lat="43.34005" lon="-1.64401">
        <ele>34</ele>
        <time>2026-06-28T19:37:37Z</time>
      </trkpt>
      <trkpt lat="43.33726" lon="-1.65717">
        <ele>65</ele>
        <time>2026-06-28T19:40:34Z</time>
      </trkpt>
      <trkpt lat="43.33716" lon="-1.65779">
        <ele>66</ele>
        <time>2026-06-28T19:40:43Z</time>
      </trkpt>
      <trkpt lat="43.33699" lon="-1.65921">
        <ele>67</ele>
        <time>2026-06-28T19:41:01Z</time>
      </trkpt>
      <trkpt lat="43.33664" lon="-1.66112">
        <ele>66</ele>
        <time>2026-06-28T19:41:27Z</time>
      </trkpt>
      <trkpt lat="43.33651" lon="-1.66169">
        <ele>65</ele>
        <time>2026-06-28T19:41:34Z</time>
      </trkpt>
      <trkpt lat="43.3364" lon="-1.66203">
        <ele>65</ele>
        <time>2026-06-28T19:41:39Z</time>
      </trkpt>
      <trkpt lat="43.33626" lon="-1.66238">
        <ele>67</ele>
        <time>2026-06-28T19:41:44Z</time>
      </trkpt>
      <trkpt lat="43.33618" lon="-1.66264">
        <ele>67</ele>
        <time>2026-06-28T19:41:48Z</time>
      </trkpt>
      <trkpt lat="43.33615" lon="-1.66292">
        <ele>66</ele>
        <time>2026-06-28T19:41:52Z</time>
      </trkpt>
      <trkpt lat="43.33614" lon="-1.66335">
        <ele>65</ele>
        <time>2026-06-28T19:41:57Z</time>
      </trkpt>
      <trkpt lat="43.33617" lon="-1.66394">
        <ele>63</ele>
        <time>2026-06-28T19:42:05Z</time>
      </trkpt>
      <trkpt lat="43.33632" lon="-1.66449">
        <ele>59</ele>
        <time>2026-06-28T19:42:13Z</time>
      </trkpt>
      <trkpt lat="43.33667" lon="-1.66545">
        <ele>53</ele>
        <time>2026-06-28T19:42:26Z</time>
      </trkpt>
      <trkpt lat="43.33674" lon="-1.66591">
        <ele>51</ele>
        <time>2026-06-28T19:42:33Z</time>
      </trkpt>
      <trkpt lat="43.33676" lon="-1.66622">
        <ele>49</ele>
        <time>2026-06-28T19:42:37Z</time>
      </trkpt>
      <trkpt lat="43.33671" lon="-1.66665">
        <ele>48</ele>
        <time>2026-06-28T19:42:42Z</time>
      </trkpt>
      <trkpt lat="43.33657" lon="-1.66729">
        <ele>46</ele>
        <time>2026-06-28T19:42:51Z</time>
      </trkpt>
      <trkpt lat="43.33643" lon="-1.66763">
        <ele>45</ele>
        <time>2026-06-28T19:42:56Z</time>
      </trkpt>
      <trkpt lat="43.33632" lon="-1.6678">
        <ele>45</ele>
        <time>2026-06-28T19:42:59Z</time>
      </trkpt>
      <trkpt lat="43.33618" lon="-1.66797">
        <ele>45</ele>
        <time>2026-06-28T19:43:02Z</time>
      </trkpt>
      <trkpt lat="43.33616" lon="-1.66802">
        <ele>45</ele>
        <time>2026-06-28T19:43:03Z</time>
      </trkpt>
      <trkpt lat="43.33616" lon="-1.66813">
        <ele>44</ele>
        <time>2026-06-28T19:43:04Z</time>
      </trkpt>
      <trkpt lat="43.33621" lon="-1.66818">
        <ele>44</ele>
        <time>2026-06-28T19:43:05Z</time>
      </trkpt>
      <trkpt lat="43.33627" lon="-1.66821">
        <ele>44</ele>
        <time>2026-06-28T19:43:07Z</time>
      </trkpt>
      <trkpt lat="43.33694" lon="-1.66831">
        <ele>42</ele>
        <time>2026-06-28T19:43:19Z</time>
      </trkpt>
      <trkpt lat="43.33709" lon="-1.66831">
        <ele>42</ele>
        <time>2026-06-28T19:43:21Z</time>
      </trkpt>
      <trkpt lat="43.33744" lon="-1.66825">
        <ele>42</ele>
        <time>2026-06-28T19:43:28Z</time>
      </trkpt>
      <trkpt lat="43.33788" lon="-1.6681">
        <ele>40</ele>
        <time>2026-06-28T19:43:36Z</time>
      </trkpt>
      <trkpt lat="43.33832" lon="-1.66788">
        <ele>39</ele>
        <time>2026-06-28T19:43:44Z</time>
      </trkpt>
      <trkpt lat="43.33857" lon="-1.66773">
        <ele>38</ele>
        <time>2026-06-28T19:43:49Z</time>
      </trkpt>
      <trkpt lat="43.33872" lon="-1.66762">
        <ele>38</ele>
        <time>2026-06-28T19:43:52Z</time>
      </trkpt>
      <trkpt lat="43.33893" lon="-1.66741">
        <ele>37</ele>
        <time>2026-06-28T19:43:56Z</time>
      </trkpt>
      <trkpt lat="43.3395" lon="-1.66677">
        <ele>36</ele>
        <time>2026-06-28T19:44:10Z</time>
      </trkpt>
      <trkpt lat="43.3399" lon="-1.66643">
        <ele>33</ele>
        <time>2026-06-28T19:44:18Z</time>
      </trkpt>
      <trkpt lat="43.33997" lon="-1.66639">
        <ele>33</ele>
        <time>2026-06-28T19:44:19Z</time>
      </trkpt>
      <trkpt lat="43.34012" lon="-1.66633">
        <ele>33</ele>
        <time>2026-06-28T19:44:22Z</time>
      </trkpt>
      <trkpt lat="43.34035" lon="-1.66631">
        <ele>34</ele>
        <time>2026-06-28T19:44:26Z</time>
      </trkpt>
      <trkpt lat="43.34055" lon="-1.66635">
        <ele>35</ele>
        <time>2026-06-28T19:44:30Z</time>
      </trkpt>
      <trkpt lat="43.34078" lon="-1.66645">
        <ele>37</ele>
        <time>2026-06-28T19:44:34Z</time>
      </trkpt>
      <trkpt lat="43.34118" lon="-1.66655">
        <ele>40</ele>
        <time>2026-06-28T19:44:41Z</time>
      </trkpt>
      <trkpt lat="43.34133" lon="-1.66661">
        <ele>41</ele>
        <time>2026-06-28T19:44:44Z</time>
      </trkpt>
      <trkpt lat="43.34198" lon="-1.66696">
        <ele>48</ele>
        <time>2026-06-28T19:44:56Z</time>
      </trkpt>
      <trkpt lat="43.34254" lon="-1.66722">
        <ele>50</ele>
        <time>2026-06-28T19:45:07Z</time>
      </trkpt>
      <trkpt lat="43.34282" lon="-1.66731">
        <ele>53</ele>
        <time>2026-06-28T19:45:12Z</time>
      </trkpt>
      <trkpt lat="43.34293" lon="-1.66737">
        <ele>53</ele>
        <time>2026-06-28T19:45:14Z</time>
      </trkpt>
      <trkpt lat="43.3431" lon="-1.66743">
        <ele>54</ele>
        <time>2026-06-28T19:45:17Z</time>
      </trkpt>
      <trkpt lat="43.34328" lon="-1.66745">
        <ele>55</ele>
        <time>2026-06-28T19:45:21Z</time>
      </trkpt>
      <trkpt lat="43.34341" lon="-1.66745">
        <ele>56</ele>
        <time>2026-06-28T19:45:23Z</time>
      </trkpt>
      <trkpt lat="43.34359" lon="-1.66738">
        <ele>59</ele>
        <time>2026-06-28T19:45:26Z</time>
      </trkpt>
      <trkpt lat="43.34402" lon="-1.66694">
        <ele>67</ele>
        <time>2026-06-28T19:45:36Z</time>
      </trkpt>
      <trkpt lat="43.34419" lon="-1.66674">
        <ele>70</ele>
        <time>2026-06-28T19:45:40Z</time>
      </trkpt>
      <trkpt lat="43.34434" lon="-1.66662">
        <ele>72</ele>
        <time>2026-06-28T19:45:43Z</time>
      </trkpt>
      <trkpt lat="43.34447" lon="-1.66658">
        <ele>72</ele>
        <time>2026-06-28T19:45:45Z</time>
      </trkpt>
      <trkpt lat="43.3446" lon="-1.66656">
        <ele>72</ele>
        <time>2026-06-28T19:45:47Z</time>
      </trkpt>
      <trkpt lat="43.34514" lon="-1.66653">
        <ele>73</ele>
        <time>2026-06-28T19:45:57Z</time>
      </trkpt>
      <trkpt lat="43.34532" lon="-1.66655">
        <ele>74</ele>
        <time>2026-06-28T19:46:00Z</time>
      </trkpt>
      <trkpt lat="43.34544" lon="-1.66658">
        <ele>74</ele>
        <time>2026-06-28T19:46:02Z</time>
      </trkpt>
      <trkpt lat="43.34557" lon="-1.66664">
        <ele>75</ele>
        <time>2026-06-28T19:46:05Z</time>
      </trkpt>
      <trkpt lat="43.34573" lon="-1.66677">
        <ele>76</ele>
        <time>2026-06-28T19:46:08Z</time>
      </trkpt>
      <trkpt lat="43.34609" lon="-1.66714">
        <ele>77</ele>
        <time>2026-06-28T19:46:16Z</time>
      </trkpt>
      <trkpt lat="43.34658" lon="-1.6677">
        <ele>74</ele>
        <time>2026-06-28T19:46:28Z</time>
      </trkpt>
      <trkpt lat="43.34672" lon="-1.66782">
        <ele>74</ele>
        <time>2026-06-28T19:46:30Z</time>
      </trkpt>
      <trkpt lat="43.34684" lon="-1.66789">
        <ele>73</ele>
        <time>2026-06-28T19:46:33Z</time>
      </trkpt>
      <trkpt lat="43.34703" lon="-1.66797">
        <ele>73</ele>
        <time>2026-06-28T19:46:36Z</time>
      </trkpt>
      <trkpt lat="43.34723" lon="-1.66803">
        <ele>72</ele>
        <time>2026-06-28T19:46:40Z</time>
      </trkpt>
      <trkpt lat="43.34749" lon="-1.66807">
        <ele>72</ele>
        <time>2026-06-28T19:46:45Z</time>
      </trkpt>
      <trkpt lat="43.34803" lon="-1.66811">
        <ele>73</ele>
        <time>2026-06-28T19:46:54Z</time>
      </trkpt>
      <trkpt lat="43.3482" lon="-1.66816">
        <ele>74</ele>
        <time>2026-06-28T19:46:57Z</time>
      </trkpt>
      <trkpt lat="43.34854" lon="-1.6683">
        <ele>76</ele>
        <time>2026-06-28T19:47:04Z</time>
      </trkpt>
      <trkpt lat="43.34889" lon="-1.66849">
        <ele>79</ele>
        <time>2026-06-28T19:47:10Z</time>
      </trkpt>
      <trkpt lat="43.34919" lon="-1.66868">
        <ele>83</ele>
        <time>2026-06-28T19:47:16Z</time>
      </trkpt>
      <trkpt lat="43.34935" lon="-1.66877">
        <ele>86</ele>
        <time>2026-06-28T19:47:19Z</time>
      </trkpt>
      <trkpt lat="43.34943" lon="-1.66879">
        <ele>87</ele>
        <time>2026-06-28T19:47:21Z</time>
      </trkpt>
      <trkpt lat="43.34959" lon="-1.66878">
        <ele>89</ele>
        <time>2026-06-28T19:47:24Z</time>
      </trkpt>
      <trkpt lat="43.34967" lon="-1.66875">
        <ele>90</ele>
        <time>2026-06-28T19:47:25Z</time>
      </trkpt>
      <trkpt lat="43.34973" lon="-1.66868">
        <ele>90</ele>
        <time>2026-06-28T19:47:26Z</time>
      </trkpt>
      <trkpt lat="43.34976" lon="-1.66859">
        <ele>89</ele>
        <time>2026-06-28T19:47:28Z</time>
      </trkpt>
      <trkpt lat="43.34983" lon="-1.66819">
        <ele>86</ele>
        <time>2026-06-28T19:47:33Z</time>
      </trkpt>
      <trkpt lat="43.34994" lon="-1.66807">
        <ele>86</ele>
        <time>2026-06-28T19:47:36Z</time>
      </trkpt>
      <trkpt lat="43.35006" lon="-1.668">
        <ele>86</ele>
        <time>2026-06-28T19:47:38Z</time>
      </trkpt>
      <trkpt lat="43.35013" lon="-1.66798">
        <ele>86</ele>
        <time>2026-06-28T19:47:39Z</time>
      </trkpt>
      <trkpt lat="43.35026" lon="-1.66803">
        <ele>86</ele>
        <time>2026-06-28T19:47:42Z</time>
      </trkpt>
      <trkpt lat="43.35065" lon="-1.66842">
        <ele>91</ele>
        <time>2026-06-28T19:47:50Z</time>
      </trkpt>
      <trkpt lat="43.35081" lon="-1.66854">
        <ele>92</ele>
        <time>2026-06-28T19:47:53Z</time>
      </trkpt>
      <trkpt lat="43.35094" lon="-1.66858">
        <ele>92</ele>
        <time>2026-06-28T19:47:56Z</time>
      </trkpt>
      <trkpt lat="43.35117" lon="-1.66852">
        <ele>93</ele>
        <time>2026-06-28T19:48:00Z</time>
      </trkpt>
      <trkpt lat="43.35126" lon="-1.66842">
        <ele>93</ele>
        <time>2026-06-28T19:48:02Z</time>
      </trkpt>
      <trkpt lat="43.35139" lon="-1.66823">
        <ele>93</ele>
        <time>2026-06-28T19:48:05Z</time>
      </trkpt>
      <trkpt lat="43.35183" lon="-1.66748">
        <ele>91</ele>
        <time>2026-06-28T19:48:18Z</time>
      </trkpt>
      <trkpt lat="43.35199" lon="-1.66733">
        <ele>91</ele>
        <time>2026-06-28T19:48:21Z</time>
      </trkpt>
      <trkpt lat="43.35204" lon="-1.66731">
        <ele>91</ele>
        <time>2026-06-28T19:48:22Z</time>
      </trkpt>
      <trkpt lat="43.35216" lon="-1.6673">
        <ele>91</ele>
        <time>2026-06-28T19:48:24Z</time>
      </trkpt>
      <trkpt lat="43.3525" lon="-1.66735">
        <ele>93</ele>
        <time>2026-06-28T19:48:30Z</time>
      </trkpt>
      <trkpt lat="43.35266" lon="-1.66732">
        <ele>92</ele>
        <time>2026-06-28T19:48:33Z</time>
      </trkpt>
      <trkpt lat="43.35277" lon="-1.66723">
        <ele>92</ele>
        <time>2026-06-28T19:48:36Z</time>
      </trkpt>
      <trkpt lat="43.35287" lon="-1.66716">
        <ele>91</ele>
        <time>2026-06-28T19:48:38Z</time>
      </trkpt>
      <trkpt lat="43.35404" lon="-1.66654">
        <ele>97</ele>
        <time>2026-06-28T19:49:00Z</time>
      </trkpt>
      <trkpt lat="43.35422" lon="-1.66642">
        <ele>97</ele>
        <time>2026-06-28T19:49:03Z</time>
      </trkpt>
      <trkpt lat="43.35454" lon="-1.66614">
        <ele>94</ele>
        <time>2026-06-28T19:49:10Z</time>
      </trkpt>
      <trkpt lat="43.35473" lon="-1.66606">
        <ele>94</ele>
        <time>2026-06-28T19:49:14Z</time>
      </trkpt>
      <trkpt lat="43.35489" lon="-1.66601">
        <ele>95</ele>
        <time>2026-06-28T19:49:17Z</time>
      </trkpt>
      <trkpt lat="43.35517" lon="-1.66598">
        <ele>93</ele>
        <time>2026-06-28T19:49:22Z</time>
      </trkpt>
      <trkpt lat="43.35625" lon="-1.66587">
        <ele>86</ele>
        <time>2026-06-28T19:49:41Z</time>
      </trkpt>
      <trkpt lat="43.35642" lon="-1.66581">
        <ele>85</ele>
        <time>2026-06-28T19:49:44Z</time>
      </trkpt>
      <trkpt lat="43.3566" lon="-1.66571">
        <ele>83</ele>
        <time>2026-06-28T19:49:47Z</time>
      </trkpt>
      <trkpt lat="43.35676" lon="-1.66558">
        <ele>81</ele>
        <time>2026-06-28T19:49:51Z</time>
      </trkpt>
      <trkpt lat="43.35725" lon="-1.66499">
        <ele>77</ele>
        <time>2026-06-28T19:50:02Z</time>
      </trkpt>
      <trkpt lat="43.35748" lon="-1.6648">
        <ele>76</ele>
        <time>2026-06-28T19:50:07Z</time>
      </trkpt>
      <trkpt lat="43.35781" lon="-1.66464">
        <ele>75</ele>
        <time>2026-06-28T19:50:13Z</time>
      </trkpt>
      <trkpt lat="43.35864" lon="-1.66438">
        <ele>77</ele>
        <time>2026-06-28T19:50:29Z</time>
      </trkpt>
      <trkpt lat="43.3588" lon="-1.66429">
        <ele>78</ele>
        <time>2026-06-28T19:50:32Z</time>
      </trkpt>
      <trkpt lat="43.35886" lon="-1.66422">
        <ele>78</ele>
        <time>2026-06-28T19:50:33Z</time>
      </trkpt>
      <trkpt lat="43.35891" lon="-1.66412">
        <ele>78</ele>
        <time>2026-06-28T19:50:35Z</time>
      </trkpt>
      <trkpt lat="43.35898" lon="-1.66367">
        <ele>76</ele>
        <time>2026-06-28T19:50:41Z</time>
      </trkpt>
      <trkpt lat="43.35907" lon="-1.66348">
        <ele>76</ele>
        <time>2026-06-28T19:50:43Z</time>
      </trkpt>
      <trkpt lat="43.3592" lon="-1.66337">
        <ele>76</ele>
        <time>2026-06-28T19:50:46Z</time>
      </trkpt>
      <trkpt lat="43.3594" lon="-1.6633">
        <ele>76</ele>
        <time>2026-06-28T19:50:50Z</time>
      </trkpt>
      <trkpt lat="43.35959" lon="-1.66322">
        <ele>76</ele>
        <time>2026-06-28T19:50:53Z</time>
      </trkpt>
      <trkpt lat="43.3597" lon="-1.66311">
        <ele>77</ele>
        <time>2026-06-28T19:50:56Z</time>
      </trkpt>
      <trkpt lat="43.35989" lon="-1.66288">
        <ele>78</ele>
        <time>2026-06-28T19:51:00Z</time>
      </trkpt>
      <trkpt lat="43.36045" lon="-1.66207">
        <ele>81</ele>
        <time>2026-06-28T19:51:15Z</time>
      </trkpt>
      <trkpt lat="43.36104" lon="-1.66118">
        <ele>83</ele>
        <time>2026-06-28T19:51:30Z</time>
      </trkpt>
      <trkpt lat="43.36117" lon="-1.66101">
        <ele>84</ele>
        <time>2026-06-28T19:51:34Z</time>
      </trkpt>
      <trkpt lat="43.36126" lon="-1.66093">
        <ele>84</ele>
        <time>2026-06-28T19:51:35Z</time>
      </trkpt>
      <trkpt lat="43.36137" lon="-1.66088">
        <ele>85</ele>
        <time>2026-06-28T19:51:37Z</time>
      </trkpt>
      <trkpt lat="43.36191" lon="-1.66068">
        <ele>85</ele>
        <time>2026-06-28T19:51:47Z</time>
      </trkpt>
      <trkpt lat="43.36206" lon="-1.66066">
        <ele>84</ele>
        <time>2026-06-28T19:51:50Z</time>
      </trkpt>
      <trkpt lat="43.36214" lon="-1.66067">
        <ele>83</ele>
        <time>2026-06-28T19:51:52Z</time>
      </trkpt>
      <trkpt lat="43.36231" lon="-1.66073">
        <ele>81</ele>
        <time>2026-06-28T19:51:55Z</time>
      </trkpt>
      <trkpt lat="43.36255" lon="-1.66087">
        <ele>78</ele>
        <time>2026-06-28T19:51:59Z</time>
      </trkpt>
      <trkpt lat="43.36271" lon="-1.66093">
        <ele>77</ele>
        <time>2026-06-28T19:52:02Z</time>
      </trkpt>
      <trkpt lat="43.363" lon="-1.6609">
        <ele>76</ele>
        <time>2026-06-28T19:52:07Z</time>
      </trkpt>
      <trkpt lat="43.36321" lon="-1.66086">
        <ele>76</ele>
        <time>2026-06-28T19:52:11Z</time>
      </trkpt>
      <trkpt lat="43.36332" lon="-1.66082">
        <ele>76</ele>
        <time>2026-06-28T19:52:13Z</time>
      </trkpt>
      <trkpt lat="43.36352" lon="-1.66071">
        <ele>75</ele>
        <time>2026-06-28T19:52:17Z</time>
      </trkpt>
      <trkpt lat="43.3637" lon="-1.66058">
        <ele>75</ele>
        <time>2026-06-28T19:52:21Z</time>
      </trkpt>
      <trkpt lat="43.36393" lon="-1.66034">
        <ele>74</ele>
        <time>2026-06-28T19:52:26Z</time>
      </trkpt>
      <trkpt lat="43.36416" lon="-1.65998">
        <ele>75</ele>
        <time>2026-06-28T19:52:32Z</time>
      </trkpt>
      <trkpt lat="43.36491" lon="-1.6586">
        <ele>69</ele>
        <time>2026-06-28T19:52:54Z</time>
      </trkpt>
      <trkpt lat="43.3652" lon="-1.65808">
        <ele>68</ele>
        <time>2026-06-28T19:53:03Z</time>
      </trkpt>
      <trkpt lat="43.36536" lon="-1.65775">
        <ele>68</ele>
        <time>2026-06-28T19:53:08Z</time>
      </trkpt>
      <trkpt lat="43.36554" lon="-1.65708">
        <ele>71</ele>
        <time>2026-06-28T19:53:17Z</time>
      </trkpt>
      <trkpt lat="43.36565" lon="-1.65683">
        <ele>73</ele>
        <time>2026-06-28T19:53:21Z</time>
      </trkpt>
      <trkpt lat="43.3657" lon="-1.65675">
        <ele>74</ele>
        <time>2026-06-28T19:53:22Z</time>
      </trkpt>
      <trkpt lat="43.36589" lon="-1.65654">
        <ele>75</ele>
        <time>2026-06-28T19:53:27Z</time>
      </trkpt>
      <trkpt lat="43.36599" lon="-1.65646">
        <ele>73</ele>
        <time>2026-06-28T19:53:29Z</time>
      </trkpt>
      <trkpt lat="43.36611" lon="-1.65639">
        <ele>72</ele>
        <time>2026-06-28T19:53:31Z</time>
      </trkpt>
      <trkpt lat="43.36625" lon="-1.65633">
        <ele>71</ele>
        <time>2026-06-28T19:53:34Z</time>
      </trkpt>
      <trkpt lat="43.36632" lon="-1.6563">
        <ele>71</ele>
        <time>2026-06-28T19:53:35Z</time>
      </trkpt>
      <trkpt lat="43.36646" lon="-1.65629">
        <ele>71</ele>
        <time>2026-06-28T19:53:37Z</time>
      </trkpt>
      <trkpt lat="43.36672" lon="-1.65631">
        <ele>69</ele>
        <time>2026-06-28T19:53:42Z</time>
      </trkpt>
      <trkpt lat="43.36708" lon="-1.65642">
        <ele>67</ele>
        <time>2026-06-28T19:53:49Z</time>
      </trkpt>
      <trkpt lat="43.36733" lon="-1.65656">
        <ele>66</ele>
        <time>2026-06-28T19:53:53Z</time>
      </trkpt>
      <trkpt lat="43.36765" lon="-1.65678">
        <ele>65</ele>
        <time>2026-06-28T19:54:00Z</time>
      </trkpt>
      <trkpt lat="43.36794" lon="-1.65693">
        <ele>64</ele>
        <time>2026-06-28T19:54:05Z</time>
      </trkpt>
      <trkpt lat="43.36918" lon="-1.65751">
        <ele>60</ele>
        <time>2026-06-28T19:54:29Z</time>
      </trkpt>
      <trkpt lat="43.36985" lon="-1.65775">
        <ele>57</ele>
        <time>2026-06-28T19:54:41Z</time>
      </trkpt>
      <trkpt lat="43.37015" lon="-1.65789">
        <ele>56</ele>
        <time>2026-06-28T19:54:47Z</time>
      </trkpt>
      <trkpt lat="43.37076" lon="-1.65828">
        <ele>60</ele>
        <time>2026-06-28T19:54:59Z</time>
      </trkpt>
      <trkpt lat="43.3709" lon="-1.65839">
        <ele>59</ele>
        <time>2026-06-28T19:55:01Z</time>
      </trkpt>
      <trkpt lat="43.37096" lon="-1.65847">
        <ele>57</ele>
        <time>2026-06-28T19:55:03Z</time>
      </trkpt>
      <trkpt lat="43.3711" lon="-1.65875">
        <ele>53</ele>
        <time>2026-06-28T19:55:07Z</time>
      </trkpt>
      <trkpt lat="43.37115" lon="-1.65883">
        <ele>52</ele>
        <time>2026-06-28T19:55:09Z</time>
      </trkpt>
      <trkpt lat="43.37121" lon="-1.65889">
        <ele>52</ele>
        <time>2026-06-28T19:55:10Z</time>
      </trkpt>
      <trkpt lat="43.37128" lon="-1.65893">
        <ele>52</ele>
        <time>2026-06-28T19:55:11Z</time>
      </trkpt>
      <trkpt lat="43.37259" lon="-1.65906">
        <ele>42</ele>
        <time>2026-06-28T19:55:35Z</time>
      </trkpt>
      <trkpt lat="43.37325" lon="-1.65909">
        <ele>38</ele>
        <time>2026-06-28T19:55:46Z</time>
      </trkpt>
      <trkpt lat="43.37358" lon="-1.65903">
        <ele>38</ele>
        <time>2026-06-28T19:55:52Z</time>
      </trkpt>
      <trkpt lat="43.37446" lon="-1.65872">
        <ele>39</ele>
        <time>2026-06-28T19:56:09Z</time>
      </trkpt>
      <trkpt lat="43.37461" lon="-1.6587">
        <ele>39</ele>
        <time>2026-06-28T19:56:11Z</time>
      </trkpt>
      <trkpt lat="43.37479" lon="-1.65875">
        <ele>40</ele>
        <time>2026-06-28T19:56:14Z</time>
      </trkpt>
      <trkpt lat="43.37495" lon="-1.65885">
        <ele>41</ele>
        <time>2026-06-28T19:56:18Z</time>
      </trkpt>
      <trkpt lat="43.37523" lon="-1.65916">
        <ele>41</ele>
        <time>2026-06-28T19:56:24Z</time>
      </trkpt>
      <trkpt lat="43.37542" lon="-1.65944">
        <ele>41</ele>
        <time>2026-06-28T19:56:29Z</time>
      </trkpt>
      <trkpt lat="43.37575" lon="-1.66008">
        <ele>36</ele>
        <time>2026-06-28T19:56:39Z</time>
      </trkpt>
      <trkpt lat="43.37592" lon="-1.66035">
        <ele>33</ele>
        <time>2026-06-28T19:56:44Z</time>
      </trkpt>
      <trkpt lat="43.37605" lon="-1.66051">
        <ele>30</ele>
        <time>2026-06-28T19:56:47Z</time>
      </trkpt>
      <trkpt lat="43.3762" lon="-1.66066">
        <ele>28</ele>
        <time>2026-06-28T19:56:50Z</time>
      </trkpt>
      <trkpt lat="43.37628" lon="-1.66073">
        <ele>27</ele>
        <time>2026-06-28T19:56:52Z</time>
      </trkpt>
      <trkpt lat="43.37637" lon="-1.66077">
        <ele>26</ele>
        <time>2026-06-28T19:56:53Z</time>
      </trkpt>
      <trkpt lat="43.37646" lon="-1.66079">
        <ele>26</ele>
        <time>2026-06-28T19:56:55Z</time>
      </trkpt>
      <trkpt lat="43.37656" lon="-1.66079">
        <ele>26</ele>
        <time>2026-06-28T19:56:57Z</time>
      </trkpt>
      <trkpt lat="43.37666" lon="-1.66076">
        <ele>26</ele>
        <time>2026-06-28T19:56:59Z</time>
      </trkpt>
      <trkpt lat="43.37683" lon="-1.66063">
        <ele>25</ele>
        <time>2026-06-28T19:57:02Z</time>
      </trkpt>
      <trkpt lat="43.37692" lon="-1.66055">
        <ele>25</ele>
        <time>2026-06-28T19:57:04Z</time>
      </trkpt>
      <trkpt lat="43.37706" lon="-1.66036">
        <ele>24</ele>
        <time>2026-06-28T19:57:08Z</time>
      </trkpt>
      <trkpt lat="43.37718" lon="-1.66013">
        <ele>24</ele>
        <time>2026-06-28T19:57:11Z</time>
      </trkpt>
      <trkpt lat="43.37722" lon="-1.66001">
        <ele>25</ele>
        <time>2026-06-28T19:57:13Z</time>
      </trkpt>
      <trkpt lat="43.37731" lon="-1.65963">
        <ele>24</ele>
        <time>2026-06-28T19:57:18Z</time>
      </trkpt>
      <trkpt lat="43.37742" lon="-1.65905">
        <ele>23</ele>
        <time>2026-06-28T19:57:26Z</time>
      </trkpt>
      <trkpt lat="43.37748" lon="-1.65887">
        <ele>22</ele>
        <time>2026-06-28T19:57:28Z</time>
      </trkpt>
      <trkpt lat="43.37752" lon="-1.65881">
        <ele>22</ele>
        <time>2026-06-28T19:57:29Z</time>
      </trkpt>
      <trkpt lat="43.37757" lon="-1.65878">
        <ele>22</ele>
        <time>2026-06-28T19:57:30Z</time>
      </trkpt>
      <trkpt lat="43.37762" lon="-1.65878">
        <ele>22</ele>
        <time>2026-06-28T19:57:31Z</time>
      </trkpt>
      <trkpt lat="43.37774" lon="-1.65883">
        <ele>21</ele>
        <time>2026-06-28T19:57:34Z</time>
      </trkpt>
      <trkpt lat="43.37814" lon="-1.65915">
        <ele>17</ele>
        <time>2026-06-28T19:57:42Z</time>
      </trkpt>
      <trkpt lat="43.37835" lon="-1.65935">
        <ele>15</ele>
        <time>2026-06-28T19:57:46Z</time>
      </trkpt>
      <trkpt lat="43.37847" lon="-1.65952">
        <ele>14</ele>
        <time>2026-06-28T19:57:49Z</time>
      </trkpt>
      <trkpt lat="43.37874" lon="-1.65998">
        <ele>11</ele>
        <time>2026-06-28T19:57:57Z</time>
      </trkpt>
      <trkpt lat="43.37886" lon="-1.66014">
        <ele>10</ele>
        <time>2026-06-28T19:58:00Z</time>
      </trkpt>
      <trkpt lat="43.37901" lon="-1.66026">
        <ele>9</ele>
        <time>2026-06-28T19:58:03Z</time>
      </trkpt>
      <trkpt lat="43.37937" lon="-1.66049">
        <ele>8</ele>
        <time>2026-06-28T19:58:10Z</time>
      </trkpt>
      <trkpt lat="43.3798" lon="-1.66082">
        <ele>6</ele>
        <time>2026-06-28T19:58:19Z</time>
      </trkpt>
      <trkpt lat="43.3799" lon="-1.66092">
        <ele>5</ele>
        <time>2026-06-28T19:58:21Z</time>
      </trkpt>
      <trkpt lat="43.38013" lon="-1.66118">
        <ele>5</ele>
        <time>2026-06-28T19:58:26Z</time>
      </trkpt>
      <trkpt lat="43.3803" lon="-1.66128">
        <ele>6</ele>
        <time>2026-06-28T19:58:30Z</time>
      </trkpt>
      <trkpt lat="43.38034" lon="-1.66128">
        <ele>6</ele>
        <time>2026-06-28T19:58:30Z</time>
      </trkpt>
      <trkpt lat="43.38034" lon="-1.66138">
        <ele>6</ele>
        <time>2026-06-28T19:58:32Z</time>
      </trkpt>
      <trkpt lat="43.38033" lon="-1.66145">
        <ele>6</ele>
        <time>2026-06-28T19:58:33Z</time>
      </trkpt>
      <trkpt lat="43.38029" lon="-1.66153">
        <ele>6</ele>
        <time>2026-06-28T19:58:34Z</time>
      </trkpt>
      <trkpt lat="43.38014" lon="-1.66174">
        <ele>5</ele>
        <time>2026-06-28T19:58:38Z</time>
      </trkpt>
      <trkpt lat="43.38009" lon="-1.66183">
        <ele>5</ele>
        <time>2026-06-28T19:58:39Z</time>
      </trkpt>
      <trkpt lat="43.38008" lon="-1.66194">
        <ele>5</ele>
        <time>2026-06-28T19:58:41Z</time>
      </trkpt>
      <trkpt lat="43.38019" lon="-1.66225">
        <ele>5</ele>
        <time>2026-06-28T19:58:45Z</time>
      </trkpt>
      <trkpt lat="43.38032" lon="-1.66242">
        <ele>5</ele>
        <time>2026-06-28T19:58:48Z</time>
      </trkpt>
      <trkpt lat="43.38047" lon="-1.66255">
        <ele>5</ele>
        <time>2026-06-28T19:58:51Z</time>
      </trkpt>
      <trkpt lat="43.38071" lon="-1.66266">
        <ele>5</ele>
        <time>2026-06-28T19:58:56Z</time>
      </trkpt>
      <trkpt lat="43.38086" lon="-1.66279">
        <ele>5</ele>
        <time>2026-06-28T19:58:59Z</time>
      </trkpt>
      <trkpt lat="43.38093" lon="-1.66289">
        <ele>5</ele>
        <time>2026-06-28T19:59:01Z</time>
      </trkpt>
      <trkpt lat="43.38099" lon="-1.66308">
        <ele>5</ele>
        <time>2026-06-28T19:59:04Z</time>
      </trkpt>
      <trkpt lat="43.38109" lon="-1.66389">
        <ele>6</ele>
        <time>2026-06-28T19:59:14Z</time>
      </trkpt>
      <trkpt lat="43.38115" lon="-1.66409">
        <ele>6</ele>
        <time>2026-06-28T19:59:17Z</time>
      </trkpt>
      <trkpt lat="43.38123" lon="-1.66428">
        <ele>5</ele>
        <time>2026-06-28T19:59:20Z</time>
      </trkpt>
      <trkpt lat="43.38135" lon="-1.66448">
        <ele>5</ele>
        <time>2026-06-28T19:59:23Z</time>
      </trkpt>
      <trkpt lat="43.38151" lon="-1.66469">
        <ele>4</ele>
        <time>2026-06-28T19:59:27Z</time>
      </trkpt>
      <trkpt lat="43.38224" lon="-1.6655">
        <ele>3</ele>
        <time>2026-06-28T19:59:44Z</time>
      </trkpt>
      <trkpt lat="43.38233" lon="-1.66568">
        <ele>4</ele>
        <time>2026-06-28T19:59:47Z</time>
      </trkpt>
      <trkpt lat="43.38278" lon="-1.66679">
        <ele>5</ele>
        <time>2026-06-28T20:00:03Z</time>
      </trkpt>
      <trkpt lat="43.38281" lon="-1.66685">
        <ele>5</ele>
        <time>2026-06-28T20:00:04Z</time>
      </trkpt>
      <trkpt lat="43.38295" lon="-1.667">
        <ele>6</ele>
        <time>2026-06-28T20:00:07Z</time>
      </trkpt>
      <trkpt lat="43.38314" lon="-1.66746">
        <ele>6</ele>
        <time>2026-06-28T20:00:14Z</time>
      </trkpt>
      <trkpt lat="43.3832" lon="-1.66753">
        <ele>7</ele>
        <time>2026-06-28T20:00:15Z</time>
      </trkpt>
      <trkpt lat="43.38327" lon="-1.66755">
        <ele>7</ele>
        <time>2026-06-28T20:00:17Z</time>
      </trkpt>
      <trkpt lat="43.38344" lon="-1.66756">
        <ele>6</ele>
        <time>2026-06-28T20:00:20Z</time>
      </trkpt>
      <trkpt lat="43.38363" lon="-1.66753">
        <ele>6</ele>
        <time>2026-06-28T20:00:23Z</time>
      </trkpt>
      <trkpt lat="43.38376" lon="-1.66747">
        <ele>5</ele>
        <time>2026-06-28T20:00:26Z</time>
      </trkpt>
      <trkpt lat="43.38388" lon="-1.66735">
        <ele>5</ele>
        <time>2026-06-28T20:00:28Z</time>
      </trkpt>
      <trkpt lat="43.38447" lon="-1.66648">
        <ele>4</ele>
        <time>2026-06-28T20:00:44Z</time>
      </trkpt>
      <trkpt lat="43.38448" lon="-1.66639">
        <ele>4</ele>
        <time>2026-06-28T20:00:45Z</time>
      </trkpt>
      <trkpt lat="43.38445" lon="-1.66631">
        <ele>4</ele>
        <time>2026-06-28T20:00:46Z</time>
      </trkpt>
      <trkpt lat="43.38424" lon="-1.66604">
        <ele>4</ele>
        <time>2026-06-28T20:00:51Z</time>
      </trkpt>
      <trkpt lat="43.38413" lon="-1.66585">
        <ele>4</ele>
        <time>2026-06-28T20:00:54Z</time>
      </trkpt>
      <trkpt lat="43.38411" lon="-1.66577">
        <ele>4</ele>
        <time>2026-06-28T20:00:55Z</time>
      </trkpt>
      <trkpt lat="43.38412" lon="-1.6656">
        <ele>4</ele>
        <time>2026-06-28T20:00:57Z</time>
      </trkpt>
      <trkpt lat="43.38417" lon="-1.66547">
        <ele>4</ele>
        <time>2026-06-28T20:00:59Z</time>
      </trkpt>
      <trkpt lat="43.38444" lon="-1.66493">
        <ele>5</ele>
        <time>2026-06-28T20:01:08Z</time>
      </trkpt>
      <trkpt lat="43.38482" lon="-1.66425">
        <ele>5</ele>
        <time>2026-06-28T20:01:19Z</time>
      </trkpt>
      <trkpt lat="43.38551" lon="-1.66261">
        <ele>3</ele>
        <time>2026-06-28T20:01:43Z</time>
      </trkpt>
      <trkpt lat="43.38582" lon="-1.66196">
        <ele>4</ele>
        <time>2026-06-28T20:01:53Z</time>
      </trkpt>
      <trkpt lat="43.38588" lon="-1.6618">
        <ele>4</ele>
        <time>2026-06-28T20:01:56Z</time>
      </trkpt>
      <trkpt lat="43.38601" lon="-1.66158">
        <ele>5</ele>
        <time>2026-06-28T20:01:59Z</time>
      </trkpt>
      <trkpt lat="43.38606" lon="-1.66126">
        <ele>6</ele>
        <time>2026-06-28T20:02:04Z</time>
      </trkpt>
      <trkpt lat="43.38608" lon="-1.66061">
        <ele>6</ele>
        <time>2026-06-28T20:02:12Z</time>
      </trkpt>
      <trkpt lat="43.38612" lon="-1.66033">
        <ele>5</ele>
        <time>2026-06-28T20:02:16Z</time>
      </trkpt>
      <trkpt lat="43.38682" lon="-1.65822">
        <ele>4</ele>
        <time>2026-06-28T20:02:46Z</time>
      </trkpt>
      <trkpt lat="43.38716" lon="-1.65725">
        <ele>7</ele>
        <time>2026-06-28T20:03:00Z</time>
      </trkpt>
      <trkpt lat="43.3874" lon="-1.6566">
        <ele>9</ele>
        <time>2026-06-28T20:03:09Z</time>
      </trkpt>
      <trkpt lat="43.38761" lon="-1.65585">
        <ele>10</ele>
        <time>2026-06-28T20:03:20Z</time>
      </trkpt>
      <trkpt lat="43.38769" lon="-1.65566">
        <ele>11</ele>
        <time>2026-06-28T20:03:22Z</time>
      </trkpt>
      <trkpt lat="43.38785" lon="-1.65535">
        <ele>13</ele>
        <time>2026-06-28T20:03:27Z</time>
      </trkpt>
      <trkpt lat="43.38835" lon="-1.65462">
        <ele>17</ele>
        <time>2026-06-28T20:03:40Z</time>
      </trkpt>
      <trkpt lat="43.38847" lon="-1.65441">
        <ele>18</ele>
        <time>2026-06-28T20:03:44Z</time>
      </trkpt>
      <trkpt lat="43.38879" lon="-1.65394">
        <ele>20</ele>
        <time>2026-06-28T20:03:52Z</time>
      </trkpt>
      <trkpt lat="43.38882" lon="-1.65387">
        <ele>20</ele>
        <time>2026-06-28T20:03:53Z</time>
      </trkpt>
      <trkpt lat="43.38883" lon="-1.65378">
        <ele>20</ele>
        <time>2026-06-28T20:03:54Z</time>
      </trkpt>
      <trkpt lat="43.3888" lon="-1.65371">
        <ele>20</ele>
        <time>2026-06-28T20:03:55Z</time>
      </trkpt>
      <trkpt lat="43.38874" lon="-1.65364">
        <ele>19</ele>
        <time>2026-06-28T20:03:57Z</time>
      </trkpt>
      <trkpt lat="43.38866" lon="-1.65361">
        <ele>19</ele>
        <time>2026-06-28T20:03:58Z</time>
      </trkpt>
      <trkpt lat="43.38849" lon="-1.65358">
        <ele>18</ele>
        <time>2026-06-28T20:04:01Z</time>
      </trkpt>
      <trkpt lat="43.38835" lon="-1.65357">
        <ele>17</ele>
        <time>2026-06-28T20:04:04Z</time>
      </trkpt>
      <trkpt lat="43.38828" lon="-1.6536">
        <ele>17</ele>
        <time>2026-06-28T20:04:05Z</time>
      </trkpt>
      <trkpt lat="43.38821" lon="-1.65365">
        <ele>17</ele>
        <time>2026-06-28T20:04:06Z</time>
      </trkpt>
      <trkpt lat="43.3881" lon="-1.65379">
        <ele>17</ele>
        <time>2026-06-28T20:04:09Z</time>
      </trkpt>
      <trkpt lat="43.38798" lon="-1.65407">
        <ele>15</ele>
        <time>2026-06-28T20:04:13Z</time>
      </trkpt>
      <trkpt lat="43.38772" lon="-1.65482">
        <ele>12</ele>
        <time>2026-06-28T20:04:24Z</time>
      </trkpt>
      <trkpt lat="43.38749" lon="-1.65562">
        <ele>8</ele>
        <time>2026-06-28T20:04:35Z</time>
      </trkpt>
      <trkpt lat="43.38721" lon="-1.65639">
        <ele>8</ele>
        <time>2026-06-28T20:04:46Z</time>
      </trkpt>
      <trkpt lat="43.38713" lon="-1.65655">
        <ele>8</ele>
        <time>2026-06-28T20:04:49Z</time>
      </trkpt>
      <trkpt lat="43.38708" lon="-1.65658">
        <ele>8</ele>
        <time>2026-06-28T20:04:50Z</time>
      </trkpt>
      <trkpt lat="43.38702" lon="-1.65656">
        <ele>8</ele>
        <time>2026-06-28T20:04:51Z</time>
      </trkpt>
      <trkpt lat="43.38683" lon="-1.65637">
        <ele>6</ele>
        <time>2026-06-28T20:04:55Z</time>
      </trkpt>
      <trkpt lat="43.38627" lon="-1.65566">
        <ele>5</ele>
        <time>2026-06-28T20:05:09Z</time>
      </trkpt>
      <trkpt lat="43.38619" lon="-1.65566">
        <ele>4</ele>
        <time>2026-06-28T20:05:10Z</time>
      </trkpt>
      <trkpt lat="43.38584" lon="-1.65612">
        <ele>4</ele>
        <time>2026-06-28T20:05:19Z</time>
      </trkpt>
      <trkpt lat="43.38583" lon="-1.65622">
        <ele>4</ele>
        <time>2026-06-28T20:05:20Z</time>
      </trkpt>
      <trkpt lat="43.38588" lon="-1.65631">
        <ele>4</ele>
        <time>2026-06-28T20:05:21Z</time>
      </trkpt>
      <trkpt lat="43.38615" lon="-1.65669">
        <ele>5</ele>
        <time>2026-06-28T20:05:28Z</time>
      </trkpt>
      <trkpt lat="43.38623" lon="-1.65672">
        <ele>5</ele>
        <time>2026-06-28T20:05:30Z</time>
      </trkpt>
      <trkpt lat="43.38629" lon="-1.65669">
        <ele>5</ele>
        <time>2026-06-28T20:05:31Z</time>
      </trkpt>
      <trkpt lat="43.38652" lon="-1.65641">
        <ele>5</ele>
        <time>2026-06-28T20:05:36Z</time>
      </trkpt>
      <trkpt lat="43.38654" lon="-1.65635">
        <ele>5</ele>
        <time>2026-06-28T20:05:37Z</time>
      </trkpt>
    </trkseg>
  </trk>
</gpx>